[[{"header":{"parameterUnit":"m.s-1","parameterCategory":1,"la1":30.6,"la2":28.766,"lo1":-90.7593,"lo2":-88.6598,"dx":0.0162,"dy":0.0183,"nx":116,"ny":114,"refTime":"2023-01-05T18:00:00:Z","depth":0,"parameterNumber":2,"parameterNumberName":"U-component_of_WINDS"},"data":[0.0,0.0,0.0,0.0,0.0,0.0,0.0,0.0,0.0,0.0,0.0,0.0,0.0,0.0,0.0,0.0,0.0,0.0,0.0,0.0,0.0,0.0,0.0,0.0,0.0,0.0,0.0,0.0,0.0,0.0,0.0,0.0,0.0,0.0,0.0,0.0,0.0,0.0,0.0,0.0,0.0,0.0,0.0,0.0,0.0,0.0,0.0,0.0,0.0,0.0,0.0,0.0,0.0,0.0,0.0,0.0,0.0,0.0,0.0,0.0,0.0,0.0,0.0,0.0,0.0,0.0,0.0,0.0,0.0,0.0,0.0,0.0,0.0,0.0,0.0,0.0,0.0,0.0,0.0,0.0,0.0,0.0,0.0,0.0,0.0,0.0,0.0,0.0,0.0,0.0,0.0,0.0,0.0,0.0,0.0,0.0,0.0,0.0,0.0,0.0,0.0,0.0,0.0,0.0,0.0,0.0,0.0,0.0,0.0,0.0,0.0,0.0,0.0,0.0,0.0,0.0,0.0,0.0,0.0,0.0,0.0,0.0,0.0,0.0,0.0,0.0,0.0,0.0,0.0,0.0,0.0,0.0,0.0,0.0,0.0,0.0,0.0,0.0,0.0,0.0,0.0,0.0,0.0,0.0,0.0,0.0,0.0,0.0,0.0,0.0,0.0,0.0,0.0,0.0,0.0,0.0,0.0,0.0,0.0,0.0,0.0,0.0,0.0,0.0,0.0,0.0,0.0,0.0,0.0,0.0,0.0,0.0,0.0,0.0,0.0,0.0,0.0,0.0,0.0,0.0,0.0,0.0,0.0,0.0,0.0,0.0,0.0,0.0,0.0,0.0,0.0,0.0,0.0,0.0,0.0,0.0,0.0,0.0,0.0,0.0,0.0,0.0,0.0,0.0,0.0,0.0,0.0,0.0,0.0,0.0,0.0,0.0,0.0,0.0,0.0,0.0,0.0,0.0,0.0,0.0,0.0,0.0,0.0,0.0,0.0,0.0,0.0,0.0,0.0,0.0,0.0,0.0,0.0,0.0,0.0,0.0,0.0,0.0,0.0,0.0,0.0,0.0,0.0,0.0,0.0,0.0,0.0,0.0,0.0,0.0,0.0,0.0,0.0,0.0,0.0,0.0,0.0,0.0,0.0,0.0,0.0,0.0,0.0,0.0,0.0,0.0,0.0,0.0,0.0,0.0,0.0,0.0,0.0,0.0,0.0,0.0,0.0,0.0,0.0,0.0,0.0,0.0,0.0,0.0,0.0,0.0,0.0,0.0,0.0,0.0,0.0,0.0,0.0,0.0,0.0,0.0,0.0,0.0,0.0,0.0,0.0,0.0,0.0,0.0,0.0,0.0,0.0,0.0,0.0,0.0,0.0,0.0,0.0,0.0,0.0,0.0,0.0,0.0,0.0,0.0,0.0,0.0,0.0,0.0,0.0,0.0,0.0,0.0,0.0,0.0,0.0,0.0,0.0,0.0,0.0,0.0,0.0,0.0,0.0,0.0,0.0,0.0,0.0,0.0,0.0,0.0,0.0,0.0,0.0,0.0,0.0,0.0,0.0,0.0,0.0,0.0,0.0,0.0,0.0,0.0,0.0,0.0,0.0,0.0,0.0,0.0,0.0,0.0,0.0,0.0,0.0,0.0,0.0,0.0,0.0,0.0,0.0,0.0,0.0,0.0,0.0,0.0,0.0,0.0,0.0,0.0,0.0,0.0,0.0,0.0,0.0,0.0,0.0,0.0,0.0,0.0,0.0,0.0,0.0,0.0,0.0,0.0,0.0,0.0,0.0,0.0,0.0,0.0,0.0,0.0,0.0,0.0,0.0,0.0,0.0,0.0,0.0,0.0,0.0,0.0,0.0,0.0,0.0,0.0,0.0,0.0,0.0,0.0,0.0,0.0,0.0,0.0,0.0,0.0,0.0,0.0,0.0,0.0,0.0,0.0,0.0,0.0,0.0,0.0,0.0,0.0,0.0,0.0,0.0,0.0,0.0,0.0,0.0,0.0,0.0,0.0,0.0,0.0,0.0,0.0,0.0,0.0,0.0,0.0,0.0,0.0,0.0,0.0,0.0,0.0,0.0,0.0,0.0,0.0,0.0,0.0,0.0,0.0,0.0,0.0,0.0,0.0,0.0,0.0,0.0,0.0,0.0,0.0,0.0,0.0,0.0,0.0,0.0,0.0,0.0,0.0,0.0,0.0,0.0,0.0,0.0,0.0,0.0,0.0,0.0,0.0,0.0,0.0,0.0,0.0,0.0,0.0,0.0,0.0,0.0,0.0,0.0,0.0,0.0,0.0,0.0,0.0,0.0,0.0,0.0,0.0,0.0,0.0,0.0,0.0,0.0,0.0,0.0,0.0,0.0,0.0,0.0,0.0,0.0,0.0,0.0,0.0,0.0,0.0,0.0,0.0,0.0,0.0,0.0,0.0,0.0,0.0,0.0,0.0,0.0,0.0,0.0,0.0,0.0,0.0,0.0,0.0,0.0,0.0,0.0,0.0,0.0,0.0,0.0,0.0,0.0,0.0,0.0,0.0,0.0,0.0,0.0,0.0,0.0,0.0,0.0,0.0,0.0,0.0,0.0,0.0,0.0,0.0,0.0,0.0,0.0,0.0,0.0,0.0,0.0,0.0,0.0,0.0,0.0,0.0,0.0,0.0,0.0,0.0,0.0,0.0,0.0,0.0,0.0,0.0,0.0,0.0,0.0,0.0,0.0,0.0,0.0,0.0,0.0,0.0,0.0,0.0,0.0,0.0,0.0,0.0,0.0,0.0,0.0,0.0,0.0,0.0,0.0,0.0,0.0,0.0,0.0,0.0,0.0,0.0,0.0,0.0,0.0,0.0,0.0,0.0,0.0,0.0,0.0,0.0,0.0,0.0,0.0,0.0,0.0,0.0,0.0,0.0,0.0,0.0,0.0,0.0,0.0,0.0,0.0,0.0,0.0,0.0,0.0,0.0,0.0,0.0,0.0,0.0,0.0,0.0,0.0,0.0,0.0,0.0,0.0,0.0,0.0,0.0,0.0,0.0,0.0,0.0,0.0,0.0,0.0,0.0,0.0,0.0,0.0,0.0,0.0,0.0,0.0,0.0,0.0,0.0,0.0,0.0,0.0,0.0,0.0,0.0,0.0,0.0,0.0,0.0,0.0,0.0,0.0,0.0,0.0,0.0,0.0,0.0,0.0,0.0,0.0,0.0,0.0,0.0,0.0,0.0,0.0,0.0,0.0,0.0,0.0,0.0,0.0,0.0,0.0,0.0,0.0,0.0,0.0,0.0,0.0,0.0,0.0,0.0,0.0,0.0,0.0,0.0,0.0,0.0,0.0,0.0,0.0,0.0,0.0,0.0,0.0,0.0,0.0,0.0,0.0,0.0,0.0,0.0,0.0,0.0,0.0,0.0,0.0,0.0,0.0,0.0,0.0,0.0,0.0,0.0,0.0,0.0,0.0,0.0,0.0,0.0,0.0,0.0,0.0,0.0,0.0,0.0,0.0,0.0,0.0,0.0,0.0,0.0,0.0,0.0,0.0,0.0,0.0,0.0,0.0,0.0,0.0,0.0,0.0,0.0,0.0,0.0,0.0,0.0,0.0,0.0,0.0,0.0,0.0,0.0,0.0,0.0,0.0,0.0,0.0,0.0,0.0,0.0,0.0,0.0,0.0,0.0,0.0,0.0,0.0,0.0,0.0,0.0,0.0,0.0,0.0,0.0,0.0,0.0,0.0,0.0,0.0,0.0,0.0,0.0,0.0,0.0,0.0,0.0,0.0,0.0,0.0,0.0,0.0,0.0,0.0,0.0,0.0,0.0,0.0,0.0,0.0,0.0,0.0,0.0,0.0,0.0,0.0,0.0,0.0,0.0,0.0,0.0,0.0,0.0,0.0,0.0,0.0,0.0,0.0,0.0,0.0,0.0,0.0,0.0,0.0,0.0,0.0,0.0,0.0,0.0,0.0,0.0,0.0,0.0,0.0,0.0,0.0,0.0,0.0,0.0,0.0,0.0,0.0,0.0,0.0,0.0,0.0,0.0,0.0,0.0,0.0,0.0,0.0,0.0,0.0,0.0,0.0,0.0,0.0,0.0,0.0,0.0,0.0,0.0,0.0,0.0,0.0,0.0,0.0,0.0,0.0,0.0,0.0,0.0,0.0,0.0,0.0,0.0,0.0,0.0,0.0,0.0,0.0,0.0,0.0,0.0,0.0,0.0,0.0,0.0,0.0,0.0,0.0,0.0,0.0,0.0,0.0,0.0,0.0,0.0,0.0,0.0,0.0,0.0,0.0,0.0,0.0,0.0,0.0,0.0,0.0,0.0,0.0,0.0,0.0,0.0,0.0,0.0,0.0,0.0,0.0,0.0,0.0,0.0,0.0,0.0,0.0,0.0,0.0,0.0,0.0,0.0,0.0,0.0,0.0,0.0,0.0,0.0,0.0,0.0,0.0,0.0,0.0,0.0,0.0,0.0,0.0,0.0,0.0,0.0,0.0,0.0,0.0,0.0,0.0,0.0,0.0,0.0,0.0,0.0,0.0,0.0,0.0,0.0,0.0,0.0,0.0,0.0,0.0,0.0,0.0,0.0,0.0,0.0,0.0,0.0,0.0,0.0,0.0,0.0,0.0,0.0,0.0,0.0,0.0,0.0,0.0,0.0,0.0,0.0,0.0,0.0,0.0,0.0,0.0,0.0,0.0,0.0,0.0,0.0,0.0,0.0,0.0,0.0,0.0,0.0,0.0,0.0,0.0,0.0,0.0,0.0,0.0,0.0,0.0,0.0,0.0,0.0,0.0,0.0,0.0,0.0,0.0,0.0,0.0,0.0,0.0,0.0,0.0,0.0,0.0,0.0,0.0,0.0,0.0,0.0,0.0,0.0,0.0,0.0,0.0,0.0,0.0,0.0,0.0,0.0,0.0,0.0,0.0,0.0,0.0,0.0,0.0,0.0,0.0,0.0,0.0,0.0,0.0,0.0,0.0,0.0,0.0,0.0,0.0,0.0,0.0,0.0,0.0,0.0,0.0,0.0,0.0,0.0,0.0,0.0,0.0,0.0,0.0,0.0,0.0,0.0,0.0,0.0,0.0,0.0,0.0,0.0,0.0,0.0,0.0,0.0,0.0,0.0,0.0,0.0,0.0,0.0,0.0,0.0,0.0,0.0,0.0,0.0,0.0,0.0,0.0,0.0,0.0,0.0,0.0,0.0,0.0,0.0,0.0,0.0,0.0,0.0,0.0,0.0,0.0,0.0,0.0,0.0,0.0,0.0,0.0,0.0,0.0,0.0,0.0,0.0,0.0,0.0,0.0,0.0,0.0,0.0,0.0,0.0,0.0,0.0,0.0,0.0,0.0,0.0,0.0,0.0,0.0,0.0,0.0,0.0,0.0,0.0,0.0,0.0,0.0,0.0,0.0,0.0,0.0,0.0,0.0,0.0,0.0,0.0,0.0,0.0,0.0,0.0,0.0,0.0,0.0,0.0,0.0,0.0,0.0,0.0,0.0,0.0,0.0,0.0,0.0,0.0,0.0,0.0,0.0,0.0,0.0,0.0,0.0,0.0,0.0,0.0,0.0,0.0,0.0,0.0,0.0,0.0,0.0,0.0,0.0,0.0,0.0,0.0,0.0,0.0,0.0,0.0,0.0,0.0,0.0,0.0,0.0,0.0,0.0,0.0,0.0,0.0,0.0,0.0,0.0,0.0,0.0,0.0,0.0,0.0,0.0,0.0,0.0,0.0,0.0,0.0,0.0,0.0,0.0,0.0,0.0,0.0,0.0,0.0,0.0,0.0,0.0,0.0,0.0,0.0,0.0,0.0,0.0,0.0,0.0,0.0,0.0,0.0,0.0,0.0,0.0,0.0,0.0,0.0,0.0,0.0,0.0,0.0,0.0,0.0,0.0,0.0,0.0,0.0,0.0,0.0,0.0,0.0,0.0,0.0,0.0,0.0,0.0,0.0,0.0,0.0,0.0,0.0,0.0,0.0,0.0,0.0,0.0,0.0,0.0,0.0,0.0,0.0,0.0,0.0,0.0,0.0,0.0,0.0,0.0,0.0,0.0,0.0,0.0,0.0,0.0,0.0,0.0,0.0,0.0,0.0,0.0,0.0,1.4738,1.5466,0.0,0.0,0.0,0.0,0.0,0.0,0.0,0.0,0.0,0.0,0.0,0.0,0.0,0.0,0.0,0.0,0.0,0.0,0.0,0.0,0.0,0.0,0.0,1.6726,1.7115,1.8071,1.7861,0.0,0.0,0.0,0.0,0.0,0.0,0.0,0.0,0.0,1.4423,1.4752,1.4423,1.4603,1.5289,1.5201,1.5022,1.4752,0.0,0.0,0.0,0.0,0.0,0.0,0.0,0.0,0.0,0.0,0.0,0.0,0.0,0.0,0.0,0.0,0.0,0.0,0.0,0.0,0.0,0.0,0.0,0.0,0.0,0.0,0.0,0.0,0.0,0.0,0.0,0.0,0.0,0.0,0.0,0.0,0.0,0.0,0.0,0.0,0.0,0.0,0.0,0.0,0.0,0.0,0.0,0.0,0.0,0.0,0.0,0.0,0.0,0.0,0.0,0.0,0.0,0.0,0.0,0.0,0.0,0.0,0.0,0.0,0.0,0.0,0.0,0.0,0.0,0.0,1.3368,1.4003,0.0,0.0,0.0,0.0,0.0,0.0,0.0,0.0,0.0,0.0,0.0,0.0,0.0,0.0,0.0,0.0,0.0,0.0,0.0,0.0,0.0,1.5377,1.6726,1.6876,1.7413,1.8762,1.8373,1.7981,1.7861,1.7264,0.0,0.0,0.0,0.0,1.5799,1.5351,1.5381,1.5978,1.5854,1.6153,1.6819,1.7844,1.7751,1.6608,1.571,0.0,0.0,0.0,0.0,0.0,0.0,0.0,0.0,0.0,0.0,0.0,0.0,0.0,0.0,0.0,0.0,0.0,0.0,0.0,0.0,0.0,0.0,0.0,0.0,0.0,0.0,0.0,0.0,0.0,0.0,0.0,0.0,0.0,0.0,0.0,0.0,0.0,0.0,0.0,0.0,0.0,0.0,0.0,0.0,0.0,0.0,0.0,0.0,0.0,0.0,0.0,0.0,0.0,0.0,0.0,0.0,0.0,0.0,0.0,0.0,0.0,0.0,0.0,1.6098,1.584,1.6172,1.4648,1.3924,1.3733,1.2457,1.2761,1.4178,1.4146,0.0,0.0,0.0,0.0,0.0,0.0,0.0,0.0,0.0,0.0,0.0,0.0,0.0,0.0,0.0,0.0,0.0,0.0,0.0,1.5832,1.7386,1.7563,1.81,1.945,1.948,1.9181,1.8612,1.7921,0.0,0.0,0.0,0.0,1.5799,1.6248,1.6488,1.6577,1.8714,2.0118,2.0733,2.0918,2.0671,1.9989,1.8164,1.7294,1.7234,0.0,0.0,0.0,0.0,0.0,0.0,0.0,0.0,0.0,0.0,0.0,0.0,0.0,0.0,0.0,0.0,0.0,0.0,0.0,0.0,0.0,0.0,0.0,0.0,0.0,0.0,0.0,0.0,0.0,0.0,0.0,0.0,0.0,0.0,0.0,0.0,0.0,0.0,0.0,0.0,0.0,2.2694,2.2665,0.0,0.0,0.0,0.0,0.0,0.0,0.0,0.0,0.0,0.0,0.0,0.0,0.0,1.8736,1.8487,1.7513,1.6919,1.6766,1.6582,1.6582,1.6578,1.5633,1.5364,1.5451,1.3539,0.0,1.3009,1.4298,0.0,0.0,0.0,0.0,0.0,0.0,0.0,0.0,0.0,0.0,0.0,0.0,0.0,0.0,0.0,0.0,0.0,0.0,0.0,0.0,0.0,1.8175,1.8642,1.96,1.969,1.942,1.8762,1.8041,0.0,0.0,0.0,1.5978,1.6308,1.6818,1.776,1.9186,2.0434,2.1537,2.2445,2.216,2.1867,2.1613,2.0466,1.954,1.8762,1.7834,0.0,0.0,0.0,0.0,0.0,0.0,0.0,0.0,0.0,0.0,0.0,0.0,0.0,0.0,0.0,0.0,0.0,0.0,0.0,0.0,0.0,0.0,0.0,0.0,0.0,0.0,0.0,0.0,0.0,0.0,0.0,0.0,0.0,0.0,0.0,0.0,0.0,0.0,0.0,2.3388,2.3159,2.3068,2.2814,2.2491,0.0,0.0,0.0,0.0,0.0,0.0,0.0,0.0,0.0,2.0245,1.956,1.8876,1.8315,1.7841,1.7451,1.709,1.709,1.7227,1.7375,1.6541,1.6211,1.6151,1.4204,1.3424,1.3543,1.3353,1.3236,1.3202,0.0,0.0,0.0,0.0,1.609,1.6144,0.0,0.0,0.0,0.0,0.0,0.0,0.0,0.0,0.0,0.0,0.0,0.0,1.8377,1.8758,1.9241,1.9899,2.0109,1.9989,1.951,1.8523,1.7712,1.7234,1.6308,1.6069,1.6697,1.7699,1.931,2.1633,2.2136,2.2939,2.3932,2.3506,2.3174,2.2909,2.2543,2.1581,2.0168,1.951,1.8429,1.7145,0.0,0.0,0.0,0.0,0.0,0.0,0.0,0.0,0.0,0.0,0.0,0.0,0.0,0.0,0.0,0.0,0.0,0.0,0.0,0.0,0.0,0.0,0.0,0.0,0.0,0.0,0.0,0.0,0.0,0.0,0.0,0.0,0.0,0.0,0.0,0.0,0.0,2.3125,2.2931,2.3175,2.2777,2.2325,0.0,0.0,0.0,0.0,0.0,0.0,1.9267,1.9267,1.9263,1.9409,1.9144,1.8794,1.8342,1.7985,1.7731,1.7539,1.7539,1.7715,1.8008,1.7285,1.6978,1.7,1.5303,1.4642,1.4576,1.2921,1.2226,1.2265,1.3235,1.3427,1.3235,1.4461,1.4921,1.5138,0.0,0.0,0.0,0.0,0.0,0.0,0.0,0.0,0.0,0.0,0.0,1.814,1.9216,1.952,1.9899,2.0587,2.1246,2.1575,2.1545,1.972,1.8642,1.8612,1.6787,1.6069,1.6697,1.9117,2.1234,2.3079,2.4276,2.5205,2.5862,2.5826,2.5277,2.4296,2.4296,2.3264,2.1545,2.0887,1.9839,1.8553,1.7861,0.0,0.0,0.0,0.0,0.0,0.0,0.0,0.0,0.0,0.0,0.0,0.0,0.0,0.0,0.0,0.0,0.0,0.0,0.0,0.0,0.0,0.0,0.0,0.0,0.0,0.0,0.0,0.0,0.0,0.0,0.0,0.0,0.0,0.0,0.0,0.0,0.0,0.0,2.2485,2.1042,0.0,0.0,0.0,0.0,1.8821,1.8178,1.7743,1.7688,1.7688,1.789,1.8385,1.7679,1.7733,1.8469,1.778,1.7625,1.7969,1.7969,1.7988,1.8008,1.794,1.8154,1.8453,1.744,1.6694,1.5935,1.3686,1.2728,1.2804,1.3679,1.3153,1.2012,1.3329,1.38,1.3992,0.0,0.0,0.0,1.6987,1.6593,1.661,1.7287,1.7219,1.731,1.7937,1.8489,1.9163,2.0019,2.0467,2.1008,2.175,2.1741,2.1515,2.1096,1.96,1.8702,1.8702,1.7236,1.7211,1.8987,2.0423,2.216,2.4204,2.4742,2.5512,2.6453,2.6139,2.5815,2.5411,2.4712,2.406,2.3366,2.2395,2.1455,2.0557,1.9899,1.8852,0.0,0.0,0.0,0.0,0.0,0.0,0.0,0.0,0.0,0.0,0.0,0.0,0.0,0.0,0.0,0.0,0.0,0.0,0.0,0.0,0.0,0.0,0.0,0.0,0.0,0.0,0.0,0.0,0.0,0.0,0.0,0.0,0.0,0.0,0.0,0.0,0.0,2.2538,2.1956,0.0,2.1222,2.0621,2.0037,1.9681,1.892,1.8458,1.8458,1.8458,1.8547,1.8666,1.8797,1.8695,1.8489,1.8606,1.8435,1.8008,1.8008,1.8008,1.8027,1.8281,1.8496,1.8582,1.7897,1.7243,1.6419,1.4982,1.3895,1.3118,1.3352,1.2713,1.1744,1.2959,1.2463,1.1721,0.0,0.0,0.0,1.6462,1.6157,1.6306,1.7287,1.7422,1.7693,1.8447,1.9258,2.0167,2.1151,2.163,2.2123,2.2692,2.2692,2.2345,2.1724,2.0228,1.939,1.939,1.8071,1.8236,2.0058,2.1224,2.2726,2.4596,2.5069,2.5813,2.6691,2.6383,2.6139,2.5961,2.5259,2.4752,2.4358,2.359,2.2798,2.1994,2.1545,2.0587,1.9301,0.0,0.0,0.0,0.0,0.0,0.0,0.0,0.0,0.0,0.0,0.0,0.0,0.0,0.0,0.0,0.0,0.0,0.0,0.0,0.0,0.0,0.0,0.0,0.0,0.0,0.0,0.0,0.0,0.0,0.0,0.0,0.0,0.0,0.0,2.2011,2.2028,2.2803,2.2269,2.1812,2.1776,2.0888,2.0251,1.9843,1.8813,1.8148,1.8148,1.8148,1.8211,1.8382,1.8742,1.8743,1.8349,1.8701,1.8596,1.8008,1.8008,1.7872,1.751,1.7777,1.792,1.7751,1.7492,1.697,1.6317,1.569,1.4712,1.3507,1.3507,1.2832,1.1922,1.277,1.2159,1.1368,0.0,0.0,1.6462,1.5764,1.6224,1.6699,1.6733,1.7963,1.9147,1.9866,2.0317,2.1085,2.2566,2.2994,2.3242,2.3414,2.4058,2.4184,2.3593,2.1754,2.0707,2.0647,1.945,1.9061,1.972,2.1504,2.3017,2.4195,2.5383,2.621,2.6691,2.6691,2.6487,2.5997,2.5997,2.5411,2.443,2.4389,2.3764,2.2753,2.2753,2.1934,2.0669,0.0,0.0,0.0,0.0,0.0,0.0,0.0,0.0,0.0,0.0,0.0,0.0,0.0,0.0,0.0,0.0,0.0,0.0,0.0,0.0,0.0,0.0,0.0,0.0,0.0,0.0,0.0,0.0,0.0,0.0,0.0,0.0,0.0,2.1432,2.0605,2.0625,2.3007,2.1758,2.1142,2.2221,2.0382,1.9157,1.9157,1.7678,1.6777,1.6714,1.6714,1.6973,1.7383,1.7402,1.7598,1.794,1.794,1.794,1.794,1.794,1.7423,1.6558,1.6594,1.6436,1.6228,1.6244,1.6047,1.5696,1.5696,1.5061,1.4095,1.4095,1.3392,1.2369,1.2715,1.2897,1.3045,1.6733,1.6292,1.6001,1.636,1.6563,1.6902,1.7422,1.8302,1.8978,1.9181,2.0699,2.2157,2.3093,2.3885,2.4418,2.4678,2.4507,2.3784,2.2304,2.1276,2.0288,1.9301,1.9839,2.0468,2.1126,2.2455,2.3546,2.4351,2.5464,2.6068,2.6175,2.6556,2.6624,2.6487,2.6139,2.5598,2.495,2.4592,2.3967,2.334,2.334,2.2579,2.1336,0.0,0.0,0.0,0.0,0.0,0.0,0.0,0.0,0.0,0.0,0.0,0.0,0.0,0.0,0.0,0.0,0.0,0.0,0.0,0.0,0.0,0.0,0.0,0.0,0.0,0.0,0.0,0.0,0.0,0.0,0.0,1.9772,1.9299,1.954,1.9064,1.9174,2.0496,2.0815,2.1311,2.2214,2.1608,2.0873,2.025,1.9169,1.8299,1.7656,1.7656,1.7715,1.7832,1.7832,1.7532,1.6991,1.6991,1.6645,1.5948,1.5948,1.5807,1.5596,1.6066,1.6254,1.6261,1.6789,1.6508,1.5696,1.5696,1.519,1.4376,1.4175,1.3506,1.279,1.3673,1.4333,1.463,1.6766,1.636,1.6211,1.6761,1.6782,1.7012,1.7847,1.8744,1.935,1.935,2.1346,2.3038,2.3782,2.461,2.524,2.5496,2.5067,2.4044,2.2513,2.1603,2.0647,1.96,2.0557,2.1425,2.2084,2.2768,2.3538,2.4389,2.5259,2.5779,2.5997,2.6487,2.6691,2.6691,2.6418,2.6033,2.5486,2.495,2.443,2.3921,2.3666,2.3024,2.2045,2.1384,2.0471,1.962,1.9586,1.9404,1.9332,2.0076,0.0,0.0,0.0,0.0,0.0,0.0,0.0,0.0,0.0,0.0,0.0,0.0,0.0,0.0,0.0,0.0,0.0,0.0,0.0,0.0,0.0,0.0,0.0,0.0,1.9721,1.8917,1.8881,1.8679,1.8812,1.9564,2.0476,2.1284,2.2089,2.2018,2.1565,2.0655,1.9814,1.8911,1.8076,1.8008,1.8008,1.8008,1.7647,1.7148,1.6627,1.621,1.572,1.5226,1.5226,1.5023,1.4751,1.5146,1.5265,1.5091,1.5579,1.5509,1.5061,1.5061,1.4824,1.4496,0.0,0.0,0.0,0.0,1.5177,1.5511,1.697,1.6766,1.6816,1.7166,1.7055,1.7258,1.8184,1.9348,2.0137,2.0137,2.2124,2.3748,2.4455,2.5236,2.5749,2.5867,2.5454,2.4664,2.3389,2.2243,2.1365,2.0857,2.1455,2.2084,2.2694,2.2783,2.3292,2.4307,2.4871,2.5335,2.5852,2.635,2.6624,2.6624,2.6691,2.6453,2.5961,2.5486,2.495,2.4348,2.3879,2.3275,2.2637,2.2014,2.1412,2.0863,2.0805,2.0479,2.0125,2.0279,0.0,0.0,0.0,0.0,0.0,0.0,0.0,0.0,0.0,0.0,0.0,0.0,0.0,0.0,0.0,0.0,0.0,0.0,0.0,0.0,0.0,0.0,0.0,0.0,1.9249,1.8475,1.8955,1.8863,1.8978,1.9621,2.0327,2.1026,2.1705,2.1705,2.1369,2.0526,1.9705,1.887,1.8076,1.8008,0.0,0.0,0.0,1.6419,1.6123,1.5296,1.4728,1.4498,1.4498,1.4252,1.3705,1.3733,1.3549,1.3231,1.3257,1.3412,1.3743,1.3828,1.4183,1.4576,1.4603,1.4776,1.5044,1.5337,1.5605,1.5832,1.7625,1.7117,1.6952,1.7838,1.8266,1.862,1.9026,2.0157,2.0974,2.0974,2.2931,2.4354,2.4489,2.5676,2.6118,2.5104,2.5163,2.4547,2.2929,2.1624,2.1096,2.1485,2.2143,2.2574,2.2724,2.3161,2.3503,2.3752,2.4266,2.4632,2.4752,2.5672,2.6139,2.6139,2.6521,2.6453,2.5997,2.5888,2.5297,2.4389,2.4266,2.3636,2.2706,2.2516,2.2024,2.1478,2.1903,2.2009,2.2034,2.3146,2.2425,2.1193,2.1615,2.063,0.0,0.0,0.0,0.0,0.0,0.0,0.0,0.0,0.0,0.0,0.0,0.0,0.0,0.0,0.0,0.0,0.0,0.0,0.0,1.9239,1.8829,1.8511,1.8596,1.8352,1.8365,1.8765,1.9319,1.9965,2.0782,2.0483,2.0102,1.9596,1.9017,1.852,1.8056,1.8008,1.7647,1.6922,1.6697,1.5475,1.3085,1.2882,1.2004,1.0473,1.0473,0.0,1.0384,1.066,1.0751,1.0877,1.107,1.1262,1.1391,1.2248,1.3498,1.4897,1.5137,1.5257,1.5351,1.5631,1.5778,1.5832,1.8819,1.8031,1.7608,1.8808,1.9057,1.9349,1.9996,2.0835,2.1353,2.1204,2.2829,2.3951,2.3951,2.4932,2.5343,2.4712,2.4246,2.3542,2.2583,2.1865,2.1689,2.2184,2.2802,2.3131,2.3131,2.343,2.361,2.361,2.4142,2.4389,2.443,2.5486,2.5997,2.5997,2.6487,2.659,2.6315,2.6104,2.5705,2.5144,2.4632,2.4273,2.4,2.3406,2.2693,2.2168,2.2694,2.2502,2.2098,2.3031,2.2554,2.1581,2.1918,2.1215,2.0188,0.0,0.0,0.0,0.0,0.0,0.0,0.0,0.0,0.0,0.0,0.0,0.0,0.0,0.0,1.971,1.9252,0.0,1.9059,1.9304,1.8826,1.8572,1.8866,1.8388,1.8045,1.8273,1.8899,1.9486,1.9879,2.0112,2.0004,1.9354,1.9078,1.8664,1.8056,1.7579,1.706,1.6627,1.5192,1.3663,1.2225,1.1205,1.026,0.9301,0.9301,0.9463,0.9697,0.9807,1.0038,1.0454,1.0565,1.0605,1.0712,1.2178,1.3314,1.4264,1.5206,1.5618,1.5631,1.5778,1.5832,1.5832,1.9866,1.9022,1.8586,1.9717,1.9878,2.0092,2.0886,2.1476,2.1729,2.1434,2.2564,2.341,2.341,2.3917,2.4225,2.4163,2.2984,2.2378,2.2611,2.243,2.2547,2.3009,2.3426,2.361,2.361,2.361,2.361,2.361,2.4017,2.4225,2.4266,2.5259,2.5742,2.5888,2.635,2.6624,2.6691,2.628,2.6068,2.5924,2.495,2.4968,2.5456,2.4473,2.3603,2.3018,2.3411,2.2829,2.187,2.2322,2.2171,2.182,2.182,2.1493,2.1142,2.1142,2.074,0.0,0.0,0.0,0.0,0.0,0.0,0.0,0.0,2.197,2.1815,2.0614,2.0511,2.0271,1.905,1.9069,1.9312,1.9336,1.8807,1.8565,1.9003,1.8462,1.8008,1.8008,1.8596,1.9044,1.9044,1.9467,1.9424,1.8803,1.8522,1.8121,1.751,1.6715,1.614,1.5773,1.3447,1.1931,1.1428,0.9895,0.9008,0.8703,0.8703,0.8911,0.9299,0.9299,0.9526,0.9913,0.9913,1.0115,1.0445,1.2193,1.3078,1.352,1.5132,1.5832,1.5832,1.5832,1.5832,1.5832,1.9968,1.9866,1.9864,2.0269,2.0893,2.1368,2.1423,2.2071,2.2461,2.2186,2.2902,2.341,2.341,2.3477,2.3328,2.2862,2.1546,2.1629,2.3761,2.2905,2.2887,2.4153,2.3806,2.361,2.361,2.361,2.361,2.361,2.3666,2.3666,2.3709,2.4307,2.4831,2.5297,2.5852,2.628,2.6691,2.6657,2.6383,2.5961,2.5335,2.5579,2.6209,2.5604,2.4854,2.4231,2.419,2.3625,2.289,2.2965,2.294,2.289,2.289,2.2899,2.2849,2.2849,2.2472,2.2146,2.2623,2.2447,2.2146,2.2196,2.1895,2.182,0.0,2.2246,2.1468,2.1021,2.0049,1.9193,1.8659,1.8083,1.7744,1.8121,1.8133,1.8085,1.8124,1.8076,1.8008,1.8008,1.8076,1.8144,1.8144,1.713,1.6566,1.6886,1.5738,1.5154,1.5508,1.5367,1.4569,1.2736,1.2371,1.1069,0.8732,0.8512,0.7821,0.6599,0.6599,0.6748,0.6957,0.7123,0.7289,0.7489,0.7489,0.8182,0.9409,1.099,1.233,1.352,1.5132,1.5832,1.5832,1.5832,1.5832,1.5832,2.1252,2.1319,2.1373,2.1506,2.154,2.1725,2.215,2.2487,2.2599,2.2349,2.2564,2.2767,2.2767,2.2767,2.2478,2.1836,2.1635,2.2225,2.3777,2.3407,2.3496,2.4368,2.4184,2.3921,2.361,2.361,2.361,2.361,2.361,2.361,2.358,2.4142,2.4511,2.4792,2.5598,2.6104,2.628,2.659,2.6453,2.5961,2.5779,2.5967,2.6377,2.6153,2.5893,2.5593,2.5079,2.4213,0.0,2.3144,2.2865,2.2723,2.2965,2.2924,2.2774,2.3452,2.3251,2.2924,2.3477,2.3226,2.268,2.2176,2.2491,2.2855,2.247,2.2664,2.266,2.1752,2.111,2.0432,1.9507,1.8874,1.8455,1.837,1.8164,1.8008,1.8008,1.8008,1.8008,1.8008,1.8008,1.7784,1.7217,1.662,1.6171,1.5773,1.5233,1.5006,1.5226,1.4053,1.31,1.2225,1.0525,0.9216,0.8291,0.7512,0.6261,0.4462,0.4462,0.4489,0.4606,0.6127,0.6871,0.7143,0.7143,0.7541,0.8328,0.9771,1.1194,1.2672,1.4124,1.514,1.5832,1.5832,1.5832,1.5832,2.2296,2.2349,2.2327,2.2327,2.2036,2.1979,2.253,2.2643,2.2599,2.2349,2.2327,2.2226,2.2023,2.1989,2.1786,2.1271,2.1684,2.2521,2.3817,2.3654,2.3926,2.4808,2.4552,2.4225,2.3837,2.3837,2.3752,2.361,2.361,2.361,2.361,2.4006,2.4266,2.443,2.5221,2.5742,2.5997,2.635,2.6418,2.6175,2.5888,2.5997,2.6318,2.601,2.5931,2.5901,2.5154,2.4177,2.3115,2.2401,2.2046,2.192,2.2322,2.2297,2.2322,2.3627,2.3904,2.3766,2.3704,2.3306,2.2751,2.1776,2.2288,2.2882,2.2097,2.2688,2.3132,2.2097,2.1877,2.1579,2.0485,1.9937,1.9523,1.9113,1.8674,1.8259,1.8008,1.8008,1.8008,1.8008,1.8008,1.7647,1.6697,1.6627,1.621,1.5296,1.4942,1.4657,1.4371,1.275,1.1723,1.1428,0.914,0.788,0.7752,0.6754,0.5497,0.3999,0.3995,0.3691,0.335,0.5774,0.6946,0.7143,0.7143,0.7312,0.7691,0.8971,1.0216,1.156,1.3199,1.4459,1.5343,1.5629,1.5832,1.5832,2.2695,2.2473,2.2327,2.2327,2.2293,2.2293,2.2293,2.2554,2.2599,2.2349,2.2327,2.2023,2.1339,2.1237,2.1237,2.1204,2.1237,2.2158,2.4323,2.3552,2.3887,2.5859,2.495,2.4389,2.4389,2.4389,2.4101,2.361,2.361,2.361,2.361,2.361,2.3921,2.4389,2.443,2.5028,2.5997,2.5997,2.6279,2.659,2.5635,2.563,2.61,2.5028,2.4642,2.4548,2.395,2.3278,2.2326,2.05,2.0263,2.0769,2.0794,2.1091,2.1845,2.3502,2.4732,2.5153,2.3248,2.2726,2.2391,2.096,2.0655,2.0933,2.169,2.1963,2.1963,2.1877,2.1877,2.1792,2.1438,2.0927,2.0423,2.0122,1.9603,1.8977,1.8144,1.8008,1.8008,1.8008,1.8008,1.7647,1.6697,1.6627,1.621,1.5296,1.4314,1.339,1.2452,1.1391,1.0409,0.9442,0.8646,0.7675,0.6373,0.6315,0.625,0.6185,0.6172,0.5245,0.3692,0.6034,0.7129,0.7143,0.7143,0.7312,0.7691,0.8971,0.975,1.0288,1.2909,1.3872,1.4076,1.5343,1.5832,1.5832,2.3021,2.2772,2.2546,2.2546,2.2426,2.2327,2.2327,2.2405,2.2398,2.2293,2.2327,0.0,0.0,0.0,0.0,0.0,2.1651,2.2462,2.368,2.3909,2.4381,2.517,2.5375,2.5297,2.495,2.4592,2.4307,2.4101,2.3752,2.361,2.361,2.361,2.3666,2.3879,2.4225,2.4792,2.5486,2.5852,2.6068,2.621,2.5888,2.5709,2.5675,2.5751,2.5303,2.4462,0.0,2.2432,2.1334,2.0194,1.971,1.971,2.0439,2.0192,1.9848,2.0959,2.2034,2.2671,2.2016,2.1606,2.1141,2.0312,2.0533,2.093,2.0665,2.0995,2.1362,2.1106,2.204,2.2869,2.2502,2.2455,2.2205,2.1246,2.007,1.8757,1.7267,1.7579,1.7784,1.7148,1.7647,1.7872,1.7579,1.6991,1.621,1.5296,1.4243,1.3535,1.3244,1.1081,0.9669,0.9301,0.7795,0.6099,0.4224,0.4701,0.5347,0.6335,0.6438,0.6229,0.571,0.6673,0.7068,0.7143,0.7143,0.7312,0.7597,0.8059,0.8909,1.019,1.194,1.3102,1.4064,1.5343,1.5832,1.5832,0.0,2.3294,2.2952,2.3128,2.2752,0.0,0.0,0.0,0.0,0.0,0.0,0.0,0.0,0.0,0.0,0.0,0.0,2.2632,2.3342,2.3664,2.411,2.4647,2.5008,2.5029,2.4673,2.434,2.4249,2.4348,2.3762,2.3661,2.3969,2.3699,2.361,2.361,2.3964,2.443,2.495,2.5297,2.5848,2.6352,2.5422,2.5179,2.5358,2.5155,2.4425,0.0,2.279,2.167,2.0351,1.9269,1.8674,1.8606,1.951,1.9711,1.9601,1.9897,2.0665,2.1285,2.0776,2.049,2.0203,1.9576,1.9671,1.9913,1.9634,1.9906,2.0172,2.0204,2.1858,2.3171,2.3144,2.3451,2.338,2.2418,2.115,1.9635,1.7858,1.8088,1.8132,1.7185,1.7647,1.8008,1.8008,1.7423,1.6715,1.579,1.5084,1.4458,1.3738,1.1205,0.9658,0.9291,0.7334,0.5634,0.4219,0.3982,0.4618,0.6315,0.66,0.6729,0.6805,0.7027,0.7068,0.7143,0.7143,0.7312,0.7597,0.7597,0.8247,0.941,1.0681,1.2037,1.3295,1.4663,1.5439,1.5832,0.0,0.0,2.3459,0.0,0.0,0.0,0.0,0.0,0.0,0.0,0.0,0.0,0.0,0.0,0.0,0.0,0.0,0.0,2.3308,2.2886,2.3187,2.4391,2.3982,2.3753,2.3753,2.372,2.389,2.4287,2.3668,2.3753,2.4507,2.3923,2.3653,2.361,2.361,2.3921,2.4389,2.4389,2.5425,2.6809,2.4382,2.4141,2.508,2.3371,2.2293,2.1744,2.1942,2.1121,1.9724,1.8003,1.7506,1.7626,1.8081,1.9454,2.0854,2.0299,2.0664,2.0908,1.9613,1.9469,1.9527,1.8754,1.8061,1.7805,1.867,1.849,1.8465,1.9349,2.1108,2.2793,2.3423,2.3765,2.3912,2.3546,2.2559,2.122,1.9416,1.9219,1.8926,0.0,0.0,0.0,0.0,1.794,1.7579,1.6576,1.6489,1.572,1.381,1.1771,1.0226,0.9226,0.7342,0.6281,0.6281,0.4297,0.4297,0.6281,0.6654,0.6791,0.6709,0.7,0.7136,0.7143,0.7143,0.7312,0.7597,0.7597,0.7773,0.8137,0.9509,1.0779,1.2047,1.3392,1.4758,1.5832,0.0,0.0,0.0,0.0,0.0,0.0,0.0,0.0,0.0,0.0,0.0,0.0,0.0,0.0,0.0,0.0,0.0,0.0,2.2564,2.2954,2.3325,2.368,2.4096,2.4303,2.4303,2.3884,2.375,2.3832,2.3893,2.3818,2.3631,2.402,2.4006,2.361,2.361,2.3921,2.4389,2.4389,2.4618,2.4856,2.3818,2.3313,2.3173,2.3311,2.2682,2.1844,2.2825,2.2085,2.0497,1.9611,1.9568,1.9734,1.8846,1.9235,1.993,1.92,1.8931,1.8805,1.8434,1.791,1.7492,1.7528,1.6954,1.6416,1.6822,1.6805,1.7033,1.8008,1.9786,2.167,2.3338,2.3884,2.3946,2.3347,2.1913,2.0092,1.7637,1.7884,0.0,1.7097,0.0,1.7716,1.6991,1.6922,1.6576,1.5649,1.5579,1.498,1.3648,1.1119,0.9205,0.8237,0.6949,0.6268,0.6281,0.5724,0.5796,0.6268,0.6451,0.6593,0.6709,0.6898,0.7041,0.7143,0.7143,0.7312,0.7597,0.7597,0.7773,0.8137,0.9509,1.0779,1.2047,1.3392,1.4758,1.5832,0.0,0.0,0.0,0.0,0.0,0.0,0.0,0.0,0.0,0.0,0.0,0.0,0.0,0.0,0.0,0.0,0.0,0.0,0.0,2.2699,2.2936,2.2936,2.3308,2.3511,2.3511,2.3237,2.3421,2.4146,2.3677,2.3642,2.4069,2.3889,2.3639,2.3323,2.3122,2.3203,2.3482,2.3283,2.3486,0.0,0.0,2.2775,2.298,2.3137,2.2742,2.2263,2.3251,2.3142,2.2345,2.1509,2.1198,2.0963,1.9596,1.9446,1.9643,1.9206,0.0,1.8008,1.8008,1.7417,1.6901,1.7117,1.6258,1.5427,1.5777,1.6037,1.643,1.7132,1.9241,2.1246,2.2273,2.2863,2.3029,2.2457,2.1363,1.9944,1.8024,1.8273,1.8209,0.0,1.7285,0.0,1.6627,1.621,1.579,1.5226,1.5226,1.4554,1.3071,1.1033,0.9271,0.7855,0.6795,0.6268,0.6274,0.6274,0.6268,0.6338,0.6403,0.6869,0.7439,0.7605,0.8029,0.8615,0.8097,0.8027,0.8333,0.8426,0.8239,0.8137,0.9509,1.0779,1.195,1.2716,1.4172,1.5832,0.0,0.0,0.0,0.0,0.0,0.0,0.0,0.0,0.0,0.0,0.0,2.2496,2.2598,2.2496,0.0,0.0,0.0,0.0,0.0,0.0,2.2327,2.2327,2.2327,2.2327,2.2327,2.2327,2.2969,2.4377,2.326,2.3388,2.4766,2.361,2.3064,2.2957,2.2518,2.2331,2.2293,2.1862,2.2323,2.3251,2.2143,2.2353,2.3281,0.0,2.2724,2.2813,2.337,2.4027,2.4327,2.3184,2.2519,2.1904,2.0655,2.0169,1.998,1.9856,1.9038,1.8144,1.8008,1.7567,1.7099,1.6956,1.5865,1.4911,1.5147,1.5654,1.6277,1.6768,1.907,2.0948,2.0913,2.1533,2.197,2.156,0.0,2.0498,1.9461,1.9318,1.897,1.8086,1.7148,1.6558,1.6419,1.5579,1.4958,1.4799,1.4657,1.3837,1.2078,1.0959,0.9476,0.7625,0.6718,0.6338,0.6338,0.6338,0.6338,0.6338,0.6541,0.7243,0.8401,0.8739,0.9526,1.0529,0.941,0.9089,0.9309,0.9418,0.8973,0.84,0.9501,1.0779,1.195,1.195,1.3499,1.5534,0.0,0.0,0.0,0.0,0.0,0.0,0.0,0.0,0.0,0.0,2.4323,2.3444,0.0,0.0,0.0,0.0,0.0,0.0,0.0,0.0,0.0,2.2327,2.2327,2.2327,2.2327,2.2327,2.2439,2.2723,2.3089,2.3181,2.303,2.339,2.3381,2.2957,2.2518,2.2331,2.2293,2.1862,2.1814,2.1994,2.1784,2.1814,2.2084,2.2503,0.0,0.0,2.337,2.403,2.4473,2.3746,2.3691,2.3725,2.3007,2.2205,2.1362,2.0647,1.9814,1.8911,1.8212,1.7342,1.6526,1.5752,1.5303,1.5081,1.4896,1.5307,0.0,1.774,1.842,1.9317,2.0948,2.2012,2.2399,2.1948,2.216,2.1638,1.9603,1.9272,1.8961,0.0,1.7148,1.628,1.5508,1.4514,1.3665,1.2879,1.2044,1.1428,1.0947,0.9261,0.7778,0.6563,0.6416,0.6338,0.6338,0.6338,0.6338,0.6338,0.7126,0.7841,0.8401,0.9327,1.0055,1.0529,0.941,0.9013,0.9125,0.9368,0.9468,0.9493,0.9836,1.0779,1.195,1.195,1.2909,1.4364,0.0,0.0,0.0,0.0,0.0,0.0,0.0,2.5029,2.588,2.8147,2.7537,2.6556,2.571,2.4628,2.3816,0.0,0.0,0.0,0.0,0.0,0.0,2.2327,2.2327,2.2377,2.25,2.2377,2.2581,2.3117,0.0,2.2887,2.3012,2.2979,2.2855,2.2604,2.2148,2.1813,2.1604,2.1142,2.1054,2.1216,2.1545,2.2084,2.2742,2.343,0.0,0.0,2.4029,2.4358,2.4582,2.4279,2.4533,2.475,2.3739,2.2949,2.2323,2.1542,2.0333,1.9243,1.8777,1.7677,1.6489,1.607,1.5579,1.5281,1.5459,0.0,0.0,1.8047,1.858,1.9049,1.9765,2.0298,2.0639,2.096,2.0997,2.0621,1.9846,1.9456,1.8977,1.8076,1.7148,1.621,1.5296,1.4314,1.3317,1.2378,1.087,1.0034,0.9938,0.8075,0.6795,0.6338,0.6338,0.6338,0.6338,0.6338,0.6563,0.7103,0.7725,0.8769,1.011,1.0724,1.1555,1.2345,1.1219,1.0737,1.0959,1.1273,1.1125,1.0772,1.1656,1.2425,1.2909,1.2909,1.3788,1.4949,0.0,0.0,0.0,0.0,0.0,0.0,0.0,2.658,2.765,3.0571,3.0704,2.985,2.8113,2.6285,2.4831,0.0,0.0,0.0,0.0,0.0,0.0,0.0,0.0,0.0,2.2695,0.0,0.0,2.388,2.2884,0.0,0.0,0.0,0.0,0.0,2.1794,2.143,2.1086,2.0691,2.0702,0.0,0.0,2.2802,2.3909,0.0,0.0,0.0,0.0,2.4701,2.4612,2.491,2.5236,2.5373,2.4367,2.366,2.317,2.253,2.1169,1.9748,1.9441,1.8267,1.7111,1.6715,1.6228,1.5925,1.6438,1.7022,1.7568,1.8375,1.8843,1.9043,1.8711,1.8852,1.9384,2.0334,2.0353,2.029,2.0617,2.0268,1.9613,1.8414,1.7472,0.0,1.5296,1.4314,1.3317,1.2378,1.0645,0.9367,0.8694,0.7173,0.6338,0.6338,0.6338,0.6338,0.6338,0.6338,0.6795,0.7787,0.8277,0.9657,1.1754,1.218,1.3041,1.3997,1.2845,1.2365,1.2575,1.2921,1.2631,1.2026,1.3305,1.3825,1.3872,1.3872,1.4555,1.5439,0.0,0.0,0.0,0.0,0.0,0.0,0.0,2.819,2.9532,3.3338,3.2605,3.1728,3.1777,2.9228,2.6928,0.0,0.0,0.0,0.0,0.0,0.0,0.0,0.0,0.0,0.0,0.0,0.0,2.388,2.3084,0.0,0.0,0.0,0.0,0.0,0.0,2.1582,2.1524,2.1295,0.0,0.0,0.0,0.0,0.0,0.0,0.0,0.0,0.0,2.5136,2.4761,2.6004,2.6045,2.5645,2.6087,2.5301,2.4125,2.3847,0.0,0.0,1.9748,1.9177,1.869,1.701,1.7166,1.7738,1.7752,0.0,1.8162,1.9015,1.8932,1.8691,1.8652,1.9707,2.0892,2.1705,2.2569,2.294,2.2515,2.2421,2.1606,1.9417,0.0,0.0,1.5367,1.4314,1.3317,1.2378,1.1316,0.9432,0.6718,0.6416,0.6338,0.6338,0.6338,0.6338,0.6338,0.6338,0.6795,0.7787,0.898,1.03,1.1754,1.2926,1.3718,1.3997,1.2845,1.2345,1.2381,1.2738,1.2909,1.3088,1.3333,1.3673,1.3872,1.3872,1.3968,1.4268,0.0,0.0,0.0,0.0,0.0,0.0,2.8576,2.8854,3.0172,3.4272,3.3848,3.3137,3.2957,3.1089,2.889,2.6454,0.0,0.0,0.0,0.0,0.0,0.0,0.0,0.0,0.0,0.0,2.3694,2.419,2.4147,0.0,0.0,0.0,0.0,0.0,0.0,2.2548,2.2271,2.2183,0.0,0.0,0.0,0.0,0.0,0.0,0.0,0.0,0.0,0.0,2.5285,2.5824,2.5824,2.5777,2.684,2.6155,2.4888,2.4353,2.3695,2.2836,2.1296,2.0462,1.9814,1.8556,1.871,1.9072,1.8759,0.0,1.8945,1.9551,1.9121,1.8562,1.8562,1.8904,1.9561,2.1059,2.18,2.2246,2.2294,2.2784,2.2414,2.0292,1.9565,1.8594,1.7005,1.5965,1.4569,1.2398,1.1378,1.0034,0.8237,0.8084,0.8084,0.8084,0.8084,0.8084,0.8084,0.8084,0.8609,0.9593,1.0517,1.1476,1.2657,1.353,1.3975,1.4082,1.3561,1.3379,1.3404,1.3684,1.3964,1.4347,1.4523,1.4803,1.5045,1.5045,1.5045,1.514,0.0,0.0,0.0,0.0,0.0,2.5692,2.8851,2.9286,3.0579,3.4254,3.4418,3.4012,3.3473,3.207,3.0345,2.8213,2.6048,0.0,0.0,0.0,0.0,0.0,0.0,0.0,0.0,0.0,2.4681,2.5445,2.5524,2.5638,0.0,0.0,2.4543,2.3714,0.0,0.0,0.0,0.0,0.0,0.0,0.0,0.0,0.0,0.0,0.0,0.0,0.0,0.0,0.0,0.0,0.0,2.6347,2.73,2.7199,2.6542,2.5715,2.4989,2.4133,2.2862,2.1949,2.1078,1.9944,2.0026,2.0292,2.0144,2.0124,2.0247,2.0696,2.0063,1.9451,1.9451,1.9083,1.9266,2.0877,2.1642,2.2182,2.2617,2.3384,2.3245,2.1422,0.0,2.0087,1.8093,1.6867,1.535,1.3245,1.2458,1.1662,1.0634,1.0634,1.0185,0.9301,0.9301,0.9301,0.9301,0.9301,0.982,1.0795,1.1331,1.2159,1.3227,1.3734,1.4001,1.4082,1.4082,1.4082,1.4095,1.4309,1.4616,1.499,1.519,1.5498,1.5832,1.5832,1.5832,1.5832,0.0,0.0,0.0,0.0,0.0,0.0,2.8498,2.9672,3.1002,3.3312,3.4305,3.4438,3.3515,3.207,3.119,3.1157,2.774,0.0,0.0,0.0,0.0,0.0,0.0,0.0,0.0,0.0,2.5917,2.7862,2.7146,2.6979,2.7361,2.6626,2.5661,2.4489,0.0,0.0,0.0,0.0,0.0,0.0,0.0,0.0,0.0,0.0,0.0,0.0,0.0,0.0,0.0,0.0,0.0,0.0,0.0,2.8434,2.9327,2.8583,2.6947,2.5186,2.4201,2.3462,2.2578,2.1014,2.0949,2.1509,2.1866,2.2047,2.2273,2.2767,2.2093,2.1396,2.1396,2.0927,2.0904,2.1799,2.2796,2.3613,2.4068,2.4541,2.4261,0.0,2.2662,2.1411,1.8228,1.6244,1.5226,1.5155,1.5171,1.4728,1.3738,1.3665,1.2338,0.9377,0.9301,0.9301,0.9301,0.9301,0.982,1.0783,1.1065,1.1895,1.3227,1.3507,1.3814,1.4082,1.4082,1.4082,1.4082,1.4095,1.4442,1.4963,1.4963,1.5324,1.5832,1.5832,1.5832,1.5832,0.0,0.0,0.0,0.0,0.0,0.0,0.0,2.8153,2.9176,3.2061,3.1923,3.1775,3.2238,3.1215,3.0446,3.0446,2.7943,0.0,0.0,0.0,0.0,0.0,0.0,0.0,0.0,2.5424,2.6533,2.7954,2.8238,2.8856,2.9783,2.8705,2.7607,2.6485,2.5906,2.5518,0.0,0.0,0.0,0.0,0.0,0.0,0.0,0.0,0.0,0.0,0.0,0.0,0.0,0.0,0.0,0.0,0.0,0.0,0.0,2.8293,2.8039,2.7089,2.5401,2.5057,2.4761,2.3157,2.3019,2.3212,2.275,2.288,2.31,2.3257,2.2495,2.18,2.18,2.1151,2.1016,2.2408,2.3398,2.4205,2.4683,2.5468,0.0,2.3751,2.2732,2.1539,1.9922,1.814,1.7055,1.7055,1.5913,1.5084,1.4728,1.4744,1.3723,1.1403,1.1329,1.1329,1.1329,1.1329,1.1477,1.1848,1.2144,1.2596,1.3227,1.3507,1.3801,1.4082,1.4082,1.4082,1.4082,1.4082,1.4429,1.4963,1.4963,1.5324,1.5832,1.5832,1.5832,1.5832,0.0,0.0,0.0,0.0,0.0,0.0,0.0,2.6936,2.7815,3.0232,3.003,3.0088,3.1218,3.0609,3.0209,3.048,2.8958,0.0,0.0,0.0,0.0,0.0,0.0,0.0,2.4898,2.5863,2.7234,2.9026,2.9484,3.0243,3.124,3.0494,2.9403,2.7975,2.7152,2.665,0.0,0.0,0.0,0.0,0.0,0.0,2.8388,0.0,0.0,0.0,0.0,0.0,0.0,0.0,0.0,0.0,0.0,0.0,0.0,0.0,2.8449,2.8454,2.6945,2.6576,2.6408,2.5387,2.5154,2.5068,2.4502,2.4518,2.4565,2.4354,2.3651,2.3018,2.2831,2.2104,2.1789,2.2616,2.3712,2.4425,2.435,2.5203,0.0,2.4155,2.2799,2.1761,2.144,1.9857,1.894,1.894,1.7552,1.6609,1.6244,1.5913,1.5013,1.3448,1.3025,1.2659,1.2305,1.2305,1.2305,1.2305,1.2492,1.2799,1.3213,1.34,1.3707,1.4082,1.4082,1.4082,0.0,1.4082,1.4362,1.4803,1.4923,1.5257,1.5671,1.6344,1.648,1.6574,0.0,0.0,0.0,0.0,0.0,0.0,0.0,2.6025,2.6922,2.8062,2.8564,2.9207,3.0249,3.0097,3.0243,3.0987,0.0,0.0,0.0,0.0,0.0,0.0,0.0,0.0,2.5676,2.6387,2.8049,3.063,3.0734,3.1185,3.1948,3.1982,3.1005,2.9134,2.8318,2.7841,2.774,0.0,0.0,0.0,2.9125,2.8902,0.0,0.0,0.0,0.0,0.0,0.0,0.0,0.0,0.0,0.0,0.0,0.0,0.0,0.0,0.0,0.0,0.0,2.7989,2.7508,2.7309,2.7108,2.6993,2.694,2.6698,0.0,2.5728,2.5109,2.4607,2.4155,2.3552,2.3021,2.2791,2.3904,2.4533,2.3604,2.4173,0.0,0.0,2.2799,2.2217,2.2743,2.1527,2.0719,2.0719,1.9879,1.9003,1.8121,1.7298,1.6349,1.5438,1.4458,1.3448,1.2452,1.2439,1.2452,1.2305,1.2452,1.275,1.3252,1.3344,1.375,1.4294,1.4237,1.425,1.4334,1.425,1.4426,1.4797,1.511,1.5409,1.5787,1.7287,1.787,1.7963,0.0,0.0,0.0,0.0,0.0,0.0,0.0,0.0,0.0,0.0,2.7344,2.7449,2.8028,2.822,2.8653,0.0,0.0,0.0,0.0,0.0,0.0,0.0,0.0,0.0,2.6454,2.7165,2.8288,2.9866,3.1046,3.2161,3.3178,3.3143,3.2266,3.0725,2.9591,2.8288,2.7029,2.8213,0.0,0.0,2.9125,2.8902,0.0,0.0,0.0,0.0,2.5615,2.5704,0.0,0.0,0.0,0.0,0.0,0.0,0.0,0.0,2.7574,2.7966,2.832,0.0,2.7967,2.7427,2.7527,2.7612,0.0,2.688,2.6596,2.5996,2.4975,2.428,2.4582,2.3803,2.3454,2.4698,2.5178,2.5344,2.512,2.4578,0.0,2.4004,2.3293,2.3046,2.3616,2.2438,2.1628,2.1628,2.0782,2.0182,1.9966,1.9135,1.8247,1.7328,1.6401,1.5084,1.339,1.4171,1.381,1.2305,1.381,1.4313,1.3986,1.5065,1.5701,1.6046,1.5509,1.5794,1.6437,1.5628,1.5989,1.7085,1.7416,1.7762,1.8108,1.8819,1.9039,1.9131,0.0,0.0,0.0,0.0,0.0,0.0,0.0,0.0,0.0,0.0,0.0,2.626,2.7195,2.7572,0.0,0.0,0.0,0.0,0.0,0.0,0.0,0.0,0.0,2.6184,2.6184,2.7266,2.8455,2.9831,3.0996,3.2242,3.3471,3.3124,3.2327,3.1184,2.9489,2.7947,2.6759,2.7943,2.8653,2.9025,2.9063,0.0,0.0,0.0,0.0,0.0,2.4358,2.4657,0.0,2.587,2.5936,2.6009,0.0,0.0,0.0,0.0,2.7368,2.7815,2.8243,2.8627,2.8902,2.8814,2.8684,2.8493,2.8155,2.7501,2.6658,2.5704,2.4997,2.4413,2.4092,2.3552,2.3527,2.4682,2.4858,2.4958,2.5209,0.0,2.428,2.4029,2.3728,2.3452,2.3251,2.2504,2.2067,2.2067,2.1252,2.0911,2.1164,2.0398,1.9661,1.9138,1.8696,1.7142,1.4386,1.4958,1.4657,1.3665,1.4673,1.5146,1.5138,1.5843,1.6525,1.6957,1.6603,1.6764,1.7253,1.6683,1.6876,1.7598,1.8209,1.8452,1.877,1.9928,2.0314,2.0387,0.0,0.0,0.0,0.0,0.0,0.0,0.0,0.0,0.0,0.0,0.0,0.0,0.0,0.0,0.0,0.0,0.0,0.0,0.0,0.0,0.0,0.0,2.5845,2.5845,2.5947,2.7165,2.8518,2.9939,3.1021,3.2104,3.322,3.2916,3.2104,3.0751,2.8864,2.7437,2.659,2.7504,2.8318,2.8994,2.8856,0.0,0.0,0.0,0.0,0.0,0.0,0.0,0.0,2.4725,2.4998,2.53,2.6341,0.0,0.0,0.0,0.0,0.0,2.821,2.8809,2.9501,3.0135,2.9829,2.932,2.9202,2.811,2.673,2.5539,2.5137,2.4674,2.3628,2.3311,2.3452,2.4029,2.4054,2.4155,2.4632,2.4632,2.4431,2.4054,2.3929,2.3477,2.2523,2.2372,2.2272,2.2196,2.1506,2.1308,2.192,2.1112,2.0692,2.0782,2.0655,1.9093,1.6053,1.5913,1.5649,1.5226,1.5576,1.5931,1.6372,1.664,1.7123,1.7654,1.7641,1.7658,1.7819,1.7658,1.7691,1.7972,1.8668,1.8973,1.9264,2.0943,2.1569,2.1747,0.0,0.0,0.0,0.0,0.0,0.0,0.0,0.0,0.0,0.0,0.0,0.0,0.0,0.0,0.0,0.0,0.0,0.0,0.0,0.0,0.0,2.7537,2.686,2.6826,2.7435,2.7671,2.8247,2.9161,3.1765,3.2848,3.2476,3.4269,3.3051,2.9299,2.8995,2.7681,2.5878,2.7568,2.8596,2.8924,2.8281,0.0,0.0,0.0,0.0,0.0,0.0,0.0,0.0,2.2265,2.2919,2.3795,2.4447,0.0,0.0,0.0,0.0,0.0,2.7945,2.8255,2.8541,2.9373,2.9541,2.9415,2.8758,2.7994,2.7224,2.6432,2.5326,2.4484,2.476,2.4259,2.4054,2.4607,2.4305,2.4029,2.4104,2.3703,2.3552,2.3954,2.3577,2.3201,2.2965,2.2598,2.2121,2.1644,2.1506,2.1674,2.2222,2.1428,2.1158,2.1667,2.0974,2.0311,1.9771,1.9069,1.7503,1.5242,1.7131,1.7726,1.708,1.8639,1.9411,1.9488,1.897,1.9274,2.0001,1.9116,1.9494,2.069,2.1167,2.1568,2.1931,2.2601,2.2862,2.2862,0.0,0.0,0.0,0.0,0.0,0.0,0.0,0.0,0.0,0.0,0.0,0.0,0.0,0.0,0.0,0.0,0.0,0.0,0.0,0.0,2.8552,2.9025,2.7943,2.7469,2.7772,2.8619,2.96,3.0751,3.2916,3.4032,3.4066,3.3491,3.1698,2.896,2.8148,2.7188,2.6251,2.7538,2.8185,2.8315,0.0,0.0,0.0,0.0,0.0,0.0,0.0,0.0,0.0,0.0,2.2483,2.3111,2.3599,0.0,0.0,0.0,0.0,0.0,2.7751,2.7958,2.8174,2.8984,2.8978,2.8697,2.8326,2.7578,2.6803,2.6482,2.5607,2.5025,2.5236,2.4967,2.4721,2.4529,2.4456,2.433,2.4029,2.4029,2.4029,2.4004,2.3778,2.3251,2.2322,2.202,2.1644,2.1091,2.1041,2.1292,2.1845,2.1774,2.1809,2.2138,2.2042,2.1729,2.129,2.091,1.9836,1.816,1.9458,2.0017,1.9848,2.0958,2.1639,2.1797,2.1535,2.1714,2.2113,2.1638,2.1983,2.2949,2.3414,2.3879,2.4261,2.4047,2.4039,2.3973,0.0,0.0,0.0,0.0,0.0,0.0,0.0,0.0,0.0,0.0,0.0,0.0,0.0,0.0,0.0,0.0,0.0,0.0,0.0,2.7671,2.8416,2.977,2.8552,2.8146,2.8856,2.9837,3.1089,3.2544,3.4201,3.5216,3.5554,3.2747,3.048,2.8653,2.7572,2.6859,2.6488,2.7335,2.7708,2.7772,0.0,0.0,0.0,0.0,0.0,0.0,0.0,0.0,0.0,0.0,0.0,0.0,0.0,0.0,0.0,2.5553,2.6012,2.6455,2.7299,2.7317,2.7296,2.8005,2.8017,2.789,2.8062,2.7166,2.6284,2.6331,2.5973,2.5632,2.546,2.5522,2.5324,2.4606,2.4709,2.4596,2.3879,2.4155,2.428,2.3853,2.3803,2.3251,2.182,2.1568,2.1267,2.0769,2.0592,2.0715,2.1267,2.1964,2.2458,2.2585,2.3237,2.3339,2.2713,2.2713,2.2087,2.077,2.1329,2.1756,2.2226,2.2812,2.3239,2.3526,2.3526,2.3593,2.3682,2.3682,2.4041,2.4723,2.5027,2.5475,2.5864,2.5416,2.521,2.5041,0.0,0.0,0.0,0.0,0.0,0.0,0.0,0.0,0.0,0.0,0.0,0.0,0.0,0.0,0.0,0.0,0.0,0.0,0.0,2.7435,2.818,2.9025,2.8281,2.9127,3.1901,3.1393,3.1833,3.3322,3.5554,3.6265,3.5554,3.3288,3.0649,2.7909,2.815,2.7293,2.5776,2.6842,2.7533,2.7739,2.7063,0.0,0.0,0.0,0.0,0.0,0.0,0.0,0.0,0.0,0.0,0.0,0.0,0.0,2.37,2.4764,2.5008,2.5208,2.6455,2.5779,2.4934,2.5676,2.6466,2.7274,2.7963,2.7018,2.6125,2.6329,2.6317,2.611,2.5574,2.5853,2.5895,2.5157,2.503,2.4598,2.3336,2.3226,2.319,2.314,2.314,2.2949,2.2322,2.1794,2.1267,2.0769,2.0162,2.0112,2.0743,2.1925,2.2828,2.3326,2.4583,2.5217,2.5161,2.5161,2.3875,2.1351,2.1756,2.2248,2.2835,2.3257,2.3481,2.3526,2.3526,2.3772,2.4273,2.4273,2.4835,2.5711,2.5756,2.6071,2.6416,2.6378,2.64,2.64,0.0,0.0,0.0,0.0,0.0,0.0,0.0,0.0,0.0,0.0,0.0,0.0,0.0,0.0,0.0,0.0,0.0,0.0,0.0,2.5914,2.6956,2.889,2.8687,2.9499,3.1562,3.2239,3.3525,3.5487,3.6366,3.6129,3.4878,3.2171,3.0074,2.8518,2.7709,2.7199,2.6962,2.6926,2.7233,2.7739,2.6996,2.642,0.0,0.0,0.0,0.0,0.0,0.0,0.0,0.0,2.1292,2.1161,2.1559,2.2189,2.2861,2.3238,2.377,2.4348,2.4846,2.5044,2.5236,2.5541,2.6051,2.652,2.6552,2.6261,2.6406,2.7824,2.6867,2.5849,2.6149,2.6318,2.6299,2.6022,2.5574,2.4922,2.3982,2.3839,2.3662,2.3125,2.3065,2.2774,2.1895,2.2347,2.2315,2.1433,2.1927,2.2293,2.2535,2.331,2.3905,2.4069,2.497,2.5412,2.5412,2.5412,2.5283,2.5019,2.462,2.4763,2.5403,2.5359,2.5346,2.5346,2.5346,2.566,2.6142,2.6142,2.6769,2.7758,2.812,2.8361,2.8474,2.7787,2.7522,2.736,0.0,0.0,0.0,0.0,0.0,0.0,0.0,0.0,0.0,0.0,0.0,0.0,0.0,0.0,0.0,0.0,0.0,0.0,2.4047,2.4677,2.5911,2.8,2.8556,2.9515,3.098,3.2598,3.4294,3.6062,3.6299,3.552,3.3761,3.1495,3.004,2.9262,2.774,2.7469,2.8112,2.686,2.6657,2.7063,2.6556,2.5778,0.0,0.0,0.0,0.0,0.0,0.0,0.0,0.0,2.1601,2.1217,2.1295,2.1662,2.2071,2.2071,2.2837,2.3686,2.3819,2.4411,2.4997,2.5357,2.567,2.5883,2.5945,2.6141,2.6657,2.8077,2.6759,2.5703,2.6667,2.6683,2.6526,2.6467,2.6068,2.5522,2.4738,2.4624,2.4452,2.3872,2.3813,2.3425,2.2522,2.3199,2.3339,2.2425,2.321,2.3715,2.3715,2.4427,2.4815,2.4815,2.5675,2.6094,2.6094,2.6094,2.6718,2.7968,2.7061,2.6985,2.7541,2.7354,2.7297,2.7297,2.7297,2.7712,2.8412,2.8062,2.8464,2.9252,2.9628,2.9804,2.9702,2.8949,2.8609,2.853,0.0,0.0,0.0,0.0,0.0,0.0,0.0,0.0,2.8533,2.8918,2.8635,0.0,0.0,0.0,0.0,0.0,0.0,0.0,2.2115,2.3915,2.5307,2.6068,2.7572,2.9073,3.0525,3.2477,3.383,3.4472,3.5216,3.4438,3.2239,3.1529,3.0784,3.0006,2.8448,2.8247,2.8822,2.6556,2.5609,2.5609,2.5609,2.4729,2.3477,0.0,0.0,0.0,0.0,0.0,0.0,0.0,2.1891,2.1054,2.1245,2.1321,2.1321,2.1455,2.2244,2.3208,2.3753,2.3675,2.3697,2.4815,2.5108,2.5429,2.656,2.6792,2.6746,2.655,2.5934,2.5834,2.7195,2.6974,2.6584,2.6567,2.6496,2.6283,2.5494,2.5384,2.5412,2.5412,2.5412,2.5163,2.4474,2.4445,2.4277,2.3644,2.3691,2.3715,2.3715,2.4918,2.5647,2.5647,2.6899,2.761,2.761,2.761,2.8248,2.9594,2.8735,2.8562,2.9002,2.9002,2.9002,2.9002,2.9002,2.9693,3.073,2.98,2.9611,2.9856,2.9856,2.9779,2.9779,2.9779,2.9779,2.9804,0.0,0.0,0.0,0.0,0.0,0.0,0.0,0.0,2.7414,2.7087,2.6944,0.0,0.0,0.0,0.0,0.0,0.0,0.0,2.2083,2.2362,2.3372,2.524,2.6248,2.7267,2.8241,3.0127,3.2127,3.4232,3.41,3.2916,3.0751,3.0006,2.9228,2.8484,2.7975,2.7463,2.6878,2.5679,2.5179,2.5179,2.5179,2.4475,2.3477,0.0,0.0,0.0,0.0,0.0,0.0,0.0,0.0,0.0,2.1502,2.1697,2.175,2.1305,2.1923,2.2736,2.2371,2.3209,2.4309,2.4953,2.6107,2.7252,2.8033,2.8344,2.8217,2.7469,2.7918,2.8199,2.7455,2.7595,2.795,2.8467,2.8192,2.765,2.6902,2.6438,2.596,2.5467,2.5412,2.5163,2.45,2.5342,2.5688,2.514,2.5945,2.6432,2.6432,2.679,2.7009,2.7009,2.7419,2.761,2.761,2.761,2.8248,2.9594,2.9347,2.9462,2.9875,2.9254,2.9002,2.9002,2.9002,2.9693,3.0853,3.1431,3.1721,3.1756,3.1756,3.1415,3.082,3.1536,3.0921,2.9856,0.0,0.0,0.0,0.0,0.0,0.0,2.726,2.6932,2.6339,2.5825,2.5626,2.5274,0.0,0.0,0.0,2.2698,2.1504,2.0889,2.1367,2.1475,2.224,2.3894,2.5174,2.6585,2.817,2.9905,3.1122,3.1673,3.1792,3.0938,2.9194,2.9059,2.889,2.8685,2.8468,2.7848,2.6862,2.5291,2.4501,2.4239,2.4239,2.3786,2.3173,0.0,0.0,0.0,0.0,0.0,0.0,0.0,0.0,0.0,2.1642,2.1724,2.1762,2.0924,2.1666,2.2567,2.1952,2.2917,2.4237,2.5087,2.5959,2.7076,2.8713,2.904,2.8801,2.8241,2.8319,2.8196,2.7492,2.7445,2.77,2.8403,2.8474,2.8264,2.7796,2.7735,2.7419,2.6701,2.6828,2.6564,2.5472,2.6506,2.6959,2.6138,2.7,2.761,2.761,2.761,2.761,2.761,2.761,2.761,2.761,2.761,2.8248,2.9594,2.9594,3.003,3.0777,3.0208,3.0025,3.0025,3.054,3.0977,3.1443,3.2651,3.2947,3.2593,3.2593,3.2236,3.1829,3.2379,3.1901,3.0996,0.0,0.0,0.0,0.0,0.0,0.0,2.5958,2.5683,2.5315,2.4969,2.4658,2.4418,0.0,0.0,0.0,2.2599,2.118,2.0299,2.0299,2.0949,2.1667,2.2381,2.4512,2.6918,2.9521,3.0916,3.0406,2.8037,2.8949,2.8733,2.7502,2.845,2.9194,2.9766,2.9231,2.8603,2.775,2.5019,2.3442,2.284,2.2904,2.2762,2.2539,2.3293,0.0,0.0,0.0,0.0,0.0,0.0,0.0,0.0,2.1794,2.1708,2.162,2.0731,2.1569,2.2666,2.2248,2.2791,2.3773,2.5129,2.5218,2.5743,2.8726,2.9078,2.8817,2.8911,2.7748,2.6891,2.7469,2.6949,2.6615,2.724,2.7881,2.8329,2.8361,2.8894,2.9116,2.8654,2.9042,2.8744,2.7013,2.7902,2.8121,2.6965,2.7429,2.776,2.776,2.776,2.776,2.776,2.771,2.771,2.776,2.766,2.8299,2.9672,2.9648,3.0283,3.1482,3.1482,3.1482,3.1541,3.2916,3.3022,3.232,3.359,3.3602,3.2876,3.2876,3.2806,3.2735,3.2806,3.2735,3.2593,0.0,0.0,0.0,0.0,0.0,0.0,2.5515,2.5218,2.4665,2.3876,2.3933,2.3693,2.2863,2.2215,0.0,2.1842,2.0893,2.0299,2.0299,2.0172,2.0777,2.235,2.5433,2.7844,2.9333,2.9169,2.8802,2.8298,2.8518,2.7461,2.5236,2.7165,2.7841,2.7435,2.7578,2.6709,2.5037,2.2952,2.1628,2.0933,2.1596,2.165,2.144,2.2506,2.2432,0.0,0.0,0.0,0.0,0.0,0.0,0.0,2.218,2.255,2.2858,2.2111,2.2504,2.3148,2.2671,2.3179,2.4015,2.4996,2.6154,2.7156,2.7888,2.8464,2.9055,2.9621,2.8968,2.83,2.8239,2.8049,2.8081,2.8565,2.8345,2.8363,2.8919,2.8737,2.8678,2.9162,2.9316,2.9252,2.8821,2.9039,2.9071,2.8821,2.8902,2.8996,2.8996,2.8996,2.8996,2.8996,2.8559,2.8559,2.8996,2.8076,2.8525,3.0299,2.9833,3.0283,3.1482,3.1482,3.1482,3.1541,3.2916,3.3362,3.3327,3.4664,3.5067,3.4839,3.4839,3.4409,3.3808,3.4543,3.3905,3.2735,0.0,0.0,0.0,0.0,0.0,0.0,0.0,0.0,2.4665,2.3234,2.3117,2.2897,2.2361,2.1705,0.0,0.0,2.0632,2.0089,2.0296,1.9945,2.0515,2.2319,2.5329,2.7086,2.7399,2.7789,2.7504,2.6483,2.6677,2.6128,2.4994,2.6174,2.6602,2.6411,2.648,2.5288,2.3243,2.2071,2.0965,2.0076,2.0813,2.0945,2.073,2.131,2.1373,2.1147,2.1411,0.0,0.0,0.0,0.0,0.0,0.0,0.0,2.2704,2.173,2.2226,2.2904,2.2219,2.2876,2.3968,2.4754,2.6009,2.705,2.7171,2.7873,2.8568,2.8789,2.8829,2.8761,2.8631,2.8376,2.8219,2.8447,2.8493,2.88,2.9553,2.9709,2.9916,3.0382,3.0549,3.0377,2.9751,2.9772,2.9717,2.9406,2.9406,2.9406,2.9406,2.9406,2.9406,2.9406,2.9088,2.895,2.895,2.8676,2.9032,3.0068,3.0027,3.0552,3.1482,3.1482,3.1719,3.2048,3.3066,3.3664,3.4053,3.507,3.5519,3.5519,3.5519,3.5198,3.4773,3.5294,3.4839,3.4041,0.0,0.0,0.0,0.0,0.0,0.0,0.0,0.0,0.0,2.2842,2.2473,2.2349,2.2327,2.1584,2.1213,0.0,0.0,0.0,2.0193,1.9995,2.06,2.22,2.4499,2.5631,2.538,2.6368,2.6161,2.4584,2.4369,2.4644,2.5273,2.5428,2.5645,2.5868,2.5447,2.4144,2.2247,2.1418,2.0459,1.9497,1.9959,2.0056,1.9857,1.9924,2.0067,2.0246,2.036,2.1083,2.2006,2.2096,0.0,0.0,0.0,0.0,2.2074,2.0927,2.1508,2.2304,2.1487,2.242,2.3817,2.4561,2.5493,2.6277,2.6448,2.7206,2.7807,2.7489,2.8077,2.8593,2.8647,2.8225,2.786,2.7939,2.8422,2.9071,2.988,3.0627,3.1205,3.1533,3.1811,3.1591,3.0537,3.0508,3.0327,2.9859,2.9761,2.9717,2.9717,2.9717,2.9717,2.9717,2.9629,2.9361,2.895,2.9452,2.9774,2.994,3.0423,3.0971,3.1482,3.1601,3.1988,3.2557,3.3215,3.3873,3.4532,3.522,3.5519,3.5519,3.5519,3.5519,3.5519,3.5519,3.5519,3.5519,0.0,0.0,0.0,0.0,0.0,0.0,0.0,0.0,0.0,0.0,2.2527,2.2546,2.2321,2.1823,2.1399,2.1118,2.0565,2.0089,1.9803,0.0,0.0,2.1753,2.3173,2.4354,2.5208,2.4273,2.433,2.5344,2.3013,2.2732,2.4381,2.5158,2.5365,2.5098,2.4007,2.3209,2.2473,1.9814,1.856,1.8375,1.8205,1.8074,1.8115,1.85,1.8656,1.8775,1.9437,2.0147,2.0893,2.1231,2.1752,0.0,0.0,0.0,2.213,2.1326,2.1361,2.1566,2.1206,2.2406,2.3983,2.4815,2.5273,2.5531,2.5566,2.6289,2.6925,2.6836,2.7305,2.7809,2.7997,2.7757,2.7694,2.8088,2.8093,2.8322,2.9036,2.9849,3.0592,3.1238,3.1976,3.2332,3.2195,3.1809,3.1551,3.1514,3.1162,3.0958,3.0958,3.0958,3.0958,3.0958,3.0435,3.0393,3.0838,3.053,3.064,3.1177,3.1317,3.1392,3.1511,3.2108,3.2437,3.2557,3.3215,3.3873,3.4532,3.522,3.5519,3.5519,3.5519,3.5519,3.5519,3.5519,3.5519,3.5519,0.0,0.0,0.0,0.0,0.0,0.0,0.0,0.0,0.0,0.0,0.0,2.2426,2.2293,2.1882,2.1521,2.1337,2.0699,2.0124,1.9726,2.0318,2.0857,2.1126,2.2031,2.2701,2.3006,2.2442,2.2491,2.3193,2.1974,2.2116,2.3547,2.3946,2.4167,2.424,2.2977,2.1952,2.1061,1.8982,1.7707,1.7111,1.6877,1.694,1.7086,1.6605,1.7238,1.8344,1.8119,1.8897,2.0042,2.0396,2.0737,2.1015,2.1015,0.0,0.0,0.0,2.0532,2.1361,2.2297,2.3266,2.4171,2.5087,2.535,2.5427,2.5466,2.5789,2.6126,2.6103,2.6296,2.6907,2.8227,2.8197,2.8237,2.8936,2.8956,2.9154,2.9807,3.0221,3.0654,3.1301,3.1864,3.2215,3.2215,3.2186,3.2092,3.1808,3.1623,3.1466,3.123,3.119,3.119,3.119,3.0918,3.0797,3.0716,3.1265,3.1916,3.262,3.2688,3.2461,3.2135,3.2776,3.3091,3.3095,3.3754,3.4412,3.507,3.537,3.5519,3.5519,3.5519,3.5519,3.5519,3.5519,3.5519,3.5549,0.0,0.0,0.0,0.0,0.0,0.0,0.0,0.0,0.0,0.0,0.0,2.2327,2.2327,0.0,0.0,0.0,2.0991,2.0338,1.9697,1.9972,2.0198,2.0198,2.0827,2.1107,2.0891,2.0639,2.0722,2.1114,2.0717,2.1348,2.2886,2.2758,2.3086,2.378,2.2547,2.1288,2.0006,1.8585,1.739,1.6538,1.6351,1.6384,1.6488,1.6024,1.687,1.813,1.7311,1.7883,1.9114,1.937,1.9562,1.9731,1.9934,2.0002,0.0,0.0,0.0,2.0807,2.255,2.3403,2.4005,2.491,2.5264,2.539,2.5466,2.5514,2.5589,2.5583,2.5585,2.6241,2.8335,2.8452,2.8525,2.959,2.9729,2.985,3.0335,3.0557,3.0809,3.1242,3.1675,3.201,3.2229,3.2337,3.2287,3.2196,3.1915,3.166,3.1389,3.1269,3.119,3.119,3.119,3.1059,3.0825,3.2067,3.3059,3.382,3.37,3.3435,3.3177,3.3779,3.4125,3.4333,3.442,3.4861,3.5519,3.5519,3.5519,3.5519,3.5519,3.5519,3.5519,3.5519,3.5519,3.5609,0.0,0.0,0.0,0.0,0.0,0.0,0.0,0.0,0.0,0.0,0.0,2.2327,2.2327,2.2265,2.2061,2.1642,2.1552,2.0922,1.9527,1.9031,1.8822,1.8822,1.945,0.0,1.9756,1.8833,1.9021,2.0355,1.8961,1.977,2.26,2.2081,2.2685,2.4134,2.3059,2.174,2.028,1.8529,1.7591,1.7224,1.6876,1.6517,1.6317,1.8095,1.8342,1.7695,1.7384,1.7539,1.7904,1.79,1.8369,1.908,1.9765,2.0002,1.9866,0.0,0.0,0.0,2.0868,2.2017,2.3062,2.3959,2.4755,2.5303,2.539,2.5444,2.5523,2.5597,2.5601,2.6144,2.7923,2.7907,2.8159,2.9746,2.9829,2.9715,2.9735,3.0413,3.0885,3.0904,3.1474,3.2121,3.2878,3.2374,3.2313,3.3069,3.2298,3.1771,3.1771,3.1428,3.119,3.119,3.119,3.1529,3.2205,3.3051,3.3787,3.4544,3.3871,3.395,3.4622,3.5272,3.5975,3.6557,3.5156,3.4861,3.5519,3.5519,3.5519,3.5519,3.5519,3.5519,3.5519,3.5519,3.5519,3.5609,0.0,0.0,0.0,0.0,0.0,0.0,0.0,0.0,0.0,0.0,0.0,0.0,0.0,2.1887,2.1528,2.1357,2.0638,1.9725,1.8687,1.8467,1.8488,1.8672,1.8942,1.9241,1.966,1.8707,1.8399,1.8816,1.7839,1.8385,2.0336,2.027,2.0709,2.1607,2.137,2.0879,2.0103,1.74,1.5957,1.5469,1.5833,1.6207,1.6628,1.7128,1.7938,1.8653,1.7647,0.0,1.7518,1.7726,1.7831,1.7919,1.8185,1.8406,1.8608,1.8676,1.8787,1.9198,2.0754,2.1512,2.2296,2.3829,2.436,2.4706,2.539,2.5529,2.5529,2.5639,2.5658,2.617,2.7888,2.8063,2.8445,3.0113,3.0291,3.0161,3.0046,3.0198,3.0246,3.0147,3.0655,3.1347,3.2166,3.2316,3.2592,3.316,3.289,3.2433,3.1808,3.166,3.147,3.119,3.119,3.1765,3.2983,3.3748,3.4533,3.527,3.5005,3.5036,3.5361,3.6078,3.6497,3.679,3.6636,3.6776,3.6966,3.6966,3.6966,3.6935,3.6415,3.6228,3.6165,3.5653,3.5759,3.6237,0.0,0.0,0.0,0.0,0.0,0.0,0.0,0.0,2.3305,2.3212,0.0,0.0,0.0,0.0,2.1448,2.1237,2.0117,1.9093,1.8327,1.8033,1.8007,1.821,1.853,1.8912,1.9331,1.8243,1.7818,1.8051,1.6942,1.7213,1.8771,1.8875,1.9282,1.988,1.9125,1.9067,1.9377,1.7084,1.5603,1.4885,1.5886,1.6387,1.6708,1.792,1.8725,1.9092,0.0,0.0,0.0,1.7662,1.7694,1.7601,1.7338,1.7153,1.7224,1.7995,1.8342,1.8765,2.0351,2.1051,2.1761,2.3433,2.3763,2.4045,2.5293,2.5313,2.5292,2.6004,2.6136,2.6641,2.8359,2.8614,2.9047,3.0395,3.0569,3.05,3.0314,3.0216,3.0095,2.9962,3.0467,3.1109,3.1832,3.2423,3.2915,3.3364,3.3291,3.2952,3.2298,3.2127,3.1946,3.1803,3.1879,3.2544,3.3761,3.4506,3.5115,3.5622,3.5893,3.6135,3.6455,3.7136,3.7628,3.7948,3.8384,3.8278,3.7822,3.7822,3.7822,3.7764,3.7203,3.6843,3.6538,3.607,3.614,3.6567,0.0,0.0,0.0,0.0,0.0,0.0,2.3653,2.3732,2.3566,2.3236,0.0,0.0,0.0,0.0,0.0,2.1204,2.0137,1.9161,1.8442,1.7686,1.7293,1.7324,1.815,1.8672,1.8702,1.7384,1.7181,1.8161,1.6292,1.6277,1.8038,1.8008,1.8463,1.9087,1.6593,1.6451,1.8003,1.7595,1.6729,1.5736,1.7139,1.7065,1.6633,2.0646,2.0808,0.0,1.9316,1.8663,0.0,1.7638,1.7941,1.8156,1.7404,1.6476,1.5863,1.7099,1.7589,1.8006,0.0,0.0,0.0,2.2608,2.285,2.3334,2.5078,2.4851,2.478,2.6633,2.6992,2.75,2.9258,2.9609,2.9838,3.0497,3.0592,3.0567,3.0524,3.0506,3.0467,3.0417,3.0929,3.1521,3.2053,3.2639,3.3202,3.3787,3.3465,3.3196,3.3196,3.2727,3.2651,3.3023,3.327,3.3804,3.4515,3.525,3.5622,3.5622,3.64,3.7178,3.7922,3.8667,3.9377,4.0087,4.0087,3.9242,3.7879,3.7879,3.7879,3.7879,3.7822,3.7322,3.6661,3.6661,3.6593,3.6663,0.0,0.0,0.0,0.0,0.0,2.3374,2.3976,2.3858,2.3566,0.0,0.0,0.0,2.2321,2.182,2.0974,1.9655,1.9243,1.8659,1.7683,1.7191,1.7047,1.7293,1.7273,1.7712,1.8672,1.7384,1.694,1.7393,1.5759,1.5436,1.637,1.6212,1.6254,1.6371,1.5877,1.5094,1.4127,1.3667,0.0,1.5411,1.5067,1.6329,0.0,0.0,0.0,0.0,0.0,1.9562,1.8843,0.0,1.8038,1.7417,1.649,1.6128,1.6153,1.6747,1.722,1.7818,1.9066,0.0,0.0,0.0,0.0,0.0,2.4276,2.4014,2.4029,2.6481,2.6484,2.6797,2.9141,2.9609,2.9882,3.0696,3.0733,3.0632,3.0574,3.052,3.0467,3.0417,3.0929,3.1584,3.2302,3.2763,3.3297,3.4043,3.3823,3.3522,3.3232,3.2727,3.2822,3.3459,3.3786,3.4272,3.507,3.5436,3.5622,3.5622,3.64,3.7178,3.7922,3.8667,3.9377,4.0087,4.0087,3.985,3.9454,3.9454,3.9454,3.9401,3.8799,3.8469,3.8213,3.7674,3.8081,3.8905,0.0,0.0,2.3443,2.3517,2.3612,2.3981,2.4881,2.4647,2.4302,0.0,0.0,0.0,2.25,2.2269,2.1346,1.9519,1.935,1.8839,1.7576,1.6913,1.6696,1.7082,1.669,1.7029,1.8283,1.7026,1.6638,1.7364,1.54,1.4775,1.542,1.5077,1.4764,1.4476,1.4222,1.3449,1.2323,1.1311,0.0,0.0,1.5259,0.0,0.0,1.9544,2.0344,0.0,0.0,0.0,1.9269,1.8902,1.7948,1.6787,1.6243,1.5819,1.556,1.557,1.6306,1.7345,1.8453,1.9183,1.9887,2.0985,0.0,0.0,2.3681,2.3867,2.4313,2.6952,2.7422,2.7891,2.9805,3.0156,3.0312,3.082,3.082,3.074,3.0671,3.0591,3.0506,3.0467,3.1341,3.2125,3.2476,3.3337,3.3982,3.4186,3.4068,3.385,3.3465,3.3368,3.3648,3.4434,3.4727,3.5273,3.6081,3.6,3.6112,3.642,3.7012,3.7652,3.8396,3.9106,3.9681,4.0087,4.0087,4.0087,4.0087,4.0087,4.0087,4.0054,3.961,3.9209,3.8854,3.8414,3.8979,3.9841,0.0,0.0,2.3477,2.3962,2.4241,2.4788,2.5995,2.5731,2.5319,0.0,2.4302,2.3517,2.2911,2.3123,2.2457,2.0331,2.0035,1.936,1.7896,1.6797,1.631,1.6593,1.6222,1.6481,1.7507,1.6398,1.6398,1.7689,1.5193,1.4397,1.5148,1.4496,1.3811,1.3115,1.2279,1.1879,1.1746,1.0367,1.0542,1.206,1.6302,1.7239,0.0,0.0,2.1241,1.9893,2.0698,2.0288,1.9359,1.8987,1.7847,0.0,1.6268,1.5553,1.4664,1.4087,1.5172,1.6768,1.772,1.8535,1.939,2.0577,2.0505,0.0,2.3072,2.384,2.4763,2.7265,2.8359,2.918,3.0156,3.0391,3.043,3.0351,3.0586,3.0742,3.0703,3.0658,3.0574,3.0506,3.1929,3.2826,3.2562,3.4094,3.4851,3.4292,3.4288,3.4154,3.3944,3.4375,3.4925,3.572,3.5934,3.6469,3.7285,3.6746,3.6839,3.7482,3.7809,3.8309,3.9005,3.9749,4.0087,4.0087,4.0087,4.0087,4.0087,4.0087,4.0087,4.0087,4.0087,3.9662,3.9049,3.9115,3.956,4.0204,2.32,2.2962,2.3172,2.4161,2.4392,2.4861,2.6279,2.5894,2.5502,2.5837,2.4933,2.412,2.3772,2.3223,2.2314,2.1068,2.0399,1.936,1.7896,1.6797,1.5977,1.5452,1.5404,1.5703,1.6388,1.6005,1.6335,1.7362,1.5436,1.4819,1.5492,1.445,1.3364,1.2333,1.213,1.1361,1.0249,1.1178,0.0,1.3019,1.3859,0.0,1.8431,1.9598,2.088,2.1968,2.1269,2.0863,2.0443,1.9236,1.8587,1.7904,0.0,1.5351,1.5713,1.3941,1.4784,1.641,1.7121,1.7855,1.8644,1.9375,2.0029,0.0,0.0,2.1953,2.2583,0.0,2.4727,2.4844,2.6406,2.7305,2.7539,2.6836,2.8476,3.0039,3.0625,3.0697,3.0628,3.0524,3.198,3.2929,3.2839,3.419,3.4963,3.4614,3.4748,3.4816,3.4798,3.5512,3.6259,3.7064,3.6765,3.6964,3.7755,3.7285,3.7211,3.7517,3.8156,3.8665,3.9005,3.9749,4.0087,4.0087,4.0087,4.0087,4.0087,4.0087,4.0087,4.0087,4.0087,4.0003,3.9918,4.0523,4.1191,4.1832,2.3236,2.2923,2.3171,2.4746,2.4974,2.5625,2.7515,2.7126,2.668,2.6913,2.5924,2.5015,2.4513,2.389,2.2762,2.1009,2.0591,1.9579,1.7527,1.6571,1.5853,1.5267,1.482,1.5072,1.6074,1.5716,1.6108,1.7324,1.5505,1.4723,1.4982,1.3828,1.3329,1.3393,1.2096,1.1586,1.1656,1.1174,1.1224,1.188,1.4928,0.0,1.9632,2.0845,2.1764,2.2262,2.1336,2.0534,1.9879,1.942,1.8644,0.0,1.5854,1.5685,1.5691,0.0,1.4083,1.55,1.5562,1.6305,1.7332,1.8553,0.0,0.0,0.0,0.0,2.2407,2.4386,2.4542,2.4756,2.6054,2.6289,2.6328,2.6328,2.7812,2.9062,2.9453,3.0185,3.0637,3.0543,3.1984,3.2942,3.2891,3.4347,3.5141,3.4733,3.4872,3.499,3.499,3.6193,3.7074,3.7477,3.763,3.7899,3.83,3.8186,3.8396,3.8832,3.9399,3.9738,3.9966,4.0309,4.0368,4.0087,4.0087,4.0087,4.0087,4.0087,4.0087,4.0087,4.0087,4.0087,4.0155,4.0933,4.1677,4.2334,2.3093,2.2898,2.3241,2.5055,2.5354,2.6079,2.821,2.786,2.7346,2.7346,2.6504,2.5656,2.5027,2.4526,2.3389,2.1266,2.1149,2.0165,1.7739,1.6762,1.6112,1.5761,1.4674,1.4669,1.6022,1.5402,1.5645,1.6787,1.5232,1.4427,1.4247,1.3185,1.3208,1.3997,1.2362,1.2141,1.2856,0.0,0.0,1.1782,0.0,1.902,1.9125,2.1646,2.2247,2.1702,2.1354,2.0335,1.9213,1.9546,1.8606,1.7161,1.6354,1.6111,0.0,0.0,0.0,0.0,0.0,1.5005,1.613,0.0,0.0,1.8768,0.0,0.0,0.0,0.0,0.0,0.0,0.0,2.5232,2.5078,2.5664,2.691,0.0,0.0,2.9021,0.0,3.0114,3.1795,3.2852,3.2699,3.4043,3.4894,3.4774,3.4822,3.4963,3.5322,3.6846,3.7734,3.7734,3.8358,3.8689,3.8689,3.9064,3.9588,4.0202,4.0613,4.0905,4.107,4.107,4.078,4.0254,4.0254,4.0204,4.0087,4.0087,4.0087,4.0087,4.0087,4.0087,4.0189,4.1068,4.1779,4.2422,2.2695,2.2721,2.3101,2.4332,2.4523,2.5064,2.6637,2.6172,2.5678,2.5678,2.5564,2.5397,2.5193,2.4478,2.3773,2.3235,2.2607,2.1509,1.9759,1.8199,1.7276,1.7082,1.5222,1.4693,1.5807,1.5082,1.4773,1.5002,1.4379,1.3978,1.3873,1.3074,1.2261,1.152,1.3483,1.285,1.0527,0.0,1.5148,0.0,1.8008,1.6854,0.0,1.8915,2.0499,2.0559,2.1592,2.1178,2.0058,0.0,1.8797,1.7702,0.0,1.6371,1.6691,1.3882,0.0,0.0,0.0,0.0,0.0,0.0,1.7603,1.8434,0.0,0.0,2.0439,2.0331,0.0,0.0,0.0,0.0,0.0,2.1445,2.3918,0.0,2.4876,2.6805,2.8299,2.8376,3.1095,3.2673,3.1929,3.246,3.3446,3.4937,3.4539,3.4872,3.6408,3.7837,3.8579,3.8579,3.8652,3.8689,3.8689,3.9465,3.9935,4.0239,4.0959,4.1439,4.1725,4.1725,4.134,4.0827,4.0827,4.0528,4.0087,4.0087,4.0087,4.0087,4.0087,4.0087,4.0257,4.1644,4.2219,4.2489,2.2401,2.2522,2.2607,2.3342,2.3779,2.4428,2.5514,2.5905,2.6098,2.6098,2.5778,2.5542,2.5504,2.4889,2.4111,2.3234,2.2997,2.1933,1.9559,1.8804,1.7979,1.6924,1.5417,1.4941,1.5624,1.4584,1.4325,1.493,1.4131,1.3552,1.3103,1.2358,1.2205,1.2595,1.3626,1.4206,1.4431,0.0,1.4699,0.0,0.0,0.0,0.0,2.0352,2.2245,2.1811,2.2013,2.1632,2.0927,2.0469,1.9441,1.8366,0.0,0.0,0.0,1.5271,0.0,0.0,0.0,0.0,0.0,0.0,0.0,0.0,1.7895,0.0,1.877,0.0,0.0,0.0,0.0,0.0,0.0,0.0,2.2907,0.0,0.0,0.0,2.6882,0.0,0.0,0.0,3.2275,3.2445,3.3201,3.4971,3.4202,3.4517,3.6596,3.7664,3.8383,3.8689,3.8689,3.8909,3.9386,4.0194,4.0866,4.1429,4.223,4.2521,4.2302,4.2302,4.1979,4.1385,4.1385,4.1105,4.0577,4.0577,4.0368,4.0087,4.0087,4.0087,4.0257,4.1745,4.2286,4.2523,2.1291,2.1448,2.1427,2.1936,2.2461,2.3133,2.418,2.51,2.5775,2.6009,2.5708,2.5459,2.5527,2.5137,2.4482,2.3516,2.3614,2.2678,2.033,1.9682,1.9064,1.8359,1.6364,1.5627,1.6314,1.478,1.4179,1.4589,1.3884,1.3223,1.2599,1.1854,1.202,1.3038,1.3682,1.4966,1.6619,0.0,1.5587,1.6074,1.6094,1.6535,1.7584,2.1819,2.3363,2.316,2.2783,2.2221,2.1599,2.1166,2.0036,1.8989,1.9856,1.8623,1.697,0.0,0.0,0.0,1.547,1.5991,1.6589,1.6527,1.7079,1.7577,1.7416,0.0,0.0,0.0,0.0,0.0,0.0,0.0,2.1059,2.1698,0.0,2.3047,0.0,0.0,0.0,0.0,0.0,0.0,0.0,3.1607,3.2134,3.4327,3.339,3.3936,3.6789,3.7529,3.8173,3.8796,3.875,3.9093,3.99,4.0708,4.1515,4.2323,4.313,4.3286,4.292,4.292,4.258,4.2021,4.2021,4.1725,4.1115,4.1115,4.0827,4.0319,4.0319,4.034,4.0527,4.1813,4.2422,4.2794,1.8933,1.9115,1.9306,1.9959,2.0118,2.0696,2.2422,2.3087,2.3702,2.456,2.476,2.4911,2.5094,2.5082,2.5004,2.4752,2.4752,2.4272,2.3161,2.1241,2.095,2.2736,1.858,1.6938,1.836,1.6079,1.4382,1.3379,1.3379,1.3167,1.2679,1.1879,1.1404,1.1293,1.3849,1.4627,1.4228,1.7542,1.9856,2.1367,2.1422,2.2887,2.4745,0.0,2.2412,2.395,2.3931,2.314,2.1961,2.1332,2.0307,1.9403,1.9567,1.9589,1.953,1.9212,1.9466,1.9429,1.7618,1.7154,1.6823,1.5431,1.5576,1.5941,1.5487,1.6987,1.8415,0.0,0.0,0.0,2.1424,2.1655,2.1775,2.1814,2.2485,0.0,0.0,0.0,0.0,0.0,0.0,0.0,0.0,2.8994,2.9417,0.0,3.1904,3.3058,3.7261,3.7737,3.8271,3.908,3.8862,3.9093,3.99,4.0708,4.1515,4.2323,4.313,4.3497,4.3497,4.3497,4.3178,4.2655,4.2655,4.2342,4.1768,4.1768,4.142,4.0874,4.0874,4.0974,4.1271,4.2016,4.276,4.3504,1.6838,1.6398,1.6428,1.7923,1.8469,1.9543,2.2216,2.2584,2.3018,2.436,2.4341,2.4423,2.4976,2.5196,2.5168,2.4832,2.461,2.4062,2.3123,2.1735,2.1298,2.2164,1.9061,1.7796,1.8855,1.6589,1.5072,1.4488,1.4074,1.3481,1.2679,1.1879,1.1305,1.102,1.3781,1.5541,0.0,0.0,0.0,0.0,0.0,2.2945,2.46,2.4023,2.4155,2.4595,2.4154,2.3717,2.3263,2.2693,2.1584,2.0775,2.2213,2.1406,2.0138,2.1075,2.0852,2.0203,1.9672,1.9854,1.9767,1.8158,1.7724,1.7439,1.605,1.6337,1.7096,0.0,0.0,0.0,0.0,2.1655,2.1966,2.2514,2.2794,2.2652,0.0,0.0,0.0,0.0,0.0,0.0,0.0,0.0,0.0,0.0,3.2557,0.0,3.7317,3.7601,3.8079,3.9069,3.9008,3.9512,4.0671,4.0965,4.1772,4.3094,4.3351,4.3497,4.3497,4.3497,4.3391,4.3214,4.3214,4.2921,4.2382,4.2382,4.2021,4.1499,4.165,4.2058,4.2533,4.2343,4.276,4.3538,1.58,1.4961,1.4575,1.5654,1.6601,1.7973,2.0177,2.1662,2.29,2.3927,2.4317,2.4658,2.5111,2.5305,2.5275,2.4832,2.461,2.4013,2.2922,2.205,2.1781,2.2152,2.0082,1.9287,2.0115,1.7967,1.643,1.5625,1.4779,1.3939,1.308,1.1998,1.1395,1.1267,1.3198,1.5457,1.7851,1.9087,2.0964,0.0,0.0,2.3816,2.4802,2.512,2.4973,2.4562,2.4392,2.4207,2.3968,2.3602,2.2953,2.2522,2.3778,2.3179,2.218,2.3111,2.2839,2.2043,2.1461,2.1606,2.1529,1.976,1.9182,1.8616,1.697,1.7042,1.7632,1.8362,0.0,0.0,0.0,2.2629,2.2578,2.367,2.3531,2.2995,0.0,2.214,0.0,0.0,0.0,0.0,0.0,0.0,0.0,0.0,0.0,0.0,0.0,3.7471,3.7969,3.9252,3.9063,3.966,4.1111,4.1111,4.1919,4.3497,4.3497,4.3497,4.3497,4.3497,4.3497,4.3497,4.3497,4.3286,4.2958,4.2958,4.2619,4.2169,4.2564,4.2929,4.3128,4.2822,4.3166,4.391,1.5772,1.4468,1.3238,1.2615,1.408,1.5601,1.6409,2.0088,2.2892,2.3209,2.4571,2.5453,2.5414,2.5459,2.5313,2.4832,2.479,2.4153,2.2729,2.2268,2.2303,2.2904,2.161,2.1256,2.2017,2.0099,0.0,1.6718,1.5491,1.4574,1.3913,1.2327,1.1682,1.1879,1.2301,1.4423,1.785,1.9713,2.2477,2.5627,2.5676,2.5616,2.5554,2.5522,2.4793,2.3923,2.4724,2.4618,2.41,2.4081,2.4266,2.4484,2.4389,2.4831,2.5412,2.5301,2.5259,2.4856,2.3036,2.2543,2.2084,2.0322,1.9816,1.939,1.8104,1.8935,1.9984,2.0043,2.0235,0.0,0.0,2.4399,2.3573,2.5101,2.4492,2.3878,2.3862,0.0,0.0,0.0,0.0,0.0,0.0,0.0,0.0,0.0,0.0,0.0,0.0,3.7376,3.7845,3.9566,3.9082,3.9485,4.1071,4.1107,4.1915,4.3458,4.3495,4.3497,4.3497,4.3497,4.3497,4.3497,4.3497,4.3497,4.3497,4.3497,4.3214,4.284,4.3635,4.3677,4.3301,4.3416,4.3944,4.4587,1.4932,1.0411,0.5874,0.3309,0.6314,1.0262,1.3668,1.5573,1.8164,2.2322,2.3241,2.4007,2.5269,2.5428,2.5275,2.4832,2.4323,2.386,2.3428,2.2024,2.1906,2.3454,2.1697,2.1314,2.2719,2.0278,1.8903,1.8624,1.6089,1.4806,1.4757,1.3165,1.2155,1.1711,1.2853,1.5016,1.7877,1.9701,2.2501,2.5681,2.5623,2.5273,2.4757,2.5303,2.4919,2.4177,2.4759,2.5323,2.5649,2.535,2.5574,2.6031,2.6315,2.6234,2.6021,2.6152,2.6002,2.5607,2.4697,2.4178,2.3677,2.2694,2.1432,2.0265,1.9606,2.0156,2.0847,2.0952,2.2306,2.3628,2.4164,2.4411,2.4495,2.4305,2.3825,2.3729,0.0,0.0,0.0,0.0,0.0,0.0,0.0,0.0,0.0,0.0,0.0,0.0,0.0,0.0,3.7177,3.9906,3.9835,4.0123,4.0862,4.1287,4.1994,4.2965,4.3302,4.3497,4.3497,4.3497,4.3497,4.3497,4.3497,4.3497,4.3497,4.3497,4.3428,4.3396,4.4367,4.4813,4.4872,4.4456,4.4418,4.4587,1.2153,0.5793,-0.0516,-0.4853,-0.0522,0.5389,1.0755,1.3488,1.6475,2.0678,2.1398,2.2224,2.3998,2.4581,2.4864,2.4795,2.4441,2.3952,2.3268,2.2388,2.2317,2.3169,2.2127,2.2167,2.351,2.157,0.0,1.9323,1.7091,1.5581,1.4695,1.3347,1.232,1.1761,1.3085,1.4762,1.6844,2.0194,2.2789,2.462,2.5306,2.5312,0.0,2.5375,2.5201,2.4812,2.5077,2.565,2.625,2.6027,2.6503,2.7241,2.736,2.7277,2.7126,2.694,2.6723,2.642,2.5746,2.5335,2.4971,2.4327,2.3243,2.2087,2.1295,2.1544,2.2086,2.2569,2.3453,2.452,2.5898,2.5173,2.4238,0.0,0.0,0.0,0.0,0.0,0.0,0.0,0.0,0.0,0.0,0.0,0.0,0.0,0.0,0.0,0.0,0.0,0.0,4.0005,3.9962,4.0276,4.114,4.1474,4.2092,4.3093,4.3343,4.3497,4.3497,4.3497,4.3497,4.3497,4.3497,4.3497,4.3497,4.3497,4.3497,4.3609,4.4624,4.5339,4.5815,4.5249,4.4831,4.4587,0.8233,0.1695,-0.478,-1.0785,-0.4994,0.2426,0.8293,1.262,1.6186,1.8789,1.9547,2.056,2.2333,2.3347,2.4121,2.4606,2.4572,2.4062,2.2861,2.3017,2.3021,2.2777,2.2764,2.3212,2.417,2.3006,2.1425,0.0,1.8133,1.6386,1.4327,1.3236,1.2441,1.2007,1.3121,1.4436,1.61,2.1008,2.3199,2.3525,2.4985,2.5584,2.5585,2.5587,2.5544,2.5475,2.5438,2.5883,2.6505,2.6479,2.7305,2.8297,2.7922,2.8104,2.8324,2.766,2.7396,2.7112,2.6385,2.6068,2.5888,2.5411,2.491,2.42,2.3054,2.3101,2.3643,2.4492,2.4375,2.5077,2.8413,2.6074,2.3671,0.0,0.0,0.0,0.0,0.0,0.0,0.0,0.0,0.0,0.0,0.0,0.0,0.0,0.0,0.0,0.0,0.0,0.0,4.0062,3.9975,4.0387,4.1472,4.1717,4.2374,4.3299,4.3487,4.3529,4.3497,4.3497,4.3497,4.3497,4.3497,4.3497,4.3497,4.3497,4.3608,4.3903,4.4774,4.5724,4.6495,4.5815,4.5267,4.4797,0.4253,0.0,0.0,0.0,-0.1623,0.6561,0.7753,1.0765,1.4196,1.7753,1.9097,2.0369,2.2017,2.2294,2.2763,2.3634,2.3375,2.3326,2.3711,2.3104,2.2928,2.3494,2.3186,2.3406,2.417,2.2685,2.1402,2.0283,1.7939,1.624,1.5148,1.364,1.2885,1.2823,1.3412,1.5835,1.9627,2.1993,2.3828,2.512,2.5404,2.5566,2.5586,2.5584,2.5554,2.5473,2.5425,2.6369,2.7604,2.7345,2.8356,2.9618,2.9212,2.8935,2.8651,2.8288,2.7776,2.7272,2.708,2.6522,2.5961,2.5888,2.5449,2.5003,2.4748,2.5093,2.5601,2.605,2.6666,2.7066,2.6885,2.5674,2.4721,0.0,0.0,0.0,0.0,0.0,0.0,0.0,0.0,0.0,0.0,0.0,0.0,0.0,0.0,0.0,0.0,0.0,0.0,0.0,4.1063,4.1182,4.0708,4.2519,4.3023,4.2291,4.3394,4.3791,4.3497,4.3497,4.3497,4.3497,4.3497,4.3497,4.3497,4.3497,4.4268,4.5516,4.5663,4.6339,4.7168,4.6495,4.6209,4.5915,0.0333,0.0,0.0,0.0,0.1528,0.8788,0.9054,1.2261,1.517,1.6639,1.7199,1.816,1.9974,2.0856,2.183,2.3055,2.3091,2.3379,2.4062,2.3516,2.3419,2.3955,2.3441,2.3486,2.419,2.3249,2.1826,1.9895,1.8567,1.6653,1.4283,1.3389,1.2629,1.1998,1.3641,1.5877,1.8575,2.1655,2.3403,2.4236,2.5149,2.5511,2.5564,2.5623,2.5609,2.5551,2.5481,2.6246,2.7323,2.7608,2.844,2.9383,2.9511,2.9339,2.9023,2.8554,2.8139,2.7805,2.7391,2.6985,2.659,2.6419,2.5997,2.5598,2.5598,2.5815,2.6071,2.6421,2.7075,2.7261,2.609,2.5718,2.5475,2.5243,0.0,0.0,0.0,0.0,0.0,0.0,0.0,0.0,0.0,0.0,0.0,0.0,0.0,0.0,0.0,0.0,0.0,0.0,0.0,0.0,4.2201,4.325,4.3643,4.3366,4.3998,4.4125,4.3758,4.3758,4.366,4.3497,4.3497,4.3497,4.3534,4.3938,4.4819,4.5957,4.6361,4.6898,4.7342,4.7044,4.6728,4.6257,-0.0164,-0.1225,0.0,-0.1464,0.5872,1.1712,1.1876,1.4686,1.6532,1.5856,1.5649,1.6287,1.8062,1.9321,2.0678,2.2188,2.2606,2.3086,2.3878,2.3769,2.3816,2.4056,2.3653,2.361,2.4075,2.3878,2.248,1.9837,1.9381,1.7395,1.4059,1.3431,1.274,1.2142,1.4296,1.6166,1.7991,2.1389,2.3023,2.3475,2.4899,2.5492,2.5503,2.5619,2.5654,2.5589,2.5537,2.59,2.6564,2.7593,2.8349,2.8973,2.9564,2.9626,2.9336,2.8772,2.8504,2.8272,2.7689,2.7391,2.7241,2.6923,2.6488,2.6139,2.6139,2.6139,2.6245,2.6489,2.695,2.6978,2.593,2.6223,2.6381,2.5665,0.0,0.0,0.0,0.0,0.0,0.0,0.0,0.0,0.0,0.0,0.0,0.0,0.0,0.0,0.0,0.0,0.0,0.0,0.0,4.2215,4.3079,4.3825,4.4249,4.4436,4.4613,4.4482,4.4117,4.4117,4.3943,4.3597,4.3597,4.3563,4.3534,4.4378,4.5186,4.5993,4.6801,4.7302,4.7591,4.7428,4.7132,4.6635,0.6947,0.0,0.6676,0.6533,1.298,1.7757,1.6652,1.66,1.6449,1.5727,1.5976,1.6614,1.7659,1.7902,1.8612,2.0227,2.0836,2.165,2.2941,2.3462,2.3732,2.3753,2.3976,2.3996,2.3753,2.4016,2.329,2.1564,2.0042,1.8339,1.6505,1.4437,1.4318,1.5886,1.5961,1.8218,2.1976,2.2429,2.3474,2.4862,2.5262,2.5453,2.5503,2.558,2.5625,2.5619,2.5584,2.5543,2.5774,2.7449,2.8467,2.919,2.9775,2.9829,2.9644,2.9394,2.8902,2.8376,2.8324,2.7805,2.7303,2.7272,2.6922,2.6624,2.6624,2.6624,2.6657,2.6691,2.7019,2.7152,2.6606,2.7412,2.7716,2.6178,2.6421,0.0,0.0,0.0,0.0,0.0,0.0,0.0,0.0,0.0,0.0,0.0,2.9347,0.0,0.0,0.0,0.0,3.9431,0.0,4.1492,4.0822,4.3859,4.4883,4.3869,4.469,4.4872,4.4535,4.4535,4.4318,4.3937,4.3937,4.3791,4.3534,4.4378,4.5186,4.5993,4.6801,4.7571,4.8153,4.7596,4.7715,4.8028,0.6325,0.7704,0.8868,1.0237,1.5117,1.8476,1.7489,1.7353,1.6849,1.5472,1.5887,1.6512,1.7093,1.7466,1.8141,1.9276,1.9906,2.0758,2.2039,2.2504,2.302,2.3674,2.3631,2.3732,2.3996,2.3753,2.2998,2.1821,1.9951,1.8088,1.6287,1.5418,1.5592,1.6775,1.8098,1.964,2.1411,2.3258,2.4409,2.5003,2.5301,2.5446,2.5529,2.557,2.5625,2.5663,2.5629,2.5896,2.6405,2.7605,2.817,2.856,2.965,2.9954,2.9813,2.9513,2.9228,2.8925,2.8504,2.8192,2.7862,2.7391,2.7178,2.6987,2.6758,2.6691,2.6826,2.7266,2.8014,2.852,2.8113,2.8247,2.8387,2.8458,2.8275,0.0,0.0,0.0,0.0,0.0,0.0,0.0,0.0,0.0,0.0,0.0,0.0,0.0,0.0,0.0,0.0,3.7777,0.0,4.2447,4.2129,4.4432,4.5358,4.4863,4.5208,4.5222,4.4896,4.4896,4.4561,4.3998,4.3998,4.4082,4.4268,4.5076,4.5883,4.6728,4.7535,4.8012,4.8267,4.8035,4.8075,4.8339,0.7482,0.858,1.0126,1.3232,1.6188,1.8049,1.7838,1.7954,1.7561,1.6133,1.6311,1.6612,1.6773,1.7191,1.7689,1.8367,1.9029,1.9886,2.1066,2.1546,2.2283,2.3374,2.3259,2.3387,2.3753,2.341,2.2896,2.2206,2.0462,1.8919,1.7572,1.6924,1.724,1.8436,1.9694,2.0704,2.1682,2.386,2.4828,2.4968,2.5241,2.5428,2.5514,2.5535,2.5622,2.5703,2.5664,2.5988,2.656,2.7393,2.7775,2.8176,2.9666,3.0042,2.9939,2.9589,2.9454,2.9291,2.8737,2.8489,2.8272,2.7747,2.7452,2.7241,2.6922,2.6961,2.7232,2.801,2.88,2.935,2.9336,2.9107,2.911,2.9671,2.9555,2.9686,0.0,3.0636,0.0,0.0,3.1048,3.0936,3.0956,2.9471,0.0,0.0,0.0,0.0,0.0,0.0,0.0,0.0,0.0,0.0,4.3205,4.4855,4.5624,4.5586,4.5586,4.5457,4.5243,4.5159,4.4849,4.4318,4.4233,4.442,4.4918,4.5729,4.647,4.7205,4.8012,4.8306,4.8306,4.8306,4.8306,4.8453,1.2725,1.1705,1.1491,1.6239,1.6928,1.7216,1.8329,1.8587,1.8485,1.7939,1.7468,1.7077,1.6825,1.6831,1.6926,1.7296,1.798,1.8885,1.9957,2.0696,2.1576,2.266,2.3021,2.3045,2.2721,2.3045,2.3189,2.3177,2.1888,2.137,2.1471,1.9179,1.9468,2.1869,2.0433,2.1346,2.3971,2.4222,2.4511,2.4832,2.516,2.539,2.5495,2.5511,2.5593,2.5703,2.5703,2.5676,2.5732,2.6555,2.7319,2.8291,2.9879,3.0228,2.9969,2.9746,2.9551,2.9332,2.9067,2.8725,2.8376,2.8376,2.7833,2.7303,2.7303,2.7536,2.801,2.8822,2.9028,2.9231,2.9939,3.0074,2.9837,2.9127,2.9749,2.9987,2.9121,2.851,0.0,2.9523,2.7221,2.697,3.055,2.8323,0.0,0.0,0.0,0.0,0.0,0.0,0.0,4.0569,4.2422,0.0,4.3195,4.491,4.5719,4.5586,4.5586,4.5586,4.5586,4.5243,4.5115,4.5094,4.4751,4.4834,4.5233,4.6057,4.6678,4.7205,4.8012,4.8306,4.8306,4.8306,4.8306,4.8563,1.1334,1.2324,1.3704,1.6288,1.7599,1.836,1.8531,1.8744,1.8529,1.7501,1.7366,1.7502,1.7659,1.7382,1.7272,1.7568,1.8008,1.8836,2.0177,2.0474,2.1344,2.2951,2.273,2.2738,2.3045,2.273,2.2816,2.3189,2.1487,2.104,2.1782,2.0937,2.162,2.3545,2.2923,2.3061,2.3826,2.4418,2.4708,2.4832,2.516,2.5341,2.5457,2.5473,2.5554,2.5625,2.5664,2.6052,2.6532,2.6773,2.7764,2.8978,2.9444,2.9908,3.0228,2.9969,2.9763,2.9551,2.9332,2.903,2.8749,2.8489,2.8219,2.7918,2.7391,2.798,2.8822,2.96,3.0142,3.0548,3.0818,3.0852,3.0784,3.0514,3.0735,3.0824,3.0548,3.0325,3.033,3.0636,3.0418,3.06,3.1421,3.0523,0.0,0.0,0.0,0.0,0.0,0.0,0.0,0.0,4.2182,4.4041,4.3341,4.4963,4.5719,4.5586,4.5586,4.5586,4.5586,4.5475,4.5341,4.5115,4.5559,4.6001,4.6477,4.7068,4.7698,4.834,4.831,4.8306,4.8306,4.8306,4.8306,4.8563,1.1065,1.2382,1.393,1.5611,1.7183,1.8282,1.8516,1.9026,1.9063,1.8093,1.8065,1.8183,1.8283,1.8025,1.7856,1.7834,1.8052,1.8801,2.0281,2.0408,2.1243,2.3118,2.2832,2.2807,2.3189,2.2704,2.2625,2.3021,2.2013,2.1933,2.2696,2.2695,2.3279,2.4282,2.4046,2.3933,2.3968,2.4495,2.4757,2.4891,2.5182,2.5351,2.5447,2.5476,2.5563,2.5625,2.5664,2.6016,2.6444,2.6417,2.7301,2.8422,2.8695,2.9301,2.9958,2.998,2.9908,2.9763,2.957,2.9332,2.9075,2.8855,2.8578,2.8336,2.8154,2.8905,2.9824,3.0383,3.0886,3.119,3.119,3.119,3.119,3.119,3.119,3.119,3.119,3.119,3.1065,3.0643,3.1184,3.1691,3.1908,3.1888,3.1883,0.0,0.0,0.0,0.0,0.0,3.7974,3.9351,4.3271,4.5043,4.4432,4.5372,4.5796,4.568,4.5624,4.5586,4.5586,4.5586,4.5667,4.5819,4.6317,4.6946,4.7693,4.7975,4.8421,4.8881,4.864,4.8421,4.8306,4.8306,4.8526,4.8967,1.1765,1.2137,1.2936,1.4651,1.6038,1.7342,1.8429,1.9401,1.9855,1.9488,1.9323,1.9089,1.8735,1.877,1.8699,1.8268,1.8208,1.8836,2.0393,2.0476,2.1288,2.3141,2.3212,2.3189,2.3165,2.2873,2.2695,2.2669,2.3244,2.3657,2.3978,2.4219,2.4336,2.4316,2.4022,2.4068,2.4351,2.4542,2.4801,2.5003,2.5214,2.539,2.5505,2.5486,2.5574,2.5703,2.5703,2.5703,2.5703,2.5625,2.6212,2.7123,2.7879,2.8644,2.9394,2.9879,3.0013,2.9969,2.9763,2.957,2.9414,2.9394,2.8938,2.8694,2.9508,3.0213,3.0801,3.1176,3.123,3.119,3.119,3.119,3.119,3.119,3.119,3.119,3.119,3.123,3.0878,2.9902,3.0127,3.0884,3.2177,3.263,3.3834,0.0,0.0,0.0,0.0,0.0,3.8676,4.3241,4.5294,4.6226,4.6089,4.5984,4.5873,4.5796,4.5663,4.5586,4.5586,4.5586,4.6086,4.6894,4.6971,4.7701,4.8838,4.8891,4.8926,4.8978,4.8911,4.8639,4.8344,4.8306,4.8857,4.9701,1.2531,1.3983,1.5492,1.6255,1.7604,1.873,1.9332,1.9805,2.001,1.9865,1.9722,1.9626,1.9548,1.9537,1.9535,1.9479,1.9258,1.9801,2.1493,2.1389,2.1942,2.3516,2.3328,2.3069,2.2822,2.2746,2.2599,2.2371,2.3236,2.3635,2.3617,2.4354,2.4663,2.4674,2.4773,2.4754,2.4694,2.4917,2.4994,2.5003,2.5214,2.5303,2.537,2.5466,2.5522,2.558,2.5661,2.5703,2.5703,2.5664,2.6714,2.7978,2.8134,2.9129,3.0288,3.0375,3.0188,2.9999,2.9939,2.978,2.9589,2.9434,2.9365,2.9683,3.1064,3.1029,3.0907,3.1524,3.1393,3.119,3.119,3.119,3.119,3.119,3.119,3.119,3.119,3.147,3.1558,3.1322,3.2533,3.3382,3.3333,3.4606,3.4907,3.3716,0.0,3.5789,3.6269,3.7503,3.9838,4.328,4.5294,4.6246,4.6093,4.6061,4.5988,4.5796,4.5663,4.5586,4.5586,4.5586,4.6086,4.6932,4.7548,4.8356,4.9276,4.9633,4.9784,4.9754,4.9139,4.8847,4.8709,4.8421,4.8857,4.9701,1.4011,1.5434,1.6721,1.6978,1.8339,1.942,1.9388,1.9756,2.004,1.9984,1.9924,1.985,1.9821,1.9892,1.9941,2.0009,2.0126,2.074,2.2096,2.2339,2.2913,2.4024,2.3886,2.3681,2.3374,2.3236,2.2996,2.2712,2.3387,2.3638,2.3587,2.4339,2.4711,2.4807,2.4983,2.5049,2.5078,2.5205,2.5216,2.5171,2.5321,2.5351,2.5399,2.5453,2.5551,2.5603,2.5662,2.5703,2.5703,2.5703,2.6602,2.7773,2.8149,2.9078,3.0082,3.043,3.0356,3.0163,3.0163,3.0304,3.0461,3.0465,3.0849,3.132,3.1852,3.1934,3.1906,3.2091,3.195,3.1804,3.1804,3.1804,3.1731,3.1507,3.147,3.1428,3.123,3.1891,3.2472,3.2651,3.4041,3.5074,3.5403,3.6286,3.6352,3.5172,3.6048,3.6759,3.7007,3.8833,4.0987,4.3319,4.4904,4.5859,4.6172,4.6118,4.5995,4.5796,4.5719,4.5663,4.5586,4.6009,4.6663,4.7509,4.8317,4.9202,5.001,5.027,5.0291,5.0087,4.9617,4.9234,4.8919,4.9083,4.9564,5.0251,1.5636,1.6641,1.7468,1.7386,1.8718,1.9665,1.9255,1.9663,1.9993,2.005,2.006,2.0012,1.9888,2.0038,2.0203,2.0317,2.0982,2.1678,2.2408,2.3144,2.386,2.4538,2.451,2.441,2.4153,2.3858,2.3544,2.3189,2.3588,2.3753,2.3696,2.4266,2.4624,2.4791,2.4941,2.5169,2.5373,2.5403,2.5401,2.5416,2.5409,2.5428,2.5505,2.5505,2.5601,2.5696,2.5703,2.5703,2.5703,2.5859,2.6484,2.7344,2.8203,2.8957,2.9648,3.0392,3.0506,3.0379,3.0379,3.0841,3.1423,3.1974,3.2574,3.2868,3.2429,3.2785,3.3075,3.2699,3.2533,3.2466,3.2466,3.2466,3.2296,3.1672,3.1741,3.17,3.1121,3.236,3.3424,3.377,3.5022,3.6303,3.7374,3.7588,3.7796,3.7993,3.8465,3.8759,3.8856,4.0226,4.1722,4.3272,4.4396,4.543,4.6289,4.6172,4.5986,4.5819,4.5791,4.5719,4.5624,4.6509,4.7355,4.8163,4.9009,4.9894,5.0702,5.0702,5.0504,5.0183,5.0135,4.9721,4.9239,4.9884,5.0491,5.1096,1.6834,1.7839,1.8679,1.8763,1.9367,1.9874,2.0007,2.0014,2.0069,2.0233,2.0249,2.0241,2.0225,2.0233,2.0595,2.1466,2.223,2.2708,2.2641,2.3381,2.4094,2.4726,2.4601,2.4336,2.4025,2.3821,2.3544,2.3189,2.3816,2.3976,2.3696,2.4266,2.4601,2.4826,2.499,2.5173,2.5304,2.5428,2.5453,2.5381,2.5421,2.5428,2.5486,2.5479,2.5557,2.5623,2.5687,2.5703,2.582,2.6562,2.7383,2.8242,2.9101,2.9857,3.0432,3.0557,3.0506,3.0379,3.0379,3.0841,3.1638,3.3135,3.3258,3.3171,3.3746,3.3542,3.3166,3.3105,3.2795,3.2466,3.2466,3.2466,3.2009,3.0574,3.1487,3.1874,3.0477,3.2556,3.4199,3.4263,3.6042,3.7271,3.7477,3.8102,3.8511,3.8559,3.8658,3.8796,3.9043,3.9656,4.0948,4.2922,4.4279,4.543,4.6289,4.6172,4.603,4.5901,4.5843,4.5719,4.5624,4.6509,4.7355,4.8163,4.9009,4.9894,5.0702,5.0702,5.0644,5.0584,5.023,5.0236,5.0409,5.0172,5.0824,5.183,1.8321,1.8919,1.9396,1.9782,2.0277,2.0568,2.0244,2.0372,2.0477,2.0326,2.0312,2.0465,2.0943,2.1059,2.1498,2.2408,2.3239,2.3664,2.361,2.4347,2.4841,2.4957,2.4866,2.4662,2.4264,2.4078,2.3878,2.3753,2.4036,2.4132,2.3976,2.432,2.4607,2.4818,2.4991,2.5159,2.536,2.544,2.5478,2.5457,2.5488,2.5518,2.5553,2.5553,2.5583,2.5671,2.5698,2.5703,2.582,2.6719,2.7578,2.8437,2.9336,3.0091,3.0665,3.0634,3.0544,3.0609,3.1506,3.1956,3.2551,3.4127,3.4319,3.4144,3.4195,3.3956,3.3697,3.3578,3.3343,3.3196,3.3196,3.3196,3.2883,3.1923,3.2358,3.2688,3.211,3.3745,3.5218,3.5652,3.7155,3.8138,3.8138,3.8469,3.8689,3.8689,3.8689,3.8833,3.9117,3.9539,4.0786,4.2884,4.4723,4.5898,4.6289,4.625,4.6129,4.6015,4.5893,4.5796,4.5757,4.6971,4.774,4.8163,4.951,5.0317,5.0702,5.0702,5.0702,5.0741,5.0982,5.1037,5.1109,5.1849,5.2173,5.2379,1.9713,1.9993,2.0217,2.0763,2.1207,2.1356,2.0931,2.1115,2.1111,2.0625,2.0773,2.1074,2.1557,2.1922,2.2447,2.3319,2.3946,2.4393,2.4659,2.5193,2.5415,2.5207,2.5149,2.4903,2.4493,2.4339,2.4247,2.419,2.419,2.419,2.419,2.441,2.4607,2.4804,2.4956,2.5149,2.539,2.5466,2.5493,2.5503,2.5547,2.5587,2.5615,2.563,2.5646,2.5703,2.5703,2.582,2.6133,2.6992,2.7891,2.875,2.9648,3.0274,3.07,3.0685,3.0717,3.1032,3.2506,3.3045,3.3506,3.4856,3.5157,3.4981,3.4513,3.436,3.426,3.3954,3.3902,3.3876,3.3834,3.3807,3.3579,3.29,3.3241,3.3587,3.3462,3.4939,3.6282,3.6898,3.799,3.8689,3.8689,3.8689,3.8689,3.8689,3.8872,3.9068,3.9277,3.996,4.1304,4.3322,4.5299,4.6289,4.6289,4.6289,4.6211,4.6094,4.5958,4.5857,4.5873,4.7394,4.8086,4.8202,4.9933,5.0702,5.0702,5.0702,5.0702,5.0779,5.1587,5.1804,5.1789,5.3133,5.3414,5.3082,2.0699,2.1148,2.148,2.1916,2.1873,2.2025,2.2711,2.2449,2.1995,2.147,2.2167,2.2439,2.1774,2.2469,2.3358,2.4223,2.4297,2.4649,2.5475,2.5517,2.5508,2.5572,2.5264,2.4903,2.4493,2.4497,2.4393,2.419,2.419,2.419,2.419,2.441,2.4607,2.4804,2.4956,2.5111,2.5303,2.539,2.5461,2.5516,2.5502,2.5586,2.5696,2.5631,2.5646,2.5703,2.5703,2.6211,2.7031,2.7891,2.8789,2.9648,3.0547,3.0764,3.07,3.0715,3.1158,3.1878,3.2699,3.3506,3.4314,3.5249,3.527,3.5069,3.5034,3.4851,3.4572,3.4223,3.4152,3.4093,3.386,3.3807,3.3293,3.1799,3.3386,3.4376,3.2883,3.5365,3.7374,3.7448,3.8212,3.8689,3.8689,3.8689,3.8689,3.8689,3.9386,3.9822,3.9853,4.1183,4.2717,4.4509,4.5682,4.6289,4.6289,4.6289,4.6211,4.6094,4.5962,4.5866,4.5873,4.7394,4.8086,4.8202,4.9933,5.0702,5.0702,5.0702,5.0702,5.0779,5.1587,5.2165,5.2551,5.3051,5.3729,5.4246,2.1244,2.1635,2.1978,2.2398,2.2858,2.3121,2.3038,2.3126,2.3023,2.2457,2.2692,2.3057,2.3328,2.3707,2.4276,2.5117,2.5126,2.519,2.5592,2.552,2.5468,2.5538,2.5267,2.5039,2.4866,2.4766,2.4575,2.4393,2.4393,2.4393,2.4393,2.4591,2.4752,2.4943,2.5099,2.5224,2.5303,2.539,2.5446,2.5515,2.5566,2.5625,2.5703,2.5671,2.5683,2.5703,2.5703,2.625,2.7148,2.8008,2.8867,2.9766,3.0625,3.0884,3.0901,3.1382,3.205,3.2842,3.3557,3.3968,3.4391,3.5276,3.5412,3.5285,3.5157,3.5016,3.487,3.4572,3.4338,3.4338,3.4772,3.4676,3.4541,3.4431,3.5202,3.5789,3.5642,3.6707,3.7661,3.8175,3.8505,3.8689,3.8689,3.8689,3.8909,3.9423,3.9717,4.012,4.0634,4.213,4.3483,4.4651,4.5646,4.6211,4.6289,4.6289,4.6289,4.6211,4.6083,4.5974,4.5911,4.7489,4.8182,4.8202,4.9933,5.0702,5.0702,5.0702,5.0971,5.1548,5.2395,5.314,5.3874,5.4522,5.4802,5.479,2.1984,2.2371,2.2702,2.3047,2.3692,2.4041,2.3686,2.3979,2.3984,2.3389,2.3578,2.3959,2.4339,2.4645,2.5032,2.5658,2.5571,2.5505,2.5563,2.5466,2.5427,2.5508,2.5312,2.5182,2.5111,2.4965,2.4809,2.4591,2.4591,2.4591,2.4591,2.4766,2.4917,2.4991,2.5214,2.5303,2.5303,2.5341,2.5428,2.5466,2.5527,2.5622,2.5664,2.5703,2.5703,2.5742,2.6016,2.668,2.7539,2.8398,2.9297,3.0117,3.0703,3.0898,3.1092,3.2154,3.2839,3.3448,3.4518,3.4699,3.4776,3.5353,3.5493,3.5465,3.5254,3.5223,3.5157,3.4889,3.4843,3.5033,3.5521,3.5565,3.5735,3.6353,3.6573,3.6853,3.7434,3.7698,3.8065,3.8615,3.8689,3.8689,3.8689,3.8946,3.9313,3.9863,4.0377,4.1093,4.2119,4.3278,4.425,4.506,4.575,4.6172,4.6289,4.6289,4.6289,4.6289,4.6172,4.6187,4.636,4.7675,4.8374,4.8586,5.0048,5.0702,5.0702,5.0971,5.1395,5.201,5.3164,5.3972,5.4587,5.5247,5.535,5.5053,2.3069,2.3477,2.378,2.3968,2.4301,2.4639,2.4943,2.5057,2.4877,2.4303,2.5014,2.5303,2.4494,2.5194,2.5696,2.5697,2.5571,2.5505,2.5486,2.5428,2.5427,2.5507,2.5508,2.5392,2.513,2.5111,2.5011,2.4804,2.4804,2.4804,2.4804,2.4956,2.4991,2.4991,2.5214,2.5303,2.5303,2.5303,2.5341,2.5447,2.5505,2.5551,2.5625,2.5664,2.5703,2.582,2.668,2.7578,2.8437,2.9297,3.0195,3.0898,3.0898,3.0898,3.125,3.2891,3.3367,3.3682,3.5444,3.5738,3.5584,3.5507,3.5493,3.5493,3.5493,3.5493,3.5451,3.5174,3.5734,3.6214,3.5965,3.6339,3.6721,3.6721,3.7147,3.7507,3.7507,3.8212,3.8689,3.8689,3.8689,3.8689,3.8689,3.9423,3.99,3.99,4.1405,4.2971,4.4535,4.4673,4.5082,4.5855,4.6047,4.6172,4.6289,4.6289,4.6289,4.6289,4.6172,4.6495,4.7242,4.7944,4.8682,4.9433,5.0317,5.0702,5.0741,5.1587,5.1895,5.2087,5.3818,5.4511,5.4545,5.497,5.5107,5.5113,2.3165,2.3581,2.3929,2.4006,2.4479,2.4866,2.4967,2.5176,2.5245,2.5137,2.5382,2.5522,2.5317,2.5543,2.5696,2.5697,2.5571,2.5466,2.5361,2.539,2.5416,2.5505,2.5483,2.5465,2.5434,2.536,2.5224,2.5023,2.4967,2.4956,2.4956,2.4967,2.5077,2.5252,2.5908,2.6197,2.6236,2.6851,2.7169,2.7218,2.7314,2.7011,2.6523,2.6602,2.6602,2.6641,2.6914,2.7969,2.9258,2.9492,3.0195,3.0898,3.0898,3.1328,3.2031,3.3086,3.3786,3.4449,3.5581,3.5739,3.5615,3.5586,3.5545,3.5493,3.5493,3.5493,3.5633,3.6128,3.6272,3.6631,3.7738,3.7932,3.8,3.8313,3.8515,3.8571,3.8352,3.8542,3.8689,3.8689,3.8689,3.8689,3.8689,3.9423,4.012,4.0708,4.2213,4.3564,4.4535,4.4638,4.5026,4.5817,4.5901,4.6015,4.6172,4.625,4.6289,4.6289,4.625,4.6573,4.7242,4.8067,4.8798,4.9433,5.0317,5.0702,5.0741,5.1587,5.2279,5.2933,5.4049,5.4857,5.5357,5.55,5.5695,5.5902,2.3773,2.41,2.4331,2.4393,2.4757,2.5056,2.5138,2.5339,2.5484,2.5536,2.5583,2.5663,2.5702,2.5703,2.5696,2.5697,2.5595,2.5422,2.5313,2.5341,2.5389,2.5484,2.552,2.5539,2.5586,2.5524,2.5413,2.5264,2.5231,2.5187,2.5149,2.5149,2.5384,2.5851,2.6351,2.6774,2.7159,2.7659,2.7939,2.7988,2.8047,2.7796,2.7372,2.7499,2.75,2.7578,2.7891,2.8711,2.9648,3.0,3.0469,3.0898,3.0898,3.1484,3.2344,3.3164,3.3984,3.484,3.5684,3.5832,3.5728,3.5637,3.5584,3.5493,3.5493,3.5738,3.6122,3.6622,3.711,3.7781,3.8814,3.9032,3.9186,3.9435,3.9264,3.9036,3.8884,3.878,3.8689,3.8689,3.8689,3.8836,3.9129,3.99,4.0855,4.1956,4.2947,4.3823,4.4572,4.4599,4.4957,4.5778,4.5838,4.5935,4.6094,4.6172,4.625,4.6289,4.6641,4.7123,4.7748,4.8629,4.9337,4.9933,5.0471,5.0894,5.1241,5.2087,5.2933,5.3818,5.4626,5.528,5.5703,5.5703,5.5959,5.6311,2.4693,2.4818,2.4874,2.4993,2.5069,2.5206,2.5399,2.5524,2.5582,2.5582,2.5675,2.5703,2.5703,2.5702,2.5685,2.5678,2.5553,2.5428,2.5303,2.5303,2.5374,2.5507,2.5484,2.5542,2.5586,2.5586,2.5551,2.5493,2.5514,2.5505,2.5543,2.5515,2.5967,2.6736,2.6813,2.7274,2.8005,2.8082,2.8121,2.8121,2.8285,2.8277,2.8228,2.8353,2.8437,2.8516,2.9336,2.9648,2.9844,3.0625,3.0898,3.0898,3.0976,3.1601,3.2461,3.3281,3.4141,3.5,3.5781,3.5966,3.5882,3.5766,3.5622,3.5545,3.5584,3.6161,3.6738,3.6892,3.82,3.9315,3.9392,3.9806,4.0139,4.0081,3.9557,3.9133,3.908,3.8855,3.8726,3.8799,3.8799,3.9129,3.9937,4.0744,4.1846,4.3387,4.3497,4.3823,4.4519,4.4599,4.4934,4.5704,4.5778,4.5905,4.6087,4.6091,4.6171,4.6328,4.7187,4.7904,4.8536,4.9379,5.0106,5.0702,5.0702,5.1164,5.1972,5.2856,5.3703,5.4587,5.5395,5.5703,5.5703,5.5703,5.606,5.6539,2.479,2.4877,2.4968,2.5082,2.5203,2.538,2.546,2.5553,2.5582,2.5582,2.5675,2.5703,2.5703,2.5693,2.5677,2.5627,2.5495,2.539,2.5303,2.5341,2.537,2.5425,2.5505,2.558,2.5586,2.5586,2.5584,2.5568,2.5537,2.5834,2.6501,2.6502,2.691,2.7719,2.8362,2.8709,2.889,2.9583,2.989,2.9929,3.0044,2.9732,2.9207,2.9272,2.9336,2.9336,2.9531,3.0039,3.0664,3.0859,3.0898,3.1016,3.1719,3.2461,3.332,3.418,3.5039,3.5742,3.5937,3.5934,3.5892,3.5852,3.5738,3.5738,3.6315,3.6584,3.7084,3.843,3.9046,3.9469,4.0123,4.0323,4.0339,4.012,3.9754,3.9389,3.9133,3.8855,3.8946,3.957,3.9643,3.9974,4.0781,4.1589,4.2433,4.3424,4.3497,4.366,4.4087,4.4428,4.48,4.5239,4.5611,4.5803,4.5866,4.59,4.6045,4.6328,4.7187,4.7904,4.8536,4.9379,5.0106,5.0702,5.0702,5.1164,5.1972,5.2856,5.3703,5.4587,5.5395,5.5703,5.5703,5.5703,5.6381,5.7434,2.5069,2.5153,2.5198,2.5291,2.5405,2.5514,2.5553,2.5595,2.5634,2.5634,2.5685,2.5697,2.5706,2.5654,2.562,2.5505,2.5428,2.539,2.5303,2.5341,2.539,2.539,2.5468,2.5522,2.5586,2.6016,2.625,2.6289,2.6239,2.6654,2.7476,2.7468,2.7906,2.8683,2.9042,2.939,2.9813,3.0237,3.0429,3.0518,3.0579,3.0394,3.0089,3.0164,3.0234,3.0234,3.0234,3.0487,3.0813,3.0892,3.1133,3.1523,3.2031,3.3047,3.4101,3.457,3.5312,3.6016,3.6016,3.5976,3.5933,3.5911,3.6123,3.6444,3.6738,3.7084,3.77,3.9008,3.9623,4.0008,4.0431,4.0508,4.0438,4.0321,4.0042,3.9731,3.9389,3.9435,3.9564,3.9858,4.023,4.0781,4.1589,4.2396,4.3057,4.3461,4.3497,4.3664,4.3967,4.4373,4.4751,4.5115,4.5496,4.5757,4.5796,4.581,4.6147,4.6744,4.7679,4.8255,4.8536,4.9821,5.051,5.0702,5.0702,5.1395,5.2549,5.301,5.3933,5.5126,5.5549,5.5703,5.5703,5.5703,5.6496,5.7739,2.537,2.5418,2.5437,2.5515,2.5543,2.5611,2.5614,2.5652,2.5703,2.5693,2.5691,2.5691,2.5691,2.5611,2.5505,2.5428,2.539,2.5351,2.5303,2.5303,2.5303,2.539,2.5534,2.5677,2.5805,2.6634,2.7069,2.6992,2.7148,2.7656,2.8437,2.8437,2.886,2.9628,2.952,2.9834,3.0506,3.0467,3.0467,3.0529,3.0591,3.0676,3.0741,3.0877,3.0898,3.0898,3.0898,3.0808,3.0739,3.0988,3.1478,3.207,3.2461,3.3555,3.4726,3.4883,3.543,3.6016,3.6016,3.6016,3.6016,3.6133,3.6663,3.7216,3.7343,3.7815,3.8469,3.9315,4.0046,4.0508,4.0508,4.0508,4.0508,4.0508,4.0286,4.004,3.9921,4.0215,4.0402,4.0388,4.1034,4.1772,4.2433,4.3094,4.3497,4.3497,4.3497,4.3631,4.3912,4.4346,4.4726,4.4988,4.54,4.5624,4.5757,4.5911,4.6394,4.7183,4.8296,4.8788,4.8732,5.0345,5.0952,5.0702,5.0702,5.1664,5.3203,5.3203,5.4203,5.5703,5.5703,5.5703,5.5742,5.6011,5.6841,5.7958,2.5466,2.5476,2.5499,2.5582,2.5582,2.5608,2.5683,2.5702,2.5685,2.5615,2.5605,2.5577,2.5529,2.5476,2.5428,2.539,2.5341,2.5303,2.5303,2.5303,2.5303,2.5303,2.611,2.6525,2.6553,2.7459,2.7612,2.6992,2.7734,2.8555,2.9414,2.9414,2.9804,3.0506,3.0502,3.0486,3.0506,3.0544,3.0583,3.0583,3.0667,3.0761,3.0852,3.0898,3.0898,3.0898,3.0898,3.0808,3.0814,3.1607,3.1929,3.2266,3.3789,3.4453,3.4844,3.5586,3.5898,3.6016,3.6016,3.6016,3.6172,3.6914,3.7146,3.757,3.8994,3.9283,3.9407,4.0177,4.0431,4.0508,4.0508,4.0508,4.0508,4.0508,4.0286,4.0329,4.0995,4.095,4.1217,4.2284,4.2848,4.3204,4.3314,4.3424,4.3497,4.3497,4.3497,4.3532,4.3563,4.4242,4.4624,4.4676,4.5263,4.5586,4.5624,4.6355,4.6855,4.7048,4.869,4.9478,4.9468,5.0471,5.0837,5.0702,5.0702,5.1664,5.3203,5.3203,5.4203,5.5703,5.5703,5.5703,5.5895,5.7396,5.8221,5.8711,2.5534,2.5558,2.5589,2.5649,2.5667,2.5646,2.5658,2.5657,2.5601,2.555,2.555,2.5552,2.5492,2.5455,2.539,2.5341,2.5303,2.5303,2.5303,2.5303,2.5534,2.6005,2.6418,2.6879,2.7407,2.8261,2.859,2.8275,2.8732,2.9453,3.0312,3.0312,3.0508,3.082,3.0742,3.0652,3.0598,3.0598,3.0621,3.066,3.0698,3.0768,3.0898,3.0898,3.0898,3.0897,3.0813,3.1057,3.1429,3.1814,3.2529,3.3427,3.4329,3.4961,3.5469,3.5898,3.6016,3.6016,3.6016,3.6016,3.6211,3.707,3.7656,3.8278,3.9452,4.0012,4.0361,4.0562,4.06,4.06,4.0508,4.0508,4.0662,4.1162,4.1119,4.1282,4.1914,4.2324,4.2772,4.3415,4.3658,4.3693,4.3532,4.3497,4.3497,4.3497,4.3497,4.3497,4.3497,4.4213,4.4599,4.4599,4.5243,4.5586,4.5586,4.6471,4.7163,4.7625,4.8894,4.9548,4.9644,5.051,5.0837,5.0741,5.1164,5.2087,5.3241,5.3741,5.4626,5.5703,5.5703,5.6011,5.6588,5.7857,5.8688,5.9216]},{"header":{"parameterUnit":"m.s-1","parameterCategory":1,"la1":30.6,"la2":28.766,"lo1":-90.7593,"lo2":-88.6598,"dx":0.0162,"dy":0.0183,"nx":116,"ny":114,"refTime":"2023-01-05T18:00:00:Z","depth":0,"parameterNumber":3,"parameterNumberName":"V-component_of_WINDS"},"data":[0.0,0.0,0.0,0.0,0.0,0.0,0.0,0.0,0.0,0.0,0.0,0.0,0.0,0.0,0.0,0.0,0.0,0.0,0.0,0.0,0.0,0.0,0.0,0.0,0.0,0.0,0.0,0.0,0.0,0.0,0.0,0.0,0.0,0.0,0.0,0.0,0.0,0.0,0.0,0.0,0.0,0.0,0.0,0.0,0.0,0.0,0.0,0.0,0.0,0.0,0.0,0.0,0.0,0.0,0.0,0.0,0.0,0.0,0.0,0.0,0.0,0.0,0.0,0.0,0.0,0.0,0.0,0.0,0.0,0.0,0.0,0.0,0.0,0.0,0.0,0.0,0.0,0.0,0.0,0.0,0.0,0.0,0.0,0.0,0.0,0.0,0.0,0.0,0.0,0.0,0.0,0.0,0.0,0.0,0.0,0.0,0.0,0.0,0.0,0.0,0.0,0.0,0.0,0.0,0.0,0.0,0.0,0.0,0.0,0.0,0.0,0.0,0.0,0.0,0.0,0.0,0.0,0.0,0.0,0.0,0.0,0.0,0.0,0.0,0.0,0.0,0.0,0.0,0.0,0.0,0.0,0.0,0.0,0.0,0.0,0.0,0.0,0.0,0.0,0.0,0.0,0.0,0.0,0.0,0.0,0.0,0.0,0.0,0.0,0.0,0.0,0.0,0.0,0.0,0.0,0.0,0.0,0.0,0.0,0.0,0.0,0.0,0.0,0.0,0.0,0.0,0.0,0.0,0.0,0.0,0.0,0.0,0.0,0.0,0.0,0.0,0.0,0.0,0.0,0.0,0.0,0.0,0.0,0.0,0.0,0.0,0.0,0.0,0.0,0.0,0.0,0.0,0.0,0.0,0.0,0.0,0.0,0.0,0.0,0.0,0.0,0.0,0.0,0.0,0.0,0.0,0.0,0.0,0.0,0.0,0.0,0.0,0.0,0.0,0.0,0.0,0.0,0.0,0.0,0.0,0.0,0.0,0.0,0.0,0.0,0.0,0.0,0.0,0.0,0.0,0.0,0.0,0.0,0.0,0.0,0.0,0.0,0.0,0.0,0.0,0.0,0.0,0.0,0.0,0.0,0.0,0.0,0.0,0.0,0.0,0.0,0.0,0.0,0.0,0.0,0.0,0.0,0.0,0.0,0.0,0.0,0.0,0.0,0.0,0.0,0.0,0.0,0.0,0.0,0.0,0.0,0.0,0.0,0.0,0.0,0.0,0.0,0.0,0.0,0.0,0.0,0.0,0.0,0.0,0.0,0.0,0.0,0.0,0.0,0.0,0.0,0.0,0.0,0.0,0.0,0.0,0.0,0.0,0.0,0.0,0.0,0.0,0.0,0.0,0.0,0.0,0.0,0.0,0.0,0.0,0.0,0.0,0.0,0.0,0.0,0.0,0.0,0.0,0.0,0.0,0.0,0.0,0.0,0.0,0.0,0.0,0.0,0.0,0.0,0.0,0.0,0.0,0.0,0.0,0.0,0.0,0.0,0.0,0.0,0.0,0.0,0.0,0.0,0.0,0.0,0.0,0.0,0.0,0.0,0.0,0.0,0.0,0.0,0.0,0.0,0.0,0.0,0.0,0.0,0.0,0.0,0.0,0.0,0.0,0.0,0.0,0.0,0.0,0.0,0.0,0.0,0.0,0.0,0.0,0.0,0.0,0.0,0.0,0.0,0.0,0.0,0.0,0.0,0.0,0.0,0.0,0.0,0.0,0.0,0.0,0.0,0.0,0.0,0.0,0.0,0.0,0.0,0.0,0.0,0.0,0.0,0.0,0.0,0.0,0.0,0.0,0.0,0.0,0.0,0.0,0.0,0.0,0.0,0.0,0.0,0.0,0.0,0.0,0.0,0.0,0.0,0.0,0.0,0.0,0.0,0.0,0.0,0.0,0.0,0.0,0.0,0.0,0.0,0.0,0.0,0.0,0.0,0.0,0.0,0.0,0.0,0.0,0.0,0.0,0.0,0.0,0.0,0.0,0.0,0.0,0.0,0.0,0.0,0.0,0.0,0.0,0.0,0.0,0.0,0.0,0.0,0.0,0.0,0.0,0.0,0.0,0.0,0.0,0.0,0.0,0.0,0.0,0.0,0.0,0.0,0.0,0.0,0.0,0.0,0.0,0.0,0.0,0.0,0.0,0.0,0.0,0.0,0.0,0.0,0.0,0.0,0.0,0.0,0.0,0.0,0.0,0.0,0.0,0.0,0.0,0.0,0.0,0.0,0.0,0.0,0.0,0.0,0.0,0.0,0.0,0.0,0.0,0.0,0.0,0.0,0.0,0.0,0.0,0.0,0.0,0.0,0.0,0.0,0.0,0.0,0.0,0.0,0.0,0.0,0.0,0.0,0.0,0.0,0.0,0.0,0.0,0.0,0.0,0.0,0.0,0.0,0.0,0.0,0.0,0.0,0.0,0.0,0.0,0.0,0.0,0.0,0.0,0.0,0.0,0.0,0.0,0.0,0.0,0.0,0.0,0.0,0.0,0.0,0.0,0.0,0.0,0.0,0.0,0.0,0.0,0.0,0.0,0.0,0.0,0.0,0.0,0.0,0.0,0.0,0.0,0.0,0.0,0.0,0.0,0.0,0.0,0.0,0.0,0.0,0.0,0.0,0.0,0.0,0.0,0.0,0.0,0.0,0.0,0.0,0.0,0.0,0.0,0.0,0.0,0.0,0.0,0.0,0.0,0.0,0.0,0.0,0.0,0.0,0.0,0.0,0.0,0.0,0.0,0.0,0.0,0.0,0.0,0.0,0.0,0.0,0.0,0.0,0.0,0.0,0.0,0.0,0.0,0.0,0.0,0.0,0.0,0.0,0.0,0.0,0.0,0.0,0.0,0.0,0.0,0.0,0.0,0.0,0.0,0.0,0.0,0.0,0.0,0.0,0.0,0.0,0.0,0.0,0.0,0.0,0.0,0.0,0.0,0.0,0.0,0.0,0.0,0.0,0.0,0.0,0.0,0.0,0.0,0.0,0.0,0.0,0.0,0.0,0.0,0.0,0.0,0.0,0.0,0.0,0.0,0.0,0.0,0.0,0.0,0.0,0.0,0.0,0.0,0.0,0.0,0.0,0.0,0.0,0.0,0.0,0.0,0.0,0.0,0.0,0.0,0.0,0.0,0.0,0.0,0.0,0.0,0.0,0.0,0.0,0.0,0.0,0.0,0.0,0.0,0.0,0.0,0.0,0.0,0.0,0.0,0.0,0.0,0.0,0.0,0.0,0.0,0.0,0.0,0.0,0.0,0.0,0.0,0.0,0.0,0.0,0.0,0.0,0.0,0.0,0.0,0.0,0.0,0.0,0.0,0.0,0.0,0.0,0.0,0.0,0.0,0.0,0.0,0.0,0.0,0.0,0.0,0.0,0.0,0.0,0.0,0.0,0.0,0.0,0.0,0.0,0.0,0.0,0.0,0.0,0.0,0.0,0.0,0.0,0.0,0.0,0.0,0.0,0.0,0.0,0.0,0.0,0.0,0.0,0.0,0.0,0.0,0.0,0.0,0.0,0.0,0.0,0.0,0.0,0.0,0.0,0.0,0.0,0.0,0.0,0.0,0.0,0.0,0.0,0.0,0.0,0.0,0.0,0.0,0.0,0.0,0.0,0.0,0.0,0.0,0.0,0.0,0.0,0.0,0.0,0.0,0.0,0.0,0.0,0.0,0.0,0.0,0.0,0.0,0.0,0.0,0.0,0.0,0.0,0.0,0.0,0.0,0.0,0.0,0.0,0.0,0.0,0.0,0.0,0.0,0.0,0.0,0.0,0.0,0.0,0.0,0.0,0.0,0.0,0.0,0.0,0.0,0.0,0.0,0.0,0.0,0.0,0.0,0.0,0.0,0.0,0.0,0.0,0.0,0.0,0.0,0.0,0.0,0.0,0.0,0.0,0.0,0.0,0.0,0.0,0.0,0.0,0.0,0.0,0.0,0.0,0.0,0.0,0.0,0.0,0.0,0.0,0.0,0.0,0.0,0.0,0.0,0.0,0.0,0.0,0.0,0.0,0.0,0.0,0.0,0.0,0.0,0.0,0.0,0.0,0.0,0.0,0.0,0.0,0.0,0.0,0.0,0.0,0.0,0.0,0.0,0.0,0.0,0.0,0.0,0.0,0.0,0.0,0.0,0.0,0.0,0.0,0.0,0.0,0.0,0.0,0.0,0.0,0.0,0.0,0.0,0.0,0.0,0.0,0.0,0.0,0.0,0.0,0.0,0.0,0.0,0.0,0.0,0.0,0.0,0.0,0.0,0.0,0.0,0.0,0.0,0.0,0.0,0.0,0.0,0.0,0.0,0.0,0.0,0.0,0.0,0.0,0.0,0.0,0.0,0.0,0.0,0.0,0.0,0.0,0.0,0.0,0.0,0.0,0.0,0.0,0.0,0.0,0.0,0.0,0.0,0.0,0.0,0.0,0.0,0.0,0.0,0.0,0.0,0.0,0.0,0.0,0.0,0.0,0.0,0.0,0.0,0.0,0.0,0.0,0.0,0.0,0.0,0.0,0.0,0.0,0.0,0.0,0.0,0.0,0.0,0.0,0.0,0.0,0.0,0.0,0.0,0.0,0.0,0.0,0.0,0.0,0.0,0.0,0.0,0.0,0.0,0.0,0.0,0.0,0.0,0.0,0.0,0.0,0.0,0.0,0.0,0.0,0.0,0.0,0.0,0.0,0.0,0.0,0.0,0.0,0.0,0.0,0.0,0.0,0.0,0.0,0.0,0.0,0.0,0.0,0.0,0.0,0.0,0.0,0.0,0.0,0.0,0.0,0.0,0.0,0.0,0.0,0.0,0.0,0.0,0.0,0.0,0.0,0.0,0.0,0.0,0.0,0.0,0.0,0.0,0.0,0.0,0.0,0.0,0.0,0.0,0.0,0.0,0.0,0.0,0.0,0.0,0.0,0.0,0.0,0.0,0.0,0.0,0.0,0.0,0.0,0.0,0.0,0.0,0.0,0.0,0.0,0.0,0.0,0.0,0.0,0.0,0.0,0.0,0.0,0.0,0.0,0.0,0.0,0.0,0.0,0.0,0.0,0.0,0.0,0.0,0.0,0.0,0.0,0.0,0.0,0.0,0.0,0.0,0.0,0.0,0.0,0.0,0.0,0.0,0.0,0.0,0.0,0.0,0.0,0.0,0.0,0.0,0.0,0.0,0.0,0.0,0.0,0.0,0.0,0.0,0.0,0.0,0.0,0.0,0.0,0.0,0.0,0.0,0.0,0.0,0.0,0.0,0.0,0.0,0.0,0.0,0.0,0.0,0.0,0.0,0.0,0.0,0.0,0.0,0.0,0.0,0.0,0.0,0.0,0.0,0.0,0.0,0.0,0.0,0.0,0.0,0.0,0.0,0.0,0.0,0.0,0.0,0.0,0.0,0.0,0.0,0.0,0.0,0.0,0.0,0.0,0.0,0.0,0.0,0.0,0.0,0.0,0.0,0.0,0.0,0.0,0.0,0.0,0.0,0.0,0.0,0.0,0.0,0.0,0.0,0.0,0.0,0.0,0.0,0.0,0.0,0.0,0.0,0.0,0.0,0.0,0.0,0.0,0.0,0.0,0.0,0.0,0.0,0.0,0.0,0.0,0.0,0.0,0.0,0.0,0.0,0.0,0.0,0.0,0.0,0.0,0.0,0.0,0.0,0.0,0.0,0.0,0.0,0.0,0.0,0.0,0.0,0.0,0.0,0.0,0.0,0.0,0.0,0.0,0.0,0.0,0.0,0.0,0.0,0.0,0.0,0.0,0.0,0.0,0.0,0.0,0.0,0.0,0.0,0.0,0.0,0.0,0.0,0.0,0.0,0.0,0.0,0.0,0.0,0.0,0.0,0.0,0.0,0.0,0.0,0.0,0.0,0.0,0.0,0.0,0.0,0.0,0.0,0.0,0.0,0.0,0.0,0.0,0.0,0.0,0.0,0.0,0.0,0.0,0.0,0.0,0.0,0.0,0.0,0.0,0.0,0.0,0.0,0.0,0.0,0.0,0.0,0.0,0.0,0.0,0.0,0.0,0.0,0.0,0.0,0.0,0.0,0.0,0.0,0.0,0.0,0.0,0.0,0.0,0.0,0.0,0.0,0.0,0.0,0.0,0.0,0.0,0.0,0.0,0.0,-2.3586,-2.2502,0.0,0.0,0.0,0.0,0.0,0.0,0.0,0.0,0.0,0.0,0.0,0.0,0.0,0.0,0.0,0.0,0.0,0.0,0.0,0.0,0.0,0.0,0.0,-1.4097,-1.4425,-1.523,-1.5054,0.0,0.0,0.0,0.0,0.0,0.0,0.0,0.0,0.0,-1.2102,-1.2379,-1.2102,-1.2253,-1.2772,-1.2755,-1.2605,-1.2379,0.0,0.0,0.0,0.0,0.0,0.0,0.0,0.0,0.0,0.0,0.0,0.0,0.0,0.0,0.0,0.0,0.0,0.0,0.0,0.0,0.0,0.0,0.0,0.0,0.0,0.0,0.0,0.0,0.0,0.0,0.0,0.0,0.0,0.0,0.0,0.0,0.0,0.0,0.0,0.0,0.0,0.0,0.0,0.0,0.0,0.0,0.0,0.0,0.0,0.0,0.0,0.0,0.0,0.0,0.0,0.0,0.0,0.0,0.0,0.0,0.0,0.0,0.0,0.0,0.0,0.0,0.0,0.0,0.0,0.0,-2.5409,-2.4751,0.0,0.0,0.0,0.0,0.0,0.0,0.0,0.0,0.0,0.0,0.0,0.0,0.0,0.0,0.0,0.0,0.0,0.0,0.0,0.0,0.0,-1.2789,-1.4097,-1.4223,-1.4676,-1.5743,-1.5417,-1.5155,-1.5054,-1.4551,0.0,0.0,0.0,0.0,-1.3198,-1.2881,-1.2906,-1.3348,-1.3069,-1.3198,-1.3742,-1.4709,-1.4698,-1.3874,-1.3182,0.0,0.0,0.0,0.0,0.0,0.0,0.0,0.0,0.0,0.0,0.0,0.0,0.0,0.0,0.0,0.0,0.0,0.0,0.0,0.0,0.0,0.0,0.0,0.0,0.0,0.0,0.0,0.0,0.0,0.0,0.0,0.0,0.0,0.0,0.0,0.0,0.0,0.0,0.0,0.0,0.0,0.0,0.0,0.0,0.0,0.0,0.0,0.0,0.0,0.0,0.0,0.0,0.0,0.0,0.0,0.0,0.0,0.0,0.0,0.0,0.0,0.0,0.0,-2.7194,-2.7435,-2.801,-2.8749,-2.9193,-2.9283,-2.7334,-2.7366,-2.8592,-2.6189,0.0,0.0,0.0,0.0,0.0,0.0,0.0,0.0,0.0,0.0,0.0,0.0,0.0,0.0,0.0,0.0,0.0,0.0,0.0,-1.2537,-1.4588,-1.4802,-1.5255,-1.6321,-1.6346,-1.6095,-1.5618,-1.5104,0.0,0.0,0.0,0.0,-1.3198,-1.3634,-1.3896,-1.3972,-1.4687,-1.5298,-1.5909,-1.6051,-1.6369,-1.6773,-1.5241,-1.4576,-1.4525,0.0,0.0,0.0,0.0,0.0,0.0,0.0,0.0,0.0,0.0,0.0,0.0,0.0,0.0,0.0,0.0,0.0,0.0,0.0,0.0,0.0,0.0,0.0,0.0,0.0,0.0,0.0,0.0,0.0,0.0,0.0,0.0,0.0,0.0,0.0,0.0,0.0,0.0,0.0,0.0,0.0,-2.1255,-2.2468,0.0,0.0,0.0,0.0,0.0,0.0,0.0,0.0,0.0,0.0,0.0,0.0,0.0,-2.4864,-2.6158,-2.6586,-2.7474,-2.8749,-2.8721,-2.8721,-2.8859,-2.9248,-2.9831,-3.0488,-3.0232,0.0,-3.0463,-2.9316,0.0,0.0,0.0,0.0,0.0,0.0,0.0,0.0,0.0,0.0,0.0,0.0,0.0,0.0,0.0,0.0,0.0,0.0,0.0,0.0,0.0,-1.4983,-1.5643,-1.6446,-1.6522,-1.6296,-1.5743,-1.5205,0.0,0.0,0.0,-1.3348,-1.3684,-1.3619,-1.3814,-1.4327,-1.5398,-1.601,-1.6158,-1.6547,-1.6932,-1.7192,-1.6871,-1.6396,-1.5743,-1.4965,0.0,0.0,0.0,0.0,0.0,0.0,0.0,0.0,0.0,0.0,0.0,0.0,0.0,0.0,0.0,0.0,0.0,0.0,0.0,0.0,0.0,0.0,0.0,0.0,0.0,0.0,0.0,0.0,0.0,0.0,0.0,0.0,0.0,0.0,0.0,0.0,0.0,0.0,0.0,-2.1714,-2.2857,-2.4098,-2.342,-2.3189,0.0,0.0,0.0,0.0,0.0,0.0,0.0,0.0,0.0,-2.3187,-2.4371,-2.5393,-2.6278,-2.7212,-2.8339,-2.96,-2.96,-2.9837,-3.0247,-3.0623,-3.0975,-3.1359,-3.1903,-3.2408,-3.2697,-3.0528,-2.9383,-2.8969,0.0,0.0,0.0,0.0,-2.6516,-2.6345,0.0,0.0,0.0,0.0,0.0,0.0,0.0,0.0,0.0,0.0,0.0,0.0,-1.4165,-1.5258,-1.6145,-1.6697,-1.6873,-1.6773,-1.6371,-1.5542,-1.4928,-1.4525,-1.3684,-1.3483,-1.4072,-1.3828,-1.4094,-1.4868,-1.5717,-1.6137,-1.6142,-1.6689,-1.7148,-1.7499,-1.8093,-1.779,-1.6923,-1.6371,-1.5532,-1.445,0.0,0.0,0.0,0.0,0.0,0.0,0.0,0.0,0.0,0.0,0.0,0.0,0.0,0.0,0.0,0.0,0.0,0.0,0.0,0.0,0.0,0.0,0.0,0.0,0.0,0.0,0.0,0.0,0.0,0.0,0.0,0.0,0.0,0.0,0.0,0.0,0.0,-2.2725,-2.385,-2.507,-2.4319,-2.394,0.0,0.0,0.0,0.0,0.0,0.0,-2.4006,-2.4006,-2.4109,-2.4292,-2.529,-2.6227,-2.7066,-2.8096,-2.9221,-3.0378,-3.0378,-3.0683,-3.119,-3.1507,-3.1763,-3.1972,-3.2818,-3.3673,-3.4339,-3.1981,-3.1038,-3.0939,-2.9726,-2.9124,-2.904,-2.9323,-2.9443,-2.9551,0.0,0.0,0.0,0.0,0.0,0.0,0.0,0.0,0.0,0.0,0.0,-1.3179,-1.4612,-1.5807,-1.6697,-1.7275,-1.7827,-1.8103,-1.8078,-1.6547,-1.5643,-1.5618,-1.4086,-1.3483,-1.4072,-1.4869,-1.5499,-1.5936,-1.5765,-1.598,-1.6476,-1.6532,-1.7291,-1.8643,-1.8643,-1.8505,-1.8078,-1.7526,-1.6647,-1.5567,-1.5054,0.0,0.0,0.0,0.0,0.0,0.0,0.0,0.0,0.0,0.0,0.0,0.0,0.0,0.0,0.0,0.0,0.0,0.0,0.0,0.0,0.0,0.0,0.0,0.0,0.0,0.0,0.0,0.0,0.0,0.0,0.0,0.0,0.0,0.0,0.0,0.0,0.0,0.0,-2.4431,-2.3994,0.0,0.0,0.0,0.0,-2.4307,-2.4792,-2.5105,-2.5144,-2.5144,-2.5431,-2.6134,-2.671,-2.7701,-2.9131,-2.9738,-3.0374,-3.1123,-3.1123,-3.1157,-3.119,-3.123,-3.1602,-3.2286,-3.28,-3.3666,-3.4764,-3.4745,-3.4734,-3.4706,-3.4286,-3.3822,-3.3456,-3.3837,-3.3942,-3.399,0.0,0.0,0.0,-1.0257,-0.9774,-0.959,-0.998,-0.9941,-1.0095,-1.0724,-1.1836,-1.2804,-1.363,-1.5353,-1.6636,-1.7146,-1.7842,-1.8053,-1.7702,-1.6446,-1.5693,-1.5693,-1.4463,-1.4187,-1.5035,-1.5671,-1.5953,-1.5945,-1.5762,-1.571,-1.5816,-1.6255,-1.6765,-1.7302,-1.8286,-1.863,-1.8503,-1.8461,-1.8003,-1.725,-1.6697,-1.5819,0.0,0.0,0.0,0.0,0.0,0.0,0.0,0.0,0.0,0.0,0.0,0.0,0.0,0.0,0.0,0.0,0.0,0.0,0.0,0.0,0.0,0.0,0.0,0.0,0.0,0.0,0.0,0.0,0.0,0.0,0.0,0.0,0.0,0.0,0.0,0.0,0.0,-2.4382,-2.4384,0.0,-2.5179,-2.5924,-2.6231,-2.5765,-2.6281,-2.6607,-2.6607,-2.6607,-2.6736,-2.7033,-2.7607,-2.838,-2.9303,-2.9921,-3.053,-3.119,-3.119,-3.119,-3.1224,-3.1664,-3.2036,-3.2347,-3.3309,-3.4396,-3.5616,-3.5948,-3.5964,-3.5797,-3.5711,-3.5653,-3.5614,-3.5605,-3.6196,-3.6894,0.0,0.0,0.0,-0.9456,-0.9281,-0.9414,-0.998,-1.0059,-1.0215,-1.0704,-1.1859,-1.291,-1.3474,-1.5216,-1.6596,-1.7333,-1.7969,-1.8338,-1.8229,-1.6974,-1.6271,-1.6271,-1.523,-1.5032,-1.5884,-1.6359,-1.6436,-1.6203,-1.6048,-1.5741,-1.541,-1.5931,-1.6255,-1.6539,-1.7523,-1.8232,-1.8691,-1.8848,-1.871,-1.8455,-1.8078,-1.7275,-1.6195,0.0,0.0,0.0,0.0,0.0,0.0,0.0,0.0,0.0,0.0,0.0,0.0,0.0,0.0,0.0,0.0,0.0,0.0,0.0,0.0,0.0,0.0,0.0,0.0,0.0,0.0,0.0,0.0,0.0,0.0,0.0,0.0,0.0,0.0,-2.2893,-2.3416,-2.4669,-2.4733,-2.4982,-2.5836,-2.6856,-2.7243,-2.6816,-2.7501,-2.7945,-2.7945,-2.7945,-2.8043,-2.8305,-2.8723,-2.928,-2.9942,-3.0368,-3.0797,-3.119,-3.119,-3.1269,-3.1428,-3.1905,-3.2496,-3.321,-3.3963,-3.5183,-3.6649,-3.6964,-3.7112,-3.711,-3.711,-3.7267,-3.7527,-3.7618,-3.8271,-3.9002,0.0,0.0,-0.9456,-0.9102,-0.932,-0.9592,-0.9612,-1.0371,-1.1055,-1.1528,-1.245,-1.3432,-1.4307,-1.5437,-1.6655,-1.7804,-1.8377,-1.898,-1.9709,-1.8254,-1.7375,-1.7325,-1.6321,-1.5994,-1.6547,-1.6952,-1.7031,-1.6863,-1.6642,-1.614,-1.541,-1.541,-1.5758,-1.6482,-1.6482,-1.7302,-1.8661,-1.8715,-1.8818,-1.9008,-1.9008,-1.8405,-1.742,0.0,0.0,0.0,0.0,0.0,0.0,0.0,0.0,0.0,0.0,0.0,0.0,0.0,0.0,0.0,0.0,0.0,0.0,0.0,0.0,0.0,0.0,0.0,0.0,0.0,0.0,0.0,0.0,0.0,0.0,0.0,0.0,0.0,-2.3594,-2.3599,-2.4149,-2.5329,-2.5029,-2.5196,-2.6482,-2.7047,-2.7358,-2.7358,-2.8428,-2.9059,-2.9096,-2.9096,-2.9397,-3.0108,-3.0142,-3.048,-3.123,-3.123,-3.123,-3.123,-3.123,-3.1432,-3.1808,-3.1877,-3.2966,-3.4801,-3.4836,-3.6042,-3.7893,-3.7893,-3.8234,-3.8726,-3.8726,-3.8892,-3.9229,-4.0021,-4.0291,-4.0448,-0.9612,-0.9359,-0.9238,-0.9398,-0.9515,-0.9709,-1.0059,-1.0566,-1.0957,-1.1074,-1.2193,-1.3182,-1.3671,-1.507,-1.647,-1.7603,-1.83,-1.8666,-1.8632,-1.7852,-1.7024,-1.6195,-1.6647,-1.7174,-1.7727,-1.7702,-1.7824,-1.8183,-1.7014,-1.6368,-1.6197,-1.5642,-1.5526,-1.5758,-1.6255,-1.7024,-1.7961,-1.8447,-1.9064,-1.9585,-1.9585,-1.9455,-1.9211,0.0,0.0,0.0,0.0,0.0,0.0,0.0,0.0,0.0,0.0,0.0,0.0,0.0,0.0,0.0,0.0,0.0,0.0,0.0,0.0,0.0,0.0,0.0,0.0,0.0,0.0,0.0,0.0,0.0,0.0,0.0,-2.42,-2.4925,-2.4237,-2.4958,-2.5561,-2.5423,-2.6168,-2.6672,-2.6591,-2.7533,-2.8338,-2.8786,-2.9517,-3.0156,-3.0581,-3.0581,-3.0683,-3.0886,-3.0886,-3.1147,-3.1623,-3.1623,-3.1806,-3.2162,-3.2162,-3.2231,-3.2334,-3.3495,-3.427,-3.4872,-3.6004,-3.7077,-3.7893,-3.7893,-3.8561,-3.9496,-3.8946,-3.9224,-3.9956,-3.9993,-4.0756,-4.1894,-0.9631,-0.9398,-0.9265,-0.9243,-0.9446,-0.9674,-0.9943,-1.0659,-1.1172,-1.1172,-1.2324,-1.3301,-1.373,-1.4787,-1.5925,-1.7036,-1.7797,-1.8201,-1.8069,-1.7887,-1.7325,-1.6446,-1.725,-1.7978,-1.853,-1.8437,-1.8473,-1.8715,-1.7523,-1.6821,-1.6482,-1.5758,-1.541,-1.541,-1.5874,-1.6425,-1.7191,-1.7961,-1.8661,-1.9371,-1.9683,-2.0015,-2.0289,-1.9681,-1.9683,-1.9878,-1.9248,-1.882,-1.8669,-1.9135,0.0,0.0,0.0,0.0,0.0,0.0,0.0,0.0,0.0,0.0,0.0,0.0,0.0,0.0,0.0,0.0,0.0,0.0,0.0,0.0,0.0,0.0,0.0,0.0,-2.4793,-2.58,-2.5633,-2.6309,-2.6741,-2.6682,-2.7172,-2.7489,-2.74,-2.8056,-2.8748,-2.9361,-2.9935,-3.0559,-3.1151,-3.119,-3.119,-3.119,-3.1351,-3.1582,-3.1771,-3.1986,-3.223,-3.2466,-3.2466,-3.2776,-3.3327,-3.422,-3.5106,-3.5987,-3.6926,-3.7675,-3.8234,-3.8234,-3.8871,-3.9827,0.0,0.0,0.0,0.0,-4.1699,-4.2907,-0.9748,-0.9631,-0.9466,-0.8984,-0.9357,-0.9715,-0.9567,-1.078,-1.1685,-1.1685,-1.2773,-1.3711,-1.4048,-1.457,-1.5319,-1.6321,-1.7169,-1.7756,-1.8029,-1.8092,-1.7928,-1.7501,-1.8003,-1.853,-1.8958,-1.9033,-1.9031,-1.8821,-1.807,-1.7413,-1.6708,-1.5911,-1.5526,-1.5526,-1.541,-1.5816,-1.6539,-1.7191,-1.7961,-1.8768,-1.9423,-2.0144,-2.0743,-2.0439,-2.0677,-2.123,-2.1451,-2.1114,-2.075,-2.1842,0.0,0.0,0.0,0.0,0.0,0.0,0.0,0.0,0.0,0.0,0.0,0.0,0.0,0.0,0.0,0.0,0.0,0.0,0.0,0.0,0.0,0.0,0.0,0.0,-2.5895,-2.6881,-2.7451,-2.7704,-2.8003,-2.8415,-2.8107,-2.8029,-2.8544,-2.8544,-2.8748,-2.9451,-2.9913,-3.0493,-3.1151,-3.119,0.0,0.0,0.0,-3.188,-3.1987,-3.2433,-3.2695,-3.2755,-3.2755,-3.3373,-3.457,-3.4643,-3.5762,-3.7624,-3.7698,-3.814,-3.881,-3.878,-3.9234,-4.0047,-4.012,-4.0598,-4.1332,-4.2139,-4.2873,-4.3497,-1.0176,-0.9883,-0.9542,-0.9385,-1.0073,-1.0481,-1.0063,-1.1173,-1.2109,-1.2109,-1.3173,-1.399,-1.4068,-1.4824,-1.5462,-1.5993,-1.6972,-1.7917,-1.8734,-1.7984,-1.7702,-1.8028,-1.8581,-1.8858,-1.8983,-1.9434,-1.9634,-1.9579,-1.8874,-1.8394,-1.8232,-1.6912,-1.6255,-1.6255,-1.57,-1.5816,-1.6482,-1.6652,-1.7468,-1.8715,-1.8874,-1.9658,-2.0898,-2.1839,-2.2608,-2.3234,-2.3799,-2.3914,-2.3837,-2.3969,-2.3631,-2.323,-2.3797,-2.3524,0.0,0.0,0.0,0.0,0.0,0.0,0.0,0.0,0.0,0.0,0.0,0.0,0.0,0.0,0.0,0.0,0.0,0.0,0.0,-2.6725,-2.7915,-2.8779,-2.8911,-2.9802,-3.0116,-2.9173,-2.9466,-2.9599,-2.9271,-2.8717,-2.8842,-3.0031,-2.9708,-2.9928,-3.1117,-3.119,-3.1351,-3.166,-3.1735,-3.2262,-3.3219,-3.334,-3.3666,-3.4255,-3.4255,0.0,-3.5627,-3.6279,-3.7188,-3.8249,-3.8925,-3.9276,-3.9402,-3.9144,-3.9764,-4.0928,-4.1589,-4.1919,-4.2176,-4.2947,-4.3351,-4.3497,-1.092,-1.041,-0.981,-0.9377,-0.992,-1.0288,-0.997,-1.0904,-1.1836,-1.218,-1.3114,-1.3828,-1.3828,-1.4394,-1.4854,-1.4996,-1.5595,-1.6638,-1.8044,-1.7627,-1.7721,-1.8532,-1.9133,-1.9409,-1.9409,-1.966,-1.9811,-1.9811,-1.9032,-1.8715,-1.8661,-1.7191,-1.6482,-1.6482,-1.5758,-1.5584,-1.5968,-1.6312,-1.6933,-1.7688,-1.8394,-1.9308,-2.0318,-2.1637,-2.2992,-2.4192,-2.4875,-2.5101,-2.5198,-2.5466,-2.5159,-2.4717,-2.4993,-2.4621,-2.4059,0.0,0.0,0.0,0.0,0.0,0.0,0.0,0.0,0.0,0.0,0.0,0.0,0.0,0.0,-2.6037,-2.6377,0.0,-2.7474,-2.7827,-2.8715,-2.9435,-2.9758,-3.0603,-3.0943,-3.0262,-3.0245,-3.0149,-2.9892,-2.9263,-2.9242,-3.0234,-2.9947,-3.0161,-3.1117,-3.1389,-3.1585,-3.1771,-3.2396,-3.2985,-3.3587,-3.3981,-3.436,-3.4713,-3.4713,-3.5317,-3.6507,-3.6923,-3.7791,-3.9014,-3.9429,-3.958,-3.9632,-4.0147,-4.0977,-4.202,-4.2643,-4.291,-4.2947,-4.3351,-4.3497,-4.3497,-1.1528,-1.1038,-1.0302,-0.9563,-0.9857,-1.0127,-1.0018,-1.0766,-1.1553,-1.225,-1.3027,-1.3516,-1.3516,-1.3809,-1.4057,-1.4162,-1.4154,-1.5023,-1.7116,-1.7289,-1.7775,-1.8883,-1.9483,-1.9811,-1.9811,-1.9811,-1.9811,-1.9811,-1.919,-1.8927,-1.8874,-1.7523,-1.6877,-1.6652,-1.5911,-1.5526,-1.541,-1.6026,-1.6368,-1.6595,-1.7961,-1.8986,-1.9889,-2.1087,-2.2793,-2.4576,-2.5437,-2.5804,-2.6063,-2.6602,-2.6422,-2.6004,-2.6004,-2.5615,-2.5196,-2.5196,-2.4717,0.0,0.0,0.0,0.0,0.0,0.0,0.0,0.0,-2.6183,-2.6464,-2.6624,-2.7096,-2.752,-2.7718,-2.8271,-2.8767,-2.8939,-2.9379,-2.9855,-3.041,-3.0878,-3.119,-3.119,-3.0797,-3.0477,-3.0477,-2.9976,-2.991,-3.0534,-3.0523,-3.0763,-3.1428,-3.177,-3.2022,-3.2161,-3.3074,-3.3692,-3.3907,-3.4508,-3.4831,-3.4908,-3.4908,-3.5742,-3.7296,-3.7296,-3.8205,-3.9759,-3.9759,-3.9829,-4.0027,-4.1162,-4.2118,-4.288,-4.3332,-4.3497,-4.3497,-4.3497,-4.3497,-4.3497,-1.1587,-1.1528,-1.1296,-1.0721,-1.0876,-1.1064,-1.1212,-1.149,-1.2006,-1.2745,-1.3223,-1.3516,-1.3516,-1.3555,-1.381,-1.4495,-1.3726,-1.4316,-1.687,-1.7182,-1.7721,-1.8701,-1.9451,-1.9811,-1.9811,-1.9811,-1.9811,-1.9811,-1.9683,-1.9683,-1.9631,-1.8821,-1.8124,-1.7468,-1.6708,-1.6026,-1.541,-1.5468,-1.5931,-1.6539,-1.7413,-1.8756,-2.0385,-2.12,-2.2775,-2.4657,-2.594,-2.6821,-2.74,-2.749,-2.746,-2.74,-2.74,-2.729,-2.723,-2.723,-2.6782,-2.6393,-2.6961,-2.6752,-2.6393,-2.6452,-2.6093,-2.6004,0.0,-2.6512,-2.6042,-2.7149,-2.7343,-2.7666,-2.887,-2.9509,-3.0123,-3.0763,-3.0937,-3.101,-3.1078,-3.1151,-3.119,-3.119,-3.1151,-3.1112,-3.1112,-3.0745,-3.0831,-3.1591,-3.1393,-3.1593,-3.2332,-3.24,-3.2723,-3.3396,-3.3533,-3.4067,-3.5022,-3.5116,-3.5276,-3.5605,-3.5605,-3.6411,-3.8001,-3.797,-3.8853,-4.0406,-4.0406,-4.0669,-4.1165,-4.1742,-4.2302,-4.288,-4.3332,-4.3497,-4.3497,-4.3497,-4.3497,-4.3497,-1.2332,-1.2371,-1.2278,-1.2044,-1.1574,-1.1309,-1.1592,-1.1706,-1.208,-1.2774,-1.3027,-1.3145,-1.3145,-1.3145,-1.3175,-1.3185,-1.3064,-1.382,-1.5812,-1.6012,-1.6837,-1.8614,-1.898,-1.9371,-1.9811,-1.9811,-1.9811,-1.9811,-1.9811,-1.9811,-1.9786,-1.9032,-1.8555,-1.8178,-1.7024,-1.6312,-1.6026,-1.5584,-1.5816,-1.6539,-1.6821,-1.8351,-2.0423,-2.071,-2.2311,-2.45,-2.5521,-2.6079,0.0,-2.7339,-2.737,-2.7081,-2.749,-2.732,-2.7141,-2.7949,-2.7709,-2.732,-2.7979,-2.7679,-2.727,-2.7631,-2.7527,-2.748,-2.7997,-2.7739,-2.7489,-2.7966,-2.8015,-2.8513,-3.0182,-3.0352,-3.0563,-3.1658,-3.1461,-3.119,-3.119,-3.119,-3.119,-3.119,-3.119,-3.1274,-3.1545,-3.1422,-3.1568,-3.2161,-3.2117,-3.2181,-3.2466,-3.2906,-3.3255,-3.3587,-3.4157,-3.4695,-3.5209,-3.5343,-3.5507,-3.5699,-3.5699,-3.6561,-3.82,-3.8144,-3.8969,-4.0508,-4.0508,-4.119,-4.2353,-4.2324,-4.2899,-4.383,-4.3794,-4.366,-4.3497,-4.3497,-4.3497,-4.3497,-1.255,-1.2774,-1.2891,-1.2891,-1.2215,-1.1748,-1.2043,-1.1913,-1.208,-1.2774,-1.2891,-1.2832,-1.2715,-1.2695,-1.2578,-1.2219,-1.252,-1.3332,-1.4811,-1.5288,-1.6291,-1.8024,-1.8501,-1.8927,-1.9475,-1.9475,-1.9579,-1.9811,-1.9811,-1.9811,-1.9811,-1.9267,-1.8874,-1.8661,-1.7578,-1.6877,-1.6482,-1.5911,-1.5874,-1.6197,-1.6652,-1.8035,-1.9922,-2.0322,-2.1663,-2.3424,-2.4504,-2.5036,-2.5337,-2.6228,-2.6273,-2.6123,-2.6602,-2.6572,-2.6602,-2.8158,-2.8487,-2.8449,-2.8755,-2.8525,-2.8221,-2.8637,-2.8786,-2.8767,-2.8539,-2.8522,-2.8566,-2.8539,-2.8511,-2.903,-3.0803,-3.0555,-3.0497,-3.1809,-3.1388,-3.0998,-3.119,-3.119,-3.119,-3.119,-3.119,-3.1351,-3.1735,-3.1771,-3.1986,-3.2433,-3.2598,-3.2727,-3.2854,-3.3432,-3.3806,-3.3907,-3.4715,-3.5183,-3.5331,-3.5575,-3.5712,-3.5793,-3.5754,-3.6651,-3.8291,-3.8633,-3.9392,-4.0508,-4.0508,-4.147,-4.3069,-4.2661,-4.3384,-4.4701,-4.4204,-4.3849,-4.3631,-4.3529,-4.3497,-4.3497,-1.1814,-1.2393,-1.2891,-1.2891,-1.2871,-1.2871,-1.2871,-1.2246,-1.208,-1.2774,-1.2891,-1.2715,-1.2258,-1.22,-1.22,-1.218,-1.22,-1.2793,-1.4043,-1.5515,-1.6417,-1.6553,-1.7961,-1.8715,-1.8715,-1.8715,-1.9085,-1.9811,-1.9811,-1.9811,-1.9811,-1.9811,-1.9371,-1.8715,-1.8661,-1.7852,-1.6482,-1.6482,-1.6104,-1.5584,-1.6968,-1.7947,-1.8703,-2.0177,-2.0769,-2.1059,-2.2827,-2.3895,-2.4471,-2.3896,-2.4148,-2.4642,-2.4672,-2.5136,-2.6033,-2.8008,-2.9475,-3.0243,-2.9623,-2.9484,-2.9446,-2.9384,-2.9361,-2.9212,-2.8654,-2.8494,-2.8494,-2.8511,-2.8511,-2.8919,-3.0194,-2.9886,-2.9855,-3.1134,-3.0771,-3.0518,-3.1112,-3.119,-3.119,-3.119,-3.119,-3.1351,-3.1735,-3.1771,-3.1986,-3.2433,-3.2921,-3.335,-3.3753,-3.4043,-3.4315,-3.4634,-3.5003,-3.5348,-3.5685,-3.5815,-3.5905,-3.5996,-3.5919,-3.6737,-3.8338,-3.9779,-4.0431,-4.0508,-4.0508,-4.147,-4.3069,-4.2661,-4.3531,-4.5011,-4.429,-4.3998,-4.3974,-4.3631,-4.3497,-4.3497,-1.1166,-1.1665,-1.2178,-1.2178,-1.2559,-1.2891,-1.2891,-1.2676,-1.2608,-1.2871,-1.2891,0.0,0.0,0.0,0.0,0.0,-1.25,-1.2969,-1.3672,-1.4437,-1.5235,-1.6035,-1.6795,-1.7468,-1.7961,-1.8447,-1.8821,-1.9085,-1.9579,-1.9811,-1.9811,-1.9811,-1.9683,-1.9423,-1.8927,-1.8178,-1.7191,-1.6708,-1.6368,-1.614,-1.6652,-1.7835,-1.9347,-2.0209,-2.0582,-2.08,0.0,-2.1757,-2.2189,-2.3231,-2.349,-2.349,-2.4358,-2.4714,-2.529,-2.7688,-2.9373,-3.036,-3.0164,-2.9738,-2.9639,-3.0542,-3.0441,-3.017,-3.0351,-3.0124,-2.9673,-2.9183,-2.9515,-3.0211,-3.1547,-3.0907,-3.0703,-3.2406,-3.1353,-3.0608,-3.1473,-3.1389,-3.1274,-3.1582,-3.1351,-3.1269,-3.1389,-3.1623,-3.1986,-3.2433,-3.2952,-3.3291,-3.3408,-3.4104,-3.4572,-3.4713,-3.5162,-3.5495,-3.5688,-3.5707,-3.5774,-3.593,-3.6983,-3.7731,-3.8208,-3.9875,-4.06,-4.0508,-4.0508,-4.147,-4.3085,-4.2961,-4.379,-4.5033,-4.4561,-4.4233,-4.3937,-4.3631,-4.3497,-4.3497,0.0,-1.1048,-1.1569,-1.1912,-1.2289,0.0,0.0,0.0,0.0,0.0,0.0,0.0,0.0,0.0,0.0,0.0,0.0,-1.3066,-1.3477,-1.4009,-1.4558,-1.5252,-1.5779,-1.6254,-1.672,-1.7202,-1.7861,-1.8768,-1.9071,-1.9505,-2.0112,-1.9886,-1.9811,-1.9811,-1.9319,-1.8661,-1.7961,-1.7468,-1.7353,-1.7442,-1.7147,-1.8043,-1.9634,-1.983,-1.9867,0.0,-2.0163,-2.012,-2.0086,-2.1495,-2.1962,-2.2173,-2.3251,-2.445,-2.5777,-2.7261,-2.8971,-3.0398,-3.0371,-3.0235,-3.038,-3.148,-3.1788,-3.1868,-3.2041,-3.155,-3.0915,-3.0238,-3.0085,-3.0472,-3.1565,-3.0701,-3.0608,-3.308,-3.1955,-3.112,-3.2217,-3.2134,-3.1885,-3.1651,-3.1351,-3.119,-3.119,-3.1432,-3.177,-3.2196,-3.2533,-3.2858,-3.3166,-3.3981,-3.4534,-3.4675,-3.5261,-3.5572,-3.565,-3.5638,-3.5679,-3.5815,-3.743,-3.8161,-3.8108,-3.9854,-4.06,-4.0508,-4.0508,-4.147,-4.3085,-4.3085,-4.396,-4.5243,-4.4919,-4.4535,-4.4175,-4.3823,-4.3597,-4.3497,0.0,0.0,-1.1064,0.0,0.0,0.0,0.0,0.0,0.0,0.0,0.0,0.0,0.0,0.0,0.0,0.0,0.0,0.0,-1.3457,-1.4163,-1.4419,-1.4082,-1.4768,-1.5133,-1.5133,-1.5184,-1.6343,-1.872,-1.8243,-1.8894,-2.0564,-1.9985,-1.9759,-1.9811,-1.9811,-1.9371,-1.8715,-1.8715,-1.8899,-1.9122,-1.8207,-1.8524,-1.9419,-1.918,-1.8706,-1.8327,-1.9413,-1.9101,-1.8312,-1.8888,-1.9874,-2.1006,-2.1644,-2.4456,-2.7425,-2.6816,-2.8442,-3.0422,-3.0346,-3.0856,-3.1556,-3.2158,-3.3265,-3.4021,-3.3509,-3.2849,-3.2144,-3.1574,-3.0569,-2.9974,-3.0525,-2.9611,-2.9794,-3.301,-3.2367,-3.1908,-3.3128,-3.3288,-3.278,0.0,0.0,0.0,0.0,-3.123,-3.1389,-3.1842,-3.1844,-3.223,-3.3136,-3.3707,-3.4248,-3.4733,-3.5299,-3.5622,-3.5622,-3.564,-3.564,-3.5622,-3.7262,-3.8031,-3.8046,-3.97,-4.0469,-4.0508,-4.0508,-4.147,-4.3085,-4.3085,-4.4085,-4.5568,-4.5222,-4.4896,-4.4572,-4.4146,-4.3791,-4.3497,0.0,0.0,0.0,0.0,0.0,0.0,0.0,0.0,0.0,0.0,0.0,0.0,0.0,0.0,0.0,0.0,0.0,0.0,-1.3027,-1.3521,-1.3739,-1.3672,-1.4123,-1.4387,-1.4387,-1.4925,-1.5497,-1.6151,-1.6886,-1.7786,-1.8797,-1.8936,-1.9267,-1.9811,-1.9811,-1.9371,-1.8715,-1.8715,-1.8216,-1.7486,-1.7786,-1.7808,-1.7862,-1.9131,-1.9032,-1.8329,-1.9408,-1.9368,-1.903,-2.0486,-2.2118,-2.3623,-2.3692,-2.5759,-2.82,-2.8466,-2.9716,-3.099,-3.0986,-3.1336,-3.1884,-3.262,-3.3273,-3.3846,-3.43,-3.4265,-3.3977,-3.3515,-3.359,-3.3529,-3.287,-3.1696,-3.1207,-3.2431,-3.115,-3.05,-3.1983,-3.1935,0.0,-3.1654,0.0,-3.1312,-3.1623,-3.166,-3.1842,-3.2264,-3.2298,-3.2494,-3.2949,-3.3969,-3.4658,-3.4981,-3.5339,-3.5545,-3.5622,-3.5637,-3.5586,-3.5545,-3.6584,-3.7392,-3.8046,-3.9123,-3.9931,-4.0508,-4.0508,-4.147,-4.3085,-4.3085,-4.4085,-4.5568,-4.5222,-4.4896,-4.4572,-4.4146,-4.3791,-4.3497,0.0,0.0,0.0,0.0,0.0,0.0,0.0,0.0,0.0,0.0,0.0,0.0,0.0,0.0,0.0,0.0,0.0,0.0,0.0,-1.3105,-1.3242,-1.3242,-1.3457,-1.3574,-1.3574,-1.3962,-1.4635,-1.5606,-1.5821,-1.6632,-1.7973,-1.7757,-1.7894,-1.8304,-1.8558,-1.8457,-1.81,-1.8355,-1.835,0.0,0.0,-1.8116,-1.8361,-1.9158,-1.9083,-1.8681,-1.951,-2.0117,-2.0656,-2.1137,-2.2534,-2.4115,-2.4091,-2.6041,-2.8447,-2.8744,0.0,-3.119,-3.119,-3.1747,-3.2466,-3.2882,-3.3706,-3.465,-3.5435,-3.519,-3.4836,-3.4931,-3.4711,-3.4167,-3.3178,-3.2201,-3.1842,-3.2675,-3.1672,-3.1155,-3.2349,-3.2298,-3.2021,0.0,-3.1507,0.0,-3.1771,-3.1986,-3.2196,-3.2466,-3.2466,-3.2688,-3.3182,-3.3956,-3.46,-3.5069,-3.5369,-3.5545,-3.5584,-3.5584,-3.5545,-3.5493,-3.6315,-3.7064,-3.783,-3.8673,-3.9465,-4.0101,-4.0248,-4.1297,-4.2869,-4.2851,-4.3921,-4.5568,-4.5222,-4.4896,-4.4599,-4.4346,-4.3943,-4.3497,0.0,0.0,0.0,0.0,0.0,0.0,0.0,0.0,0.0,0.0,0.0,-1.2988,-1.3047,-1.2988,0.0,0.0,0.0,0.0,0.0,0.0,-1.2891,-1.2891,-1.2891,-1.2891,-1.2891,-1.2891,-1.3801,-1.568,-1.4889,-1.548,-1.7342,-1.6609,-1.63,-1.645,-1.7046,-1.729,-1.7339,-1.7941,-1.8731,-1.951,-1.8581,-1.8756,-1.9535,0.0,-1.8983,-1.9058,-1.961,-2.0886,-2.2194,-2.1244,-2.2226,-2.3904,-2.3866,-2.5931,-2.8403,-2.849,-2.9741,-3.1112,-3.119,-3.2021,-3.2847,-3.2921,-3.4022,-3.5343,-3.6345,-3.5576,-3.4907,-3.5755,-3.4761,-3.3524,-3.2669,-3.2075,-3.1967,-3.3041,0.0,-3.2331,-3.2874,-3.2959,-3.2529,-3.1326,-3.1582,-3.1808,-3.188,-3.2298,-3.2634,-3.2663,-3.2727,-3.2997,-3.364,-3.398,-3.4463,-3.5119,-3.5383,-3.5493,-3.5493,-3.5493,-3.5493,-3.5493,-3.6171,-3.6834,-3.7508,-3.8233,-3.8929,-3.9641,-3.9962,-4.0997,-4.2428,-4.2484,-4.3618,-4.5322,-4.5184,-4.4896,-4.4599,-4.4599,-4.4154,-4.3563,0.0,0.0,0.0,0.0,0.0,0.0,0.0,0.0,0.0,0.0,-1.4043,-1.3535,0.0,0.0,0.0,0.0,0.0,0.0,0.0,0.0,0.0,-1.2891,-1.2891,-1.2891,-1.2891,-1.2891,-1.3086,-1.3452,-1.36,-1.4205,-1.5171,-1.5335,-1.5771,-1.645,-1.7046,-1.729,-1.7339,-1.7941,-1.8304,-1.8455,-1.8279,-1.8304,-1.853,-1.8882,0.0,0.0,-1.961,-2.0343,-2.1087,-2.1381,-2.3485,-2.5891,-2.5329,-2.6699,-2.8607,-2.908,-2.9794,-3.0559,-3.1072,-3.161,-3.2088,-3.2475,-3.2818,-3.3479,-3.5307,-3.4789,0.0,-3.5196,-3.5198,-3.4669,-3.3524,-3.2789,-3.2288,-3.1935,-3.0783,-3.0196,-3.0771,-3.0841,-3.0941,0.0,-3.1582,-3.1951,-3.2332,-3.2791,-3.3196,-3.355,-3.3776,-3.3907,-3.3942,-3.4562,-3.5086,-3.5412,-3.5479,-3.5493,-3.5493,-3.5493,-3.5493,-3.5493,-3.5423,-3.6112,-3.7508,-3.7409,-3.8191,-3.9641,-3.9962,-4.0653,-4.1589,-4.2255,-4.3153,-4.4187,-4.4832,-4.4896,-4.4599,-4.4599,-4.429,-4.3881,0.0,0.0,0.0,0.0,0.0,0.0,0.0,-1.3168,-1.3979,-1.6169,-1.5898,-1.5332,-1.4844,-1.4219,-1.375,0.0,0.0,0.0,0.0,0.0,0.0,-1.2891,-1.2891,-1.2725,-1.2344,-1.2725,-1.2841,-1.2682,0.0,-1.3481,-1.4033,-1.4012,-1.4212,-1.4609,-1.5222,-1.5631,-1.5986,-1.6592,-1.7202,-1.7802,-1.8078,-1.853,-1.9083,-1.966,0.0,0.0,-2.0162,-2.0439,-2.0718,-2.1013,-2.2777,-2.4967,-2.5346,-2.6633,-2.8064,-2.8717,-2.9585,-3.0351,-3.0642,-3.1244,-3.1844,-3.2057,-3.2298,-3.2958,-3.4722,0.0,0.0,-3.504,-3.476,-3.4014,-3.3057,-3.2641,-3.2241,-3.1518,-3.0551,-3.0145,-3.0707,-3.054,-3.0518,-3.1151,-3.1582,-3.1986,-3.2433,-3.2921,-3.3379,-3.378,-3.4213,-3.4427,-3.4373,-3.4978,-3.5369,-3.5493,-3.5493,-3.5493,-3.5493,-3.5493,-3.5412,-3.5308,-3.5577,-3.6179,-3.7084,-3.7399,-3.8091,-3.9154,-3.9451,-4.0071,-4.0901,-4.1706,-4.2635,-4.3611,-4.4272,-4.4428,-4.429,-4.429,-4.4065,-4.3726,0.0,0.0,0.0,0.0,0.0,0.0,0.0,-1.3397,-1.4394,-1.7121,-1.7283,-1.6889,-1.615,-1.5176,-1.4336,0.0,0.0,0.0,0.0,0.0,0.0,0.0,0.0,0.0,-1.1814,0.0,0.0,-1.2498,-1.262,0.0,0.0,0.0,0.0,0.0,-1.3552,-1.405,-1.456,-1.538,-1.6393,0.0,0.0,-1.9133,-2.0062,0.0,0.0,0.0,0.0,-2.0819,-2.0743,-2.0995,-2.1937,-2.325,-2.4797,-2.6162,-2.7369,-2.8198,-2.9137,-2.9978,-3.0225,-3.0858,-3.1514,-3.177,-3.2021,-3.2651,-3.4269,-3.3589,-3.3041,-3.4559,-3.3994,-3.2983,-3.2408,-3.2326,-3.2101,-3.1462,-3.0749,-3.051,-3.0855,-3.0477,-3.0346,-3.0952,-3.1359,0.0,-3.2433,-3.2921,-3.3379,-3.378,-3.4284,-3.4655,-3.487,-3.5254,-3.5493,-3.5493,-3.5493,-3.5493,-3.5493,-3.5493,-3.5369,-3.5124,-3.5854,-3.6356,-3.6719,-3.7485,-3.8145,-3.8719,-3.8952,-3.9517,-4.0188,-4.098,-4.1968,-4.2998,-4.3519,-4.3849,-4.3998,-4.3998,-4.3818,-4.3597,0.0,0.0,0.0,0.0,0.0,0.0,0.0,-1.1966,-1.3381,-1.717,-1.6973,-1.6959,-1.8162,-1.6875,-1.5547,0.0,0.0,0.0,0.0,0.0,0.0,0.0,0.0,0.0,0.0,0.0,0.0,-1.2498,-1.2081,0.0,0.0,0.0,0.0,0.0,0.0,-1.3815,-1.3978,-1.5614,0.0,0.0,0.0,0.0,0.0,0.0,0.0,0.0,0.0,-2.1091,-2.0869,-2.182,-2.1952,-2.2,-2.38,-2.5412,-2.6794,-2.7921,0.0,0.0,-2.9978,-3.0393,-3.0649,-3.1657,-3.1617,-3.1837,-3.374,0.0,-3.1777,-3.327,-3.2957,-3.2374,-3.2307,-3.2317,-3.2171,-3.1581,-3.0921,-3.0304,-2.9744,-2.9619,-2.9738,-3.0333,0.0,0.0,-3.24,-3.2921,-3.3379,-3.378,-3.4068,-3.4597,-3.5383,-3.5479,-3.5493,-3.5493,-3.5493,-3.5493,-3.5493,-3.5493,-3.5369,-3.5124,-3.5684,-3.622,-3.6719,-3.7275,-3.7948,-3.8719,-3.8952,-3.9154,-3.9266,-4.0095,-4.0943,-4.1828,-4.2611,-4.3364,-4.3998,-4.3998,-4.3967,-4.3912,0.0,0.0,0.0,0.0,0.0,0.0,-1.2056,-1.2696,-1.423,-1.7746,-1.7714,-1.7805,-1.8932,-1.7949,-1.668,-1.5273,0.0,0.0,0.0,0.0,0.0,0.0,0.0,0.0,0.0,0.0,-1.2007,-1.1798,-1.2237,0.0,0.0,0.0,0.0,0.0,0.0,-1.3818,-1.4188,-1.4893,0.0,0.0,0.0,0.0,0.0,0.0,0.0,0.0,0.0,0.0,-2.1217,-2.1669,-2.1669,-2.1725,-2.3127,-2.4072,-2.4996,-2.6693,-2.7743,-2.8454,-2.9045,-2.9496,-2.9935,-3.073,-3.1139,-3.1742,-3.3325,0.0,-3.2814,-3.3863,-3.3119,-3.2313,-3.2313,-3.1933,-3.1765,-3.1968,-3.1134,-3.0479,-3.0686,-3.0373,-3.0016,-2.9802,-3.0563,-3.1254,-3.1482,-3.2022,-3.2723,-3.3606,-3.4006,-3.4427,-3.4981,-3.5016,-3.5016,-3.5016,-3.5016,-3.5016,-3.5016,-3.5016,-3.4851,-3.4593,-3.5791,-3.6398,-3.65,-3.7684,-3.8395,-3.8689,-3.8833,-3.8855,-3.8929,-3.9741,-4.0554,-4.1372,-4.2179,-4.2991,-4.3693,-4.3693,-4.3693,-4.366,0.0,0.0,0.0,0.0,0.0,-1.0446,-1.1803,-1.2582,-1.4097,-1.7265,-1.7632,-1.7989,-1.9131,-1.8516,-1.7519,-1.6289,-1.5039,0.0,0.0,0.0,0.0,0.0,0.0,0.0,0.0,0.0,-1.2305,-1.1798,-1.2449,-1.2923,0.0,0.0,-1.3815,-1.3691,0.0,0.0,0.0,0.0,0.0,0.0,0.0,0.0,0.0,0.0,0.0,0.0,0.0,0.0,0.0,0.0,0.0,-2.1527,-2.2705,-2.3128,-2.3586,-2.5715,-2.6797,-2.7518,-2.8232,-2.8604,-2.9011,-2.9848,-3.0544,-3.1396,-3.2552,-3.284,-3.304,-3.3772,-3.274,-3.1741,-3.1741,-3.1141,-3.0983,-3.1994,-3.1197,-3.0671,-3.1417,-3.0752,-3.0021,-2.9485,0.0,-3.0784,-3.087,-3.1556,-3.2364,-3.3198,-3.3542,-3.3869,-3.4246,-3.4246,-3.4383,-3.4713,-3.4713,-3.4713,-3.4713,-3.4713,-3.4529,-3.4237,-3.5665,-3.634,-3.634,-3.7734,-3.8469,-3.8689,-3.8689,-3.8689,-3.8726,-3.9313,-4.0157,-4.1185,-4.1735,-4.258,-4.3497,-4.3497,-4.3497,-4.3497,0.0,0.0,0.0,0.0,0.0,0.0,-1.0443,-1.0873,-1.2212,-1.5445,-1.6088,-1.6983,-1.9058,-1.8516,-1.8008,-1.7988,-1.6016,0.0,0.0,0.0,0.0,0.0,0.0,0.0,0.0,0.0,-1.3063,-1.2992,-1.2586,-1.2941,-1.4016,-1.3566,-1.3644,-1.4068,0.0,0.0,0.0,0.0,0.0,0.0,0.0,0.0,0.0,0.0,0.0,0.0,0.0,0.0,0.0,0.0,0.0,0.0,0.0,-2.2923,-2.3119,-2.5288,-2.5684,-2.5854,-2.7718,-2.7838,-2.7758,-2.9057,-2.9918,-3.0575,-3.1374,-3.1486,-3.1662,-3.2364,-3.1406,-3.0416,-3.0416,-2.9886,-2.9854,-3.1278,-3.0948,-3.0773,-3.1508,-3.0441,-2.9562,0.0,-2.9534,-2.9878,-3.079,-3.1881,-3.2466,-3.25,-3.2535,-3.2695,-3.3166,-3.3196,-3.367,-3.4693,-3.4713,-3.4713,-3.4713,-3.4713,-3.4529,-3.42,-3.5094,-3.581,-3.634,-3.711,-3.7955,-3.8689,-3.8689,-3.8689,-3.8689,-3.8726,-3.968,-4.1111,-4.1111,-4.2103,-4.3497,-4.3497,-4.3497,-4.3497,0.0,0.0,0.0,0.0,0.0,0.0,0.0,-1.0807,-1.1936,-1.3941,-1.4633,-1.5584,-1.7413,-1.7571,-1.7578,-1.7578,-1.6133,0.0,0.0,0.0,0.0,0.0,0.0,0.0,0.0,-1.3589,-1.3229,-1.2887,-1.3018,-1.3074,-1.3105,-1.3309,-1.3614,-1.4008,-1.3847,-1.4072,0.0,0.0,0.0,0.0,0.0,0.0,0.0,0.0,0.0,0.0,0.0,0.0,0.0,0.0,0.0,0.0,0.0,0.0,0.0,-2.3952,-2.5136,-2.5819,-2.6189,-2.7107,-2.8111,-2.8596,-2.9999,-3.1369,-3.2042,-3.2524,-3.299,-3.3214,-3.2126,-3.1134,-3.1134,-3.0206,-3.0014,-3.1853,-3.162,-3.1402,-3.2168,-3.145,0.0,-2.907,-2.8836,-2.9108,-2.9816,-3.0796,-3.1411,-3.1411,-3.2092,-3.2533,-3.2695,-3.2731,-3.313,-3.408,-3.4105,-3.4105,-3.4105,-3.4105,-3.4055,-3.3928,-3.4776,-3.557,-3.634,-3.711,-3.7918,-3.8689,-3.8689,-3.8689,-3.8689,-3.8689,-3.9643,-4.1111,-4.1111,-4.2103,-4.3497,-4.3497,-4.3497,-4.3497,0.0,0.0,0.0,0.0,0.0,0.0,0.0,-1.0272,-1.1238,-1.2755,-1.3606,-1.4675,-1.6338,-1.7054,-1.7441,-1.7598,-1.6719,0.0,0.0,0.0,0.0,0.0,0.0,0.0,-1.4375,-1.4336,-1.4177,-1.4001,-1.4221,-1.4263,-1.4155,-1.4463,-1.474,-1.5032,-1.4666,-1.4849,0.0,0.0,0.0,0.0,0.0,0.0,-2.1198,0.0,0.0,0.0,0.0,0.0,0.0,0.0,0.0,0.0,0.0,0.0,0.0,0.0,-2.3766,-2.4844,-2.5459,-2.6345,-2.7227,-2.7705,-2.9322,-3.0819,-3.1221,-3.2098,-3.2748,-3.2467,-3.1529,-3.0685,-3.0435,-2.9467,-2.9312,-3.1128,-3.1042,-3.0983,-3.1734,-3.1262,0.0,-2.8786,-2.8534,-2.8747,-2.9375,-3.0,-3.0311,-3.0311,-3.1181,-3.1737,-3.1881,-3.2092,-3.2565,-3.3284,-3.3494,-3.3634,-3.3807,-3.3807,-3.3807,-3.3807,-3.4321,-3.5165,-3.6303,-3.6817,-3.7661,-3.8689,-3.8689,-3.8689,0.0,-3.8689,-3.946,-4.0671,-4.1001,-4.1919,-4.3057,-4.314,-4.3214,-4.3178,0.0,0.0,0.0,0.0,0.0,0.0,0.0,-0.9472,-1.02,-1.1767,-1.2867,-1.4166,-1.583,-1.6769,-1.7461,-1.7891,0.0,0.0,0.0,0.0,0.0,0.0,0.0,0.0,-1.4824,-1.5234,-1.5548,-1.586,-1.5914,-1.6147,-1.6542,-1.656,-1.6573,-1.6567,-1.6185,-1.6074,-1.6016,0.0,0.0,0.0,-1.8111,-1.9039,0.0,0.0,0.0,0.0,0.0,0.0,0.0,0.0,0.0,0.0,0.0,0.0,0.0,0.0,0.0,0.0,0.0,-2.5424,-2.5428,-2.6603,-2.8071,-2.9201,-2.9143,-3.0309,0.0,-3.0526,-2.9924,-2.9325,-2.8786,-2.8068,-2.8052,-2.9435,-2.965,-2.9894,-3.0485,-2.9985,0.0,0.0,-2.8534,-2.8693,-2.9373,-2.936,-2.9316,-2.9316,-2.9892,-3.041,-3.0763,-3.1367,-3.1915,-3.2366,-3.2858,-3.3284,-3.3753,-3.3716,-3.3753,-3.3807,-3.3753,-3.4559,-3.6164,-3.6172,-3.7021,-3.8486,-3.859,-3.8627,-3.8596,-3.8627,-3.9103,-3.9841,-4.0683,-4.1489,-4.2223,-4.2519,-4.2616,-4.2577,0.0,0.0,0.0,0.0,0.0,0.0,0.0,0.0,0.0,0.0,-1.2246,-1.3314,-1.4513,-1.5723,-1.6543,0.0,0.0,0.0,0.0,0.0,0.0,0.0,0.0,0.0,-1.5273,-1.5684,-1.5761,-1.5465,-1.6075,-1.6298,-1.6003,-1.6076,-1.5824,-1.5152,-1.5486,-1.56,-1.5605,-1.6289,0.0,0.0,-1.8111,-1.9039,0.0,0.0,0.0,0.0,-2.1493,-2.1568,0.0,0.0,0.0,0.0,0.0,0.0,0.0,0.0,-2.0591,-2.1752,-2.2628,0.0,-2.5853,-2.5688,-2.7051,-2.8344,0.0,-2.8826,-2.9668,-2.8999,-2.8857,-2.8936,-2.9295,-2.8368,-2.8201,-2.9961,-3.0273,-3.0338,-3.0473,-2.9552,0.0,-2.8607,-2.8132,-2.8082,-2.8776,-2.8719,-2.8701,-2.8701,-2.9271,-2.9641,-2.974,-3.0327,-3.0824,-3.1261,-3.1845,-3.2533,-3.335,-3.2983,-3.3136,-3.3807,-3.3136,-3.3517,-3.4836,-3.5065,-3.5683,-3.6683,-3.7675,-3.7895,-3.7578,-3.7964,-3.8364,-3.8829,-3.958,-4.0367,-4.1153,-4.1777,-4.2021,-4.1979,0.0,0.0,0.0,0.0,0.0,0.0,0.0,0.0,0.0,0.0,0.0,-1.3164,-1.4082,-1.5362,0.0,0.0,0.0,0.0,0.0,0.0,0.0,0.0,0.0,-1.5117,-1.5117,-1.5742,-1.6181,-1.6281,-1.6917,-1.7324,-1.7424,-1.7243,-1.6829,-1.6233,-1.5928,-1.5651,-1.5449,-1.6133,-1.6543,-1.6758,-1.7463,0.0,0.0,0.0,0.0,0.0,-2.0439,-2.069,0.0,-2.0121,-1.9455,-1.8896,0.0,0.0,0.0,0.0,-1.9074,-1.9932,-2.0804,-2.3182,-2.5458,-2.5381,-2.6516,-2.7515,-2.7189,-2.7742,-2.8338,-2.8051,-2.8006,-2.8207,-2.8584,-2.8068,-2.8038,-2.9415,-2.9624,-2.9744,-3.0043,0.0,-2.8936,-2.8637,-2.8278,-2.7949,-2.7709,-2.7667,-2.7618,-2.7618,-2.8202,-2.8649,-2.8996,-2.954,-2.9989,-3.0186,-3.0508,-3.1408,-3.289,-3.2634,-3.2727,-3.3196,-3.2763,-3.3235,-3.4607,-3.4763,-3.5438,-3.6573,-3.7291,-3.7433,-3.721,-3.747,-3.7683,-3.7955,-3.9049,-3.9797,-4.0253,-4.1086,-4.142,-4.134,0.0,0.0,0.0,0.0,0.0,0.0,0.0,0.0,0.0,0.0,0.0,0.0,0.0,0.0,0.0,0.0,0.0,0.0,0.0,0.0,0.0,0.0,-1.4922,-1.4922,-1.498,-1.5684,-1.6465,-1.7285,-1.791,-1.8535,-1.918,-1.9004,-1.8535,-1.7754,-1.6331,-1.5602,-1.5352,-1.572,-1.6185,-1.6655,-1.666,0.0,0.0,0.0,0.0,0.0,0.0,0.0,0.0,-1.9492,-1.9269,-1.9065,-1.76,0.0,0.0,0.0,0.0,0.0,-1.9298,-2.1808,-2.4211,-2.4731,-2.5702,-2.6516,-2.6179,-2.6559,-2.6965,-2.7031,-2.7193,-2.7403,-2.7543,-2.7658,-2.7949,-2.8637,-2.8667,-2.8786,-2.9355,-2.9355,-2.9116,-2.8667,-2.8517,-2.7979,-2.6841,-2.6662,-2.6542,-2.6452,-2.6916,-2.752,-2.8182,-2.8793,-2.9143,-2.9271,-2.9361,-3.0261,-3.2022,-3.2092,-3.2264,-3.2466,-3.2473,-3.3213,-3.4517,-3.4692,-3.55,-3.6805,-3.6985,-3.702,-3.6943,-3.702,-3.7091,-3.7259,-3.8702,-3.9335,-3.9498,-4.0446,-4.078,-4.0685,0.0,0.0,0.0,0.0,0.0,0.0,0.0,0.0,0.0,0.0,0.0,0.0,0.0,0.0,0.0,0.0,0.0,0.0,0.0,0.0,0.0,-1.5898,-1.5508,-1.5488,-1.5919,-1.6056,-1.6309,-1.6836,-1.834,-1.8965,-1.875,-1.9785,-1.9082,-1.6831,-1.4853,-1.4333,-1.4865,-1.5046,-1.5688,-1.6699,-1.6328,0.0,0.0,0.0,0.0,0.0,0.0,0.0,0.0,-1.8435,-1.8312,-1.8012,-1.7118,0.0,0.0,0.0,0.0,0.0,-1.8148,-1.951,-2.0927,-2.1243,-2.3289,-2.4682,-2.3081,-2.4121,-2.5276,-2.4865,-2.5772,-2.6837,-2.7378,-2.803,-2.8667,-2.9325,-2.8966,-2.8637,-2.8727,-2.8248,-2.8068,-2.8547,-2.8098,-2.7649,-2.749,-2.6931,-2.6363,-2.5794,-2.5858,-2.6176,-2.6838,-2.7426,-2.8077,-2.8622,-2.9134,-2.9553,-2.987,-3.0369,-3.1253,-3.2502,-3.2389,-3.2647,-3.3341,-3.4151,-3.4661,-3.4976,-3.6056,-3.6249,-3.5898,-3.6333,-3.6663,-3.6945,-3.7797,-3.8512,-3.916,-3.9948,-4.0204,-4.0204,0.0,0.0,0.0,0.0,0.0,0.0,0.0,0.0,0.0,0.0,0.0,0.0,0.0,0.0,0.0,0.0,0.0,0.0,0.0,0.0,-1.6484,-1.6758,-1.6133,-1.5859,-1.6115,-1.6523,-1.709,-1.7754,-1.9004,-1.9648,-1.9668,-1.9336,-1.8301,-1.6636,-1.5204,-1.4762,-1.5156,-1.5422,-1.5865,-1.6348,0.0,0.0,0.0,0.0,0.0,0.0,0.0,0.0,0.0,0.0,-1.8044,-1.8384,-1.7622,0.0,0.0,0.0,0.0,0.0,-1.684,-1.7983,-1.9004,-1.8554,-2.0385,-2.202,-2.1152,-2.1741,-2.269,-2.3122,-2.4088,-2.5135,-2.6132,-2.6657,-2.7097,-2.7847,-2.8634,-2.8996,-2.8637,-2.8637,-2.8637,-2.8607,-2.8338,-2.7709,-2.6602,-2.6243,-2.5794,-2.5136,-2.5076,-2.5375,-2.6033,-2.665,-2.7174,-2.7461,-2.8086,-2.8575,-2.8904,-2.918,-2.9827,-3.083,-3.1139,-3.1572,-3.223,-3.3057,-3.3641,-3.405,-3.4631,-3.475,-3.4544,-3.4797,-3.5181,-3.5678,-3.6401,-3.7124,-3.79,-3.9049,-3.942,-3.9506,0.0,0.0,0.0,0.0,0.0,0.0,0.0,0.0,0.0,0.0,0.0,0.0,0.0,0.0,0.0,0.0,0.0,0.0,0.0,-1.6056,-1.6406,-1.7187,-1.6484,-1.625,-1.666,-1.7227,-1.7949,-1.8789,-1.9746,-2.0332,-2.0527,-1.8906,-1.7598,-1.6543,-1.5679,-1.5274,-1.5293,-1.5544,-1.5836,-1.6115,0.0,0.0,0.0,0.0,0.0,0.0,0.0,0.0,0.0,0.0,0.0,0.0,0.0,0.0,0.0,-1.6594,-1.594,-1.5583,-1.5841,-1.6576,-1.7057,-1.6414,-1.8108,-1.9894,-1.9649,-1.9828,-2.0351,-2.1609,-2.2578,-2.3487,-2.4694,-2.53,-2.5883,-2.6619,-2.8052,-2.8925,-2.8457,-2.8786,-2.8936,-2.8427,-2.8368,-2.7709,-2.6004,-2.5704,-2.5345,-2.4642,-2.4433,-2.4687,-2.5345,-2.583,-2.6179,-2.6327,-2.6849,-2.7327,-2.7799,-2.7799,-2.8398,-2.9662,-3.032,-3.107,-3.1742,-3.2428,-3.3035,-3.3598,-3.3598,-3.3694,-3.3822,-3.3822,-3.4334,-3.5144,-3.5742,-3.6382,-3.711,-3.8219,-3.8635,-3.8745,0.0,0.0,0.0,0.0,0.0,0.0,0.0,0.0,0.0,0.0,0.0,0.0,0.0,0.0,0.0,0.0,0.0,0.0,0.0,-1.584,-1.6269,-1.6758,-1.6328,-1.6816,-1.8418,-1.8125,-1.8379,-1.9238,-2.0527,-2.0937,-2.0527,-1.9219,-1.7695,-1.6113,-1.5284,-1.4896,-1.4807,-1.4499,-1.5027,-1.6096,-1.5625,0.0,0.0,0.0,0.0,0.0,0.0,0.0,0.0,0.0,0.0,0.0,0.0,0.0,-1.7618,-1.6159,-1.5779,-1.5828,-1.5505,-1.4959,-1.4468,-1.4824,-1.7269,-1.9276,-1.8334,-1.8482,-1.9068,-2.0294,-2.1502,-2.2598,-2.3434,-2.5075,-2.6581,-2.7334,-2.7556,-2.7681,-2.7688,-2.7679,-2.776,-2.77,-2.77,-2.735,-2.6602,-2.5974,-2.5345,-2.4642,-2.4029,-2.3969,-2.4612,-2.4674,-2.4912,-2.5568,-2.5568,-2.555,-2.5605,-2.5605,-2.7225,-3.0352,-3.107,-3.1774,-3.246,-3.3214,-3.3534,-3.3598,-3.3598,-3.395,-3.4505,-3.4505,-3.5304,-3.655,-3.6614,-3.7061,-3.7726,-3.7847,-3.7879,-3.7879,0.0,0.0,0.0,0.0,0.0,0.0,0.0,0.0,0.0,0.0,0.0,0.0,0.0,0.0,0.0,0.0,0.0,0.0,0.0,-1.5725,-1.6117,-1.668,-1.6562,-1.7031,-1.8223,-1.8613,-1.9355,-2.0488,-2.0996,-2.0859,-2.0137,-1.8574,-1.7363,-1.6465,-1.5597,-1.5388,-1.5566,-1.5156,-1.5407,-1.6096,-1.5586,-1.5254,0.0,0.0,0.0,0.0,0.0,0.0,0.0,0.0,-1.5684,-1.6757,-1.6692,-1.7026,-1.7305,-1.6729,-1.6033,-1.5362,-1.5226,-1.4899,-1.457,-1.4746,-1.5345,-1.5856,-1.5954,-1.6649,-1.7644,-1.9033,-1.9971,-2.1026,-2.2433,-2.401,-2.5175,-2.5461,-2.5911,-2.6378,-2.687,-2.6945,-2.71,-2.756,-2.761,-2.7141,-2.6093,-2.5707,-2.5112,-2.4014,-2.3617,-2.3595,-2.3851,-2.4244,-2.4539,-2.4815,-2.5189,-2.5412,-2.5412,-2.5412,-2.6411,-2.8404,-2.9212,-2.9907,-3.0543,-3.1738,-3.2296,-3.2296,-3.2296,-3.2696,-3.331,-3.331,-3.4109,-3.5369,-3.583,-3.6137,-3.6445,-3.6874,-3.7024,-3.7144,0.0,0.0,0.0,0.0,0.0,0.0,0.0,0.0,0.0,0.0,0.0,0.0,0.0,0.0,0.0,0.0,0.0,0.0,-1.5542,-1.5645,-1.5956,-1.6576,-1.6321,-1.6529,-1.735,-1.7977,-1.9107,-2.082,-2.0957,-2.0508,-1.9492,-1.8184,-1.7344,-1.6894,-1.6016,-1.5859,-1.623,-1.5508,-1.5391,-1.5625,-1.5332,-1.4883,0.0,0.0,0.0,0.0,0.0,0.0,0.0,0.0,-1.4846,-1.5916,-1.6266,-1.6622,-1.6859,-1.6859,-1.6214,-1.5382,-1.5174,-1.474,-1.436,-1.4201,-1.3793,-1.3474,-1.3941,-1.464,-1.5624,-1.7206,-1.865,-2.0081,-2.1691,-2.289,-2.378,-2.4253,-2.4738,-2.53,-2.6068,-2.6176,-2.6336,-2.6864,-2.6916,-2.6477,-2.5345,-2.5207,-2.4702,-2.3631,-2.3414,-2.3406,-2.3406,-2.3796,-2.4069,-2.4069,-2.4471,-2.4654,-2.4654,-2.4654,-2.5244,-2.6425,-2.7298,-2.8189,-2.9277,-3.0247,-3.0718,-3.0718,-3.0718,-3.1185,-3.1973,-3.2281,-3.3327,-3.4861,-3.531,-3.5519,-3.5554,-3.607,-3.629,-3.6352,0.0,0.0,0.0,0.0,0.0,0.0,0.0,0.0,-1.2259,-1.3408,-1.4355,0.0,0.0,0.0,0.0,0.0,0.0,0.0,-1.527,-1.5531,-1.5891,-1.6368,-1.5441,-1.5296,-1.606,-1.6016,-1.7237,-1.9902,-2.0332,-1.9883,-1.8613,-1.8203,-1.7773,-1.7324,-1.6507,-1.6309,-1.6641,-1.5332,-1.4785,-1.4785,-1.4785,-1.4277,-1.3555,0.0,0.0,0.0,0.0,0.0,0.0,0.0,-1.4627,-1.4879,-1.6009,-1.636,-1.636,-1.6315,-1.6236,-1.6025,-1.5278,-1.4296,-1.3407,-1.2987,-1.2931,-1.2817,-1.2456,-1.2422,-1.2973,-1.4869,-1.7575,-1.9912,-2.0962,-2.1746,-2.2705,-2.4026,-2.4279,-2.4509,-2.5273,-2.5384,-2.5412,-2.5412,-2.5412,-2.5163,-2.4581,-2.4445,-2.4171,-2.3644,-2.3485,-2.3406,-2.3406,-2.3338,-2.3296,-2.3296,-2.3178,-2.3065,-2.3065,-2.3065,-2.3703,-2.4833,-2.5647,-2.7104,-2.9002,-2.9002,-2.9002,-2.9002,-2.9002,-2.9693,-3.0865,-3.1817,-3.3469,-3.5424,-3.5424,-3.5489,-3.5489,-3.5489,-3.5489,-3.5519,0.0,0.0,0.0,0.0,0.0,0.0,0.0,0.0,-1.1991,-1.3431,-1.3803,0.0,0.0,0.0,0.0,0.0,0.0,0.0,-1.5248,-1.5804,-1.6063,-1.5925,-1.5928,-1.5584,-1.478,-1.4775,-1.6018,-1.849,-1.9293,-1.9004,-1.7754,-1.7324,-1.6875,-1.6445,-1.6233,-1.6258,-1.6471,-1.5736,-1.543,-1.543,-1.543,-1.4633,-1.3555,0.0,0.0,0.0,0.0,0.0,0.0,0.0,0.0,0.0,-1.4435,-1.5051,-1.5586,-1.5267,-1.5067,-1.4836,-1.4321,-1.4084,-1.3753,-1.3059,-1.2946,-1.2636,-1.1326,-1.2104,-1.361,-1.5305,-1.6941,-1.8401,-1.9493,-2.0234,-2.0871,-2.1549,-2.2224,-2.2895,-2.3592,-2.4226,-2.4851,-2.5356,-2.5412,-2.5163,-2.45,-2.4366,-2.4059,-2.3444,-2.3258,-2.318,-2.318,-2.3186,-2.317,-2.317,-2.311,-2.3065,-2.3065,-2.3065,-2.3703,-2.4833,-2.5065,-2.6181,-2.8103,-2.8748,-2.9002,-2.9002,-2.9002,-2.9693,-3.0853,-3.1985,-3.2848,-3.3463,-3.3463,-3.3837,-3.438,-3.3671,-3.4341,-3.5424,0.0,0.0,0.0,0.0,0.0,0.0,-1.1152,-1.1432,-1.2003,-1.3159,-1.3626,-1.3866,0.0,0.0,0.0,-1.439,-1.478,-1.5177,-1.5382,-1.5963,-1.6307,-1.6269,-1.5883,-1.4965,-1.3437,-1.3786,-1.4595,-1.5878,-1.7172,-1.7504,-1.6855,-1.6777,-1.668,-1.6645,-1.6937,-1.6982,-1.6867,-1.6424,-1.6063,-1.5892,-1.5892,-1.5081,-1.3993,0.0,0.0,0.0,0.0,0.0,0.0,0.0,0.0,0.0,-1.3721,-1.4243,-1.4748,-1.4994,-1.4752,-1.4377,-1.4393,-1.4113,-1.3643,-1.2714,-1.2174,-1.1493,-0.9957,-1.1002,-1.2523,-1.347,-1.5216,-1.6858,-1.7768,-1.8687,-1.9486,-1.998,-2.0687,-2.1299,-2.1716,-2.2359,-2.311,-2.3936,-2.3735,-2.3502,-2.3546,-2.345,-2.3229,-2.2923,-2.306,-2.3065,-2.3065,-2.3065,-2.3065,-2.3065,-2.3065,-2.3065,-2.3065,-2.3065,-2.3703,-2.4833,-2.4833,-2.5648,-2.7229,-2.7802,-2.7999,-2.7999,-2.8479,-2.9268,-3.0364,-3.1531,-3.2236,-3.2593,-3.2593,-3.2947,-3.3394,-3.2806,-3.3325,-3.4274,0.0,0.0,0.0,0.0,0.0,0.0,-1.062,-1.1368,-1.2074,-1.286,-1.3528,-1.3956,0.0,0.0,0.0,-1.4328,-1.5107,-1.5576,-1.5576,-1.6075,-1.6551,-1.7096,-1.5541,-1.3938,-1.2531,-1.3043,-1.3142,-1.2704,-1.4512,-1.5601,-1.5958,-1.6426,-1.6855,-1.7272,-1.8089,-1.8134,-1.7509,-1.7115,-1.6644,-1.6142,-1.6187,-1.5571,-1.4637,-1.4982,0.0,0.0,0.0,0.0,0.0,0.0,0.0,0.0,-1.3552,-1.3763,-1.3973,-1.5062,-1.4893,-1.444,-1.4866,-1.4242,-1.311,-1.1919,-1.077,-0.9561,-0.8373,-0.9099,-1.0134,-1.0451,-1.2866,-1.5059,-1.5859,-1.7168,-1.8378,-1.8985,-1.9432,-1.9745,-1.9767,-2.0232,-2.0864,-2.169,-2.1101,-2.098,-2.207,-2.1898,-2.1872,-2.2129,-2.2611,-2.2884,-2.2884,-2.2884,-2.2884,-2.2884,-2.2944,-2.2944,-2.2884,-2.3005,-2.3641,-2.4678,-2.4768,-2.541,-2.6533,-2.6533,-2.6533,-2.6584,-2.762,-2.8579,-2.9487,-3.0645,-3.1609,-3.2307,-3.2307,-3.2379,-3.2451,-3.2379,-3.2451,-3.2593,0.0,0.0,0.0,0.0,0.0,0.0,-1.136,-1.1162,-1.1436,-1.3167,-1.3062,-1.2931,-1.3134,-1.3614,0.0,-1.3915,-1.4971,-1.5576,-1.5576,-1.6118,-1.6675,-1.7073,-1.6203,-1.5355,-1.4705,-1.314,-1.2226,-1.2012,-1.4063,-1.4833,-1.457,-1.5684,-1.6074,-1.584,-1.69,-1.718,-1.6809,-1.6523,-1.615,-1.5774,-1.6127,-1.5658,-1.4667,-1.4616,-1.4153,0.0,0.0,0.0,0.0,0.0,0.0,0.0,-1.3065,-1.3283,-1.3531,-1.3484,-1.3589,-1.35,-1.2761,-1.2651,-1.2236,-1.029,-0.8624,-0.7467,-0.7147,-0.6768,-0.7312,-1.0199,-1.1192,-1.2305,-1.47,-1.5468,-1.6049,-1.7079,-1.7884,-1.8507,-1.887,-1.9566,-2.0268,-2.0801,-2.0719,-2.0673,-2.094,-2.0905,-2.0928,-2.094,-2.1095,-2.1164,-2.1164,-2.1164,-2.1164,-2.1164,-2.1815,-2.1815,-2.1164,-2.2433,-2.3306,-2.3779,-2.4484,-2.541,-2.6533,-2.6533,-2.6533,-2.6584,-2.762,-2.8243,-2.8464,-2.9606,-3.0216,-3.0419,-3.0419,-3.0846,-3.1389,-3.0696,-3.1341,-3.2451,0.0,0.0,0.0,0.0,0.0,0.0,0.0,0.0,-1.1436,-1.2549,-1.2682,-1.2757,-1.291,-1.3695,0.0,0.0,-1.5197,-1.5908,-1.5644,-1.6151,-1.6687,-1.7049,-1.7004,-1.6355,-1.5109,-1.3329,-1.2174,-1.1584,-1.2298,-1.2814,-1.315,-1.3844,-1.4369,-1.4716,-1.6148,-1.6501,-1.5974,-1.6859,-1.6752,-1.6113,-1.663,-1.6145,-1.513,-1.4991,-1.4348,-1.3407,-1.3057,0.0,0.0,0.0,0.0,0.0,0.0,0.0,-1.3175,-1.3057,-1.2832,-1.2501,-1.1628,-1.1719,-1.1176,-0.7746,-0.5945,-0.4952,-0.4486,-0.4789,-0.5747,-0.7714,-0.9367,-1.0968,-1.2523,-1.3459,-1.4224,-1.4808,-1.547,-1.6046,-1.6381,-1.698,-1.771,-1.8527,-1.8629,-1.8982,-1.9879,-1.9987,-2.0139,-2.059,-2.059,-2.059,-2.059,-2.059,-2.059,-2.059,-2.1037,-2.1227,-2.1227,-2.2303,-2.3301,-2.4132,-2.4863,-2.5636,-2.6533,-2.6533,-2.6615,-2.6892,-2.7745,-2.8247,-2.8574,-2.9428,-2.9804,-2.9804,-2.9804,-3.0062,-3.0495,-3.0011,-3.0419,-3.1193,0.0,0.0,0.0,0.0,0.0,0.0,0.0,0.0,0.0,-1.1954,-1.2393,-1.2774,-1.2891,-1.3884,-1.4376,0.0,0.0,0.0,-1.5776,-1.6337,-1.6831,-1.7267,-1.7718,-1.7045,-1.5174,-1.3726,-1.2478,-1.1333,-1.047,-1.0524,-1.1517,-1.1925,-1.2647,-1.3754,-1.5366,-1.568,-1.5147,-1.6809,-1.694,-1.6143,-1.6748,-1.6386,-1.5444,-1.5358,-1.4446,-1.3148,-1.2971,-1.292,-1.2898,-1.2822,0.0,0.0,0.0,0.0,-1.2938,-1.295,-1.2355,-1.1549,-1.083,-1.0336,-0.9023,-0.4663,-0.2961,-0.2183,-0.1386,-0.274,-0.4218,-0.4477,-0.7196,-0.9706,-1.0145,-1.1475,-1.2623,-1.2732,-1.3178,-1.3633,-1.3933,-1.4363,-1.4968,-1.598,-1.6296,-1.6886,-1.8348,-1.8696,-1.9135,-1.9857,-2.0074,-2.0139,-2.0139,-2.0139,-2.0139,-2.0139,-2.0268,-2.0655,-2.1227,-2.1993,-2.3054,-2.4353,-2.5303,-2.5988,-2.6533,-2.6634,-2.6841,-2.7318,-2.7871,-2.8423,-2.8976,-2.9553,-2.9804,-2.9804,-2.9804,-2.9804,-2.9804,-2.9804,-2.9804,-2.9804,0.0,0.0,0.0,0.0,0.0,0.0,0.0,0.0,0.0,0.0,-1.2295,-1.2178,-1.2822,-1.3505,-1.4097,-1.4514,-1.5287,-1.5908,-1.6324,0.0,0.0,-1.8012,-1.7862,-1.7452,-1.6764,-1.4513,-1.2733,-1.155,-0.9768,-0.9012,-0.9298,-1.1201,-1.2508,-1.3205,-1.3652,-1.4084,-1.4524,-1.4595,-1.4566,-1.4486,-1.5007,-1.5166,-1.4933,-1.4389,-1.4058,-1.3766,-1.2744,-1.265,-1.2929,-1.2444,-1.2559,0.0,0.0,0.0,-1.2841,-1.2437,-1.1902,-1.1107,-0.9608,-0.6743,-0.3638,-0.1192,0.0165,0.0892,0.1004,-0.0,-0.1234,-0.2053,-0.4142,-0.6484,-0.876,-0.9966,-1.0909,-1.1706,-1.2581,-1.3207,-1.3617,-1.3998,-1.4347,-1.49,-1.5166,-1.5508,-1.5703,-1.6471,-1.7042,-1.7111,-1.7901,-1.8327,-1.8327,-1.8327,-1.8327,-1.8327,-1.911,-1.9177,-1.8529,-2.04,-2.1755,-2.2548,-2.5135,-2.6458,-2.6559,-2.6942,-2.7218,-2.7318,-2.7871,-2.8423,-2.8976,-2.9553,-2.9804,-2.9804,-2.9804,-2.9804,-2.9804,-2.9804,-2.9804,-2.9804,0.0,0.0,0.0,0.0,0.0,0.0,0.0,0.0,0.0,0.0,0.0,-1.2559,-1.2871,-1.3409,-1.3909,-1.419,-1.5039,-1.5864,-1.6479,-1.7049,-1.7501,-1.7727,-1.792,-1.7577,-1.6715,-1.4714,-1.292,-1.1437,-0.9612,-0.8656,-0.8629,-0.9553,-1.0446,-1.1239,-1.1519,-1.2043,-1.2655,-1.2864,-1.3043,-1.3249,-1.3545,-1.3964,-1.4337,-1.3447,-1.3468,-1.3823,-1.2395,-1.2213,-1.2523,-1.2014,-1.1973,-1.2194,-1.2194,0.0,0.0,0.0,-1.0975,-1.0018,-0.795,-0.4365,-0.0633,0.1864,0.2832,0.3178,0.3183,0.2767,0.1541,-0.1254,-0.3462,-0.5291,-0.6582,-0.7952,-0.9039,-0.9542,-0.9971,-1.0467,-1.1293,-1.1525,-1.1921,-1.2726,-1.3608,-1.4175,-1.4175,-1.518,-1.6,-1.6558,-1.6991,-1.7442,-1.794,-1.8008,-1.8008,-1.8008,-1.8395,-1.8596,-1.8731,-2.0207,-2.1629,-2.2947,-2.4188,-2.5134,-2.5676,-2.6188,-2.6917,-2.777,-2.8323,-2.8875,-2.9428,-2.9679,-2.9804,-2.9804,-2.9804,-2.9804,-2.9804,-2.9804,-2.9804,-2.9829,0.0,0.0,0.0,0.0,0.0,0.0,0.0,0.0,0.0,0.0,0.0,-1.2891,-1.2891,0.0,0.0,0.0,-1.463,-1.5395,-1.6022,-1.661,-1.6948,-1.6948,-1.7476,-1.7322,-1.6469,-1.4789,-1.3202,-1.1704,-0.9826,-0.8788,-0.8614,-0.8396,-0.8747,-0.9547,-0.9862,-1.0441,-1.1204,-1.1389,-1.173,-1.2126,-1.2378,-1.2974,-1.3652,-1.2861,-1.324,-1.3974,-1.2121,-1.1836,-1.2236,-1.1524,-1.1351,-1.1449,-1.1567,-1.1606,0.0,0.0,0.0,-0.8459,-0.6095,-0.2666,0.0943,0.3778,0.4512,0.4477,0.449,0.4212,0.3142,0.0391,-0.2014,-0.3863,-0.4869,-0.6113,-0.7178,-0.7584,-0.7827,-0.8278,-0.913,-0.9342,-0.9714,-1.0529,-1.1764,-1.2529,-1.2614,-1.3893,-1.5056,-1.579,-1.6349,-1.6922,-1.7579,-1.7872,-1.8008,-1.8008,-1.8008,-1.8387,-1.9075,-2.0331,-2.1675,-2.3136,-2.3379,-2.3959,-2.4774,-2.5339,-2.6304,-2.7555,-2.85,-2.9252,-2.9804,-2.9804,-2.9804,-2.9804,-2.9804,-2.9804,-2.9804,-2.9804,-2.9804,-2.988,0.0,0.0,0.0,0.0,0.0,0.0,0.0,0.0,0.0,0.0,0.0,-1.2891,-1.2891,-1.292,-1.319,-1.3721,-1.3862,-1.4178,-1.4849,-1.548,-1.5793,-1.5793,-1.6321,0.0,-1.6504,-1.4914,-1.3693,-1.2905,-1.051,-0.9271,-0.9131,-0.8311,-0.8257,-0.8844,-0.9141,-0.985,-1.0783,-1.0324,-1.0466,-1.1132,-1.1653,-1.2222,-1.2806,-1.2907,-1.3759,-1.4522,-1.1948,-1.1719,-1.2363,-1.0862,-1.0605,-1.1016,-1.1469,-1.1606,-1.1528,0.0,0.0,0.0,-0.4009,-0.154,0.1057,0.3795,0.4476,0.4519,0.4477,0.335,0.2683,0.394,0.179,-0.1199,-0.4235,-0.5046,-0.5601,-0.6595,-0.7437,-0.8032,-0.8107,-0.8292,-0.8493,-0.857,-0.9548,-1.0359,-1.0683,-1.2346,-1.355,-1.3867,-1.5579,-1.6627,-1.6627,-1.751,-1.8008,-1.8008,-1.8008,-1.8203,-1.8594,-2.0452,-2.1629,-2.2113,-2.3062,-2.3772,-2.4243,-2.4812,-2.5307,-2.5836,-2.7964,-2.9252,-2.9804,-2.9804,-2.9804,-2.9804,-2.9804,-2.9804,-2.9804,-2.9804,-2.9804,-2.988,0.0,0.0,0.0,0.0,0.0,0.0,0.0,0.0,0.0,0.0,0.0,0.0,0.0,-1.2637,-1.2555,-1.2769,-1.2896,-1.3368,-1.4275,-1.4558,-1.4971,-1.5668,-1.5894,-1.6145,-1.6497,-1.4947,-1.3552,-1.2337,-1.0196,-0.8819,-0.8165,-0.7579,-0.7743,-0.8457,-0.8203,-0.8489,-0.9109,-0.8068,-0.8262,-0.9295,-0.975,-1.0829,-1.2136,-1.2444,-1.3517,-1.4639,-1.3058,0.0,-1.2904,-1.207,-1.1415,-1.0981,-1.1144,-1.1005,-1.0582,-0.9722,-0.8512,-0.6987,-0.4744,-0.2689,-0.0633,0.1353,0.3207,0.4523,0.4477,0.3304,0.2627,0.4176,0.2076,-0.0343,-0.1523,-0.3508,-0.5144,-0.5785,-0.6094,-0.6342,-0.6318,-0.6902,-0.7541,-0.8078,-0.9153,-0.9959,-1.0219,-1.1603,-1.2756,-1.365,-1.4386,-1.5296,-1.6558,-1.6922,-1.7354,-1.8008,-1.8008,-1.834,-1.9043,-1.9979,-2.0647,-2.1088,-2.1451,-2.2213,-2.3294,-2.3767,-2.4618,-2.5641,-2.6863,-2.7462,-2.773,-2.773,-2.773,-2.7706,-2.845,-2.8688,-2.8767,-2.9521,-3.0005,-3.0407,0.0,0.0,0.0,0.0,0.0,0.0,0.0,0.0,-1.0559,-1.0762,0.0,0.0,0.0,0.0,-1.2383,-1.22,-1.2328,-1.2697,-1.3254,-1.3651,-1.4132,-1.4878,-1.5411,-1.5869,-1.622,-1.4839,-1.3611,-1.2698,-1.018,-0.8723,-0.8162,-0.7293,-0.7209,-0.7831,-0.7294,-0.7655,-0.8627,-0.734,-0.7484,-0.8594,-0.9125,-1.019,-1.1483,-1.2201,-1.3234,-1.4192,0.0,0.0,0.0,-1.2773,-1.2048,-1.1267,-1.1099,-1.0511,-0.9695,-0.8728,-0.8071,-0.725,-0.5548,-0.3664,-0.1808,-0.046,0.1766,0.3755,0.4346,0.3727,0.2994,0.2963,0.137,0.0,0.0,-0.1813,-0.3502,-0.4339,-0.45,-0.4694,-0.5345,-0.5873,-0.6465,-0.7055,-0.8092,-0.8994,-0.958,-1.0692,-1.1899,-1.3142,-1.3535,-1.4243,-1.5579,-1.593,-1.663,-1.7719,-1.822,-1.8789,-1.9492,-1.9922,-2.0273,-2.0566,-2.0723,-2.1391,-2.2449,-2.2981,-2.3742,-2.4762,-2.5166,-2.5819,-2.6483,-2.6483,-2.6483,-2.6565,-2.7279,-2.7763,-2.8164,-2.8949,-2.9791,-3.0683,0.0,0.0,0.0,0.0,0.0,0.0,-0.9858,-0.9769,-1.0064,-1.0712,0.0,0.0,0.0,0.0,0.0,-1.218,-1.222,-1.209,-1.1692,-1.2673,-1.3269,-1.3293,-1.4829,-1.5668,-1.5693,-1.4651,-1.41,-1.4062,-1.063,-0.9069,-0.934,-0.7459,-0.672,-0.6947,-0.6369,-0.7324,-0.9322,-0.8205,-0.8205,-0.8994,-0.9845,-1.0355,-1.075,-1.2283,-1.3066,0.0,-1.2785,-1.2707,0.0,-1.2873,-1.2446,-1.1847,-1.1356,-1.0195,-0.8929,-0.8248,-0.7648,-0.7047,0.0,0.0,0.0,-0.1482,0.0249,0.2195,0.3972,0.4382,0.3593,0.0639,0.0,0.0,0.0,0.0,-0.0586,-0.2333,-0.2609,-0.328,-0.504,-0.5379,-0.5372,-0.5432,-0.6293,-0.7422,-0.8664,-0.9745,-1.0948,-1.2131,-1.3098,-1.3665,-1.3665,-1.4657,-1.5837,-1.7099,-1.8537,-1.9418,-1.9827,-2.0352,-2.0566,-2.0566,-2.1016,-2.1465,-2.1894,-2.2324,-2.2734,-2.3144,-2.3144,-2.4402,-2.64,-2.64,-2.64,-2.64,-2.6483,-2.7116,-2.8004,-2.8004,-2.9107,-3.0628,0.0,0.0,0.0,0.0,0.0,-1.0407,-0.9263,-0.9458,-1.0064,0.0,0.0,0.0,-1.2822,-1.2598,-1.2109,-1.1348,-1.1279,-1.1267,-1.1211,-1.1815,-1.2556,-1.3269,-1.4112,-1.4928,-1.5668,-1.4651,-1.3964,-1.365,-1.0932,-0.9275,-0.8567,-0.7091,-0.6485,-0.6614,-0.6055,-0.6329,-0.7121,-0.6085,0.0,-0.7064,-0.7512,-0.8728,0.0,0.0,0.0,0.0,0.0,-1.4541,-1.4328,0.0,-1.4029,-1.2712,-1.1386,-1.0524,-0.9899,-0.9188,-0.8445,-0.7609,-0.6892,0.0,0.0,0.0,0.0,0.0,0.1007,0.2048,0.2314,0.0404,0.0,0.0,0.0,0.0,-0.0196,-0.067,-0.0738,-0.1404,-0.3213,-0.4561,-0.5372,-0.5432,-0.6293,-0.7147,-0.7681,-0.9317,-1.0658,-1.1143,-1.2144,-1.2952,-1.368,-1.4657,-1.548,-1.6049,-1.7494,-1.8415,-1.8745,-1.9947,-2.0566,-2.0566,-2.1016,-2.1465,-2.1894,-2.2324,-2.2734,-2.3144,-2.3144,-2.3474,-2.4059,-2.4059,-2.4059,-2.4145,-2.4957,-2.5462,-2.5775,-2.6625,-2.7667,-2.8788,0.0,0.0,-1.3061,-1.1661,-1.1199,-1.0677,-0.9738,-0.9585,-0.9819,0.0,0.0,0.0,-1.2344,-1.2599,-1.2324,-1.127,-1.1172,-1.1041,-1.0718,-1.1036,-1.1637,-1.264,-1.3216,-1.41,-1.5341,-1.4287,-1.3838,-1.4061,-1.1035,-0.9232,-0.868,-0.695,-0.6003,-0.5775,-0.5459,-0.54,-0.5455,-0.4743,0.0,0.0,-0.7115,0.0,0.0,-1.1227,-1.2406,0.0,0.0,0.0,-1.5055,-1.6002,-1.5194,-1.3533,-1.252,-1.1388,-1.025,-0.9355,-0.8854,-0.8366,-0.7083,-0.6187,-0.5468,-0.4604,0.0,0.0,-0.1812,-0.0156,0.1062,0.0176,0.0,0.0,0.0,0.0,0.0,0.0,0.0,-0.0335,-0.1406,-0.3756,-0.5379,-0.5372,-0.6021,-0.6682,-0.7274,-0.8544,-0.9744,-1.0697,-1.1316,-1.207,-1.3098,-1.4164,-1.4893,-1.5241,-1.6657,-1.7586,-1.7891,-1.9243,-2.0017,-2.0188,-2.1047,-2.1738,-2.2168,-2.2578,-2.291,-2.3144,-2.3144,-2.3144,-2.3144,-2.3144,-2.3144,-2.3125,-2.38,-2.4382,-2.4872,-2.5546,-2.6664,-2.8026,0.0,0.0,-1.308,-1.2341,-1.1693,-1.1166,-1.0635,-0.9813,-0.9467,0.0,-1.0128,-1.047,-1.1737,-1.2752,-1.29,-1.1738,-1.1626,-1.1234,-1.0332,-1.0344,-1.0744,-1.1511,-1.2224,-1.3227,-1.4625,-1.3699,-1.3699,-1.4712,-1.0988,-0.9172,-0.9147,-0.6992,-0.5545,-0.4741,-0.4744,-0.459,-0.4275,-0.4058,-0.4556,-0.5656,-0.7558,-0.8408,0.0,0.0,-1.1956,-1.2613,-1.4159,-1.4808,-1.5193,-1.6798,-1.614,0.0,-1.433,-1.2821,-1.0851,-0.9502,-0.9481,-0.9391,-0.734,-0.6976,-0.6914,-0.59,-0.4781,0.0,-0.412,-0.2243,-0.0378,-0.0059,0.0,0.0,0.0,0.0,0.0,0.0,0.0,0.0,0.0,-0.275,-0.4979,-0.5379,-0.563,-0.6158,-0.707,-0.7558,-0.8609,-1.0484,-1.0893,-1.1428,-1.2271,-1.3454,-1.4288,-1.4613,-1.5905,-1.6716,-1.709,-1.8221,-1.9075,-1.9616,-2.1066,-2.2006,-2.2519,-2.2949,-2.3144,-2.3144,-2.3144,-2.3144,-2.3144,-2.3144,-2.3144,-2.3144,-2.3144,-2.3714,-2.4638,-2.468,-2.5937,-2.7502,-1.088,-1.1637,-1.1998,-1.1589,-1.1374,-1.1004,-1.0022,-0.9489,-0.9535,-1.0504,-1.0841,-1.1311,-1.2112,-1.2154,-1.2115,-1.2102,-1.1777,-1.1234,-1.0332,-1.0344,-1.0326,-1.0131,-1.1295,-1.2323,-1.3094,-1.3194,-1.3346,-1.3626,-1.1318,-0.967,-0.8632,-0.7087,-0.5707,-0.4489,-0.4475,-0.4191,-0.3705,-0.4124,0.0,-0.4998,-0.5635,0.0,-0.8351,-0.9718,-1.0986,-1.2177,-1.4011,-1.4744,-1.5058,-1.687,-1.7182,-1.6769,0.0,-1.5419,-1.4652,-1.2944,-1.1972,-1.1226,-1.0186,-0.9098,-0.7962,-0.6956,-0.6363,0.0,0.0,-0.3477,-0.2623,0.0,0.0,0.0,0.0,0.0,0.0,0.0,0.0,0.0,0.0,-0.0603,-0.2142,-0.504,-0.5567,-0.5806,-0.6086,-0.7112,-0.8313,-0.9518,-1.1374,-1.25,-1.2665,-1.3101,-1.3557,-1.3858,-1.4947,-1.569,-1.6026,-1.709,-1.825,-1.9634,-2.0181,-2.1212,-2.2519,-2.2949,-2.3144,-2.3144,-2.3144,-2.3144,-2.3144,-2.3144,-2.3144,-2.3144,-2.3144,-2.3212,-2.3513,-2.387,-2.4506,-2.526,-1.0712,-1.1366,-1.1743,-1.1539,-1.1513,-1.1208,-1.0287,-0.9873,-0.9843,-1.0331,-1.0805,-1.1138,-1.1301,-1.1523,-1.1598,-1.1407,-1.0948,-1.0355,-0.9715,-0.9423,-0.9338,-0.9402,-1.0091,-1.1153,-1.2672,-1.2558,-1.2756,-1.3293,-1.1421,-0.9745,-0.8262,-0.6932,-0.5589,-0.4287,-0.4224,-0.3905,-0.3425,-0.3658,-0.3756,-0.3889,-0.547,0.0,-0.8435,-0.9831,-1.1149,-1.2531,-1.4122,-1.5264,-1.617,-1.7486,-1.7693,0.0,-1.7841,-1.7573,-1.6827,0.0,-1.4583,-1.4018,-1.1995,-1.0894,-1.0057,-0.9099,0.0,0.0,0.0,0.0,-0.3349,-0.1812,-0.1179,-0.0702,-0.0114,0.0,0.0,0.0,0.0,0.0,0.0,-0.079,-0.2008,-0.3818,-0.5066,-0.5734,-0.58,-0.6521,-0.771,-0.9226,-1.1499,-1.2822,-1.2822,-1.3173,-1.3494,-1.3641,-1.4351,-1.4738,-1.4894,-1.6111,-1.7195,-1.8211,-1.911,-2.0357,-2.1926,-2.2114,-2.2492,-2.3144,-2.3144,-2.3144,-2.3144,-2.3144,-2.3144,-2.3144,-2.3144,-2.3144,-2.3184,-2.3633,-2.4062,-2.4565,-1.1015,-1.1416,-1.1778,-1.1617,-1.1621,-1.1339,-1.0547,-1.014,-0.9953,-0.9953,-1.0307,-1.0431,-1.0111,-1.0601,-1.0845,-1.0487,-0.9918,-0.9349,-0.8893,-0.8403,-0.8387,-0.8872,-0.8948,-1.0035,-1.2294,-1.1819,-1.1951,-1.2708,-1.1067,-0.9414,-0.7816,-0.6646,-0.537,-0.4047,-0.4047,-0.3712,-0.3176,0.0,0.0,-0.3267,0.0,-0.7017,-0.7824,-0.9581,-1.0971,-1.2092,-1.3736,-1.5463,-1.7073,-1.7755,-1.7733,-1.7693,-1.9064,-1.9116,0.0,0.0,0.0,0.0,0.0,-1.2986,-1.2602,0.0,0.0,-0.9103,0.0,0.0,0.0,0.0,0.0,0.0,0.0,-0.033,0.0,0.0,-0.047,0.0,0.0,-0.2157,0.0,-0.3099,-0.4752,-0.5793,-0.5766,-0.6233,-0.7179,-0.8912,-1.1147,-1.2553,-1.2595,-1.332,-1.3734,-1.3734,-1.3961,-1.4082,-1.4082,-1.5191,-1.6095,-1.6858,-1.7976,-1.9401,-2.0926,-2.0926,-2.1569,-2.2775,-2.2775,-2.2862,-2.3144,-2.3144,-2.3144,-2.3144,-2.3144,-2.3144,-2.3203,-2.3711,-2.4121,-2.4492,-1.1814,-1.1765,-1.1707,-1.1411,-1.137,-1.1028,-0.9959,-0.9526,-0.9283,-0.9283,-0.9368,-0.9369,-0.9357,-0.9152,-0.9245,-0.9743,-0.9422,-0.8909,-0.8336,-0.8103,-0.8056,-0.8102,-0.8394,-0.9361,-1.1068,-1.0808,-1.0635,-1.0651,-0.9698,-0.844,-0.6842,-0.6342,-0.5205,-0.3604,-0.3994,-0.3654,-0.2821,0.0,-0.3988,0.0,-0.5079,-0.4992,0.0,-0.7403,-0.8491,-0.9046,-1.1969,-1.4218,-1.5884,0.0,-1.73,-1.8093,0.0,-1.951,-2.0158,-1.8933,0.0,0.0,0.0,0.0,0.0,0.0,-1.2042,-1.1631,0.0,0.0,-0.5668,-0.3906,0.0,0.0,0.0,0.0,0.0,0.0,-0.225,0.0,-0.3996,-0.4305,-0.4609,-0.4621,-0.5413,-0.5908,-0.563,-0.6604,-0.7415,-0.7905,-1.0067,-1.1499,-1.183,-1.3213,-1.4041,-1.4041,-1.4068,-1.4082,-1.4082,-1.4462,-1.543,-1.677,-1.7175,-1.8234,-1.9679,-1.9679,-2.0387,-2.148,-2.148,-2.212,-2.3144,-2.3144,-2.3144,-2.3144,-2.3144,-2.3144,-2.3242,-2.4043,-2.4375,-2.4531,-1.1786,-1.1975,-1.2147,-1.1575,-1.1662,-1.1391,-1.005,-0.9685,-0.9499,-0.9499,-0.9002,-0.8608,-0.8596,-0.7967,-0.7834,-0.8687,-0.8313,-0.8037,-0.8002,-0.7885,-0.7631,-0.7315,-0.7686,-0.8496,-0.9716,-0.9883,-0.9984,-0.9929,-0.9576,-0.8387,-0.6462,-0.6028,-0.4931,-0.3404,-0.3779,-0.3575,-0.2936,0.0,-0.336,0.0,0.0,0.0,0.0,-0.676,-0.8539,-0.9882,-1.2014,-1.3517,-1.4585,-1.5285,-1.6026,-1.6903,0.0,0.0,0.0,-1.9198,0.0,0.0,0.0,0.0,0.0,0.0,0.0,0.0,-1.0488,0.0,-0.7018,0.0,0.0,0.0,0.0,0.0,0.0,0.0,-0.3168,0.0,0.0,0.0,-0.4559,0.0,0.0,0.0,-0.5691,-0.6675,-0.7436,-0.7753,-0.9244,-1.0553,-1.1626,-1.2511,-1.331,-1.4082,-1.4082,-1.4162,-1.4335,-1.4629,-1.5178,-1.6007,-1.6211,-1.7072,-1.8503,-1.8503,-1.9131,-2.0296,-2.0296,-2.0944,-2.2031,-2.2031,-2.2492,-2.3144,-2.3144,-2.3144,-2.3242,-2.4102,-2.4414,-2.4551,-1.2107,-1.2383,-1.2496,-1.1663,-1.1755,-1.1471,-1.0016,-0.9384,-0.9128,-0.9402,-0.8602,-0.7845,-0.7622,-0.6853,-0.6732,-0.7641,-0.7332,-0.7314,-0.7753,-0.7802,-0.7558,-0.7001,-0.7328,-0.7877,-0.8674,-0.8925,-0.9077,-0.9161,-0.9103,-0.8103,-0.6247,-0.5814,-0.4765,-0.3251,-0.357,-0.3421,-0.293,0.0,-0.2924,-0.287,-0.1941,-0.2471,-0.406,-0.6102,-0.8216,-1.0311,-1.1297,-1.2445,-1.3496,-1.3811,-1.4557,-1.5653,-1.7644,-1.8221,-1.8358,0.0,0.0,0.0,-1.7031,-1.6705,-1.6445,-1.521,-1.4587,-1.3795,-1.197,0.0,0.0,0.0,0.0,0.0,0.0,0.0,-0.3619,-0.3582,0.0,-0.3805,0.0,0.0,0.0,0.0,0.0,0.0,0.0,-0.6287,-0.683,-0.7218,-0.817,-0.9332,-1.0723,-1.1653,-1.2588,-1.3548,-1.3913,-1.4229,-1.4522,-1.4816,-1.511,-1.5404,-1.5698,-1.6292,-1.7232,-1.7232,-1.7855,-1.9039,-1.9039,-1.9679,-2.0836,-2.0836,-2.148,-2.258,-2.258,-2.294,-2.3398,-2.4141,-2.4492,-2.4707,-1.3073,-1.3015,-1.2658,-1.1523,-1.1324,-1.0831,-0.946,-0.8176,-0.7701,-0.8697,-0.7985,-0.7084,-0.6082,-0.5964,-0.6119,-0.6632,-0.6632,-0.6903,-0.747,-0.7994,-0.799,-0.7387,-0.7507,-0.7764,-0.8126,-0.7756,-0.7647,-0.7764,-0.7764,-0.7186,-0.6082,-0.5762,-0.4724,-0.3132,-0.3389,-0.3142,-0.2541,-0.2857,-0.3234,-0.3432,-0.1639,-0.2355,-0.453,0.0,-0.6586,-0.8776,-0.8829,-1.0545,-1.2743,-1.2192,-1.3125,-1.4754,-1.6058,-1.7179,-1.8291,-1.9894,-2.0784,-2.0926,-1.9142,-1.872,-1.7961,-1.4836,-1.4398,-1.4228,-1.2155,-1.1137,-1.0207,0.0,0.0,0.0,-0.2441,-0.2803,-0.3595,-0.3602,-0.3612,0.0,0.0,0.0,0.0,0.0,0.0,0.0,0.0,-0.5178,-0.5253,0.0,-0.6781,-0.7708,-0.8431,-1.0821,-1.2159,-1.2322,-1.3476,-1.4229,-1.4522,-1.4816,-1.511,-1.5404,-1.5698,-1.5832,-1.5832,-1.5832,-1.6574,-1.7777,-1.7777,-1.8411,-1.9588,-1.9588,-2.0314,-2.1391,-2.1391,-2.2363,-2.3828,-2.4258,-2.4687,-2.5117,-1.3155,-1.3577,-1.3602,-1.2608,-1.2575,-1.1918,-0.9545,-0.7721,-0.66,-0.6584,-0.6352,-0.5695,-0.4348,-0.467,-0.5407,-0.648,-0.6999,-0.7471,-0.8075,-0.8452,-0.8389,-0.774,-0.746,-0.7462,-0.7762,-0.8136,-0.793,-0.7184,-0.8044,-0.7666,-0.6082,-0.5762,-0.4857,-0.3501,-0.35,-0.3162,0.0,0.0,0.0,0.0,0.0,-0.2159,-0.2857,-0.4128,-0.5466,-0.6763,-0.8199,-0.9283,-1.0175,-1.0946,-1.1903,-1.3045,-1.4494,-1.5058,-1.5592,-1.7606,-1.7809,-1.7485,-1.7791,-1.8113,-1.8034,-1.6494,-1.575,-1.4828,-1.2766,-1.1333,-0.992,0.0,0.0,0.0,0.0,-0.3092,-0.3873,-0.2864,-0.3407,-0.4249,0.0,0.0,0.0,0.0,0.0,0.0,0.0,0.0,0.0,0.0,-0.6108,0.0,-0.8359,-0.9201,-1.0471,-1.2225,-1.2674,-1.3509,-1.4803,-1.491,-1.5204,-1.5685,-1.5778,-1.5832,-1.5832,-1.5832,-1.6008,-1.648,-1.648,-1.7124,-1.8319,-1.8319,-1.9039,-2.024,-2.1336,-2.2245,-2.3094,-2.4079,-2.4687,-2.5137,-1.3257,-1.4197,-1.4703,-1.3668,-1.3265,-1.2469,-1.056,-0.8315,-0.6297,-0.4651,-0.4892,-0.457,-0.2861,-0.3782,-0.5085,-0.648,-0.6999,-0.7629,-0.8627,-0.9134,-0.8966,-0.8008,-0.8063,-0.7842,-0.7321,-0.7953,-0.7837,-0.6875,-0.79,-0.7647,-0.6239,-0.5787,-0.5043,-0.399,-0.3567,-0.318,-0.2907,-0.2555,-0.3227,0.0,0.0,-0.1561,-0.2006,-0.3698,-0.4798,-0.5614,-0.7052,-0.8041,-0.8842,-0.9776,-1.0764,-1.1975,-1.3659,-1.4134,-1.4473,-1.6637,-1.6746,-1.6311,-1.707,-1.7575,-1.7669,-1.7102,-1.6456,-1.5552,-1.3803,-1.2496,-1.1072,-0.8956,0.0,0.0,0.0,-0.318,-0.3526,-0.3064,-0.3991,-0.4731,0.0,-0.5162,0.0,0.0,0.0,0.0,0.0,0.0,0.0,0.0,0.0,0.0,0.0,-0.8565,-0.982,-1.1627,-1.2504,-1.3559,-1.4963,-1.4963,-1.5257,-1.5832,-1.5832,-1.5832,-1.5832,-1.5832,-1.5832,-1.5832,-1.5832,-1.6292,-1.703,-1.703,-1.7762,-1.8996,-2.0188,-2.1404,-2.2811,-2.4105,-2.4922,-2.5352,-1.3471,-1.4917,-1.5917,-1.4705,-1.3479,-1.2577,-1.2365,-0.9961,-0.689,-0.3262,-0.3672,-0.3577,-0.1666,-0.3239,-0.5093,-0.648,-0.6642,-0.7442,-0.9125,-0.9914,-0.964,-0.8224,-0.9173,-0.8805,-0.6942,-0.7365,0.0,-0.6797,-0.7265,-0.7187,-0.6488,-0.5913,-0.5262,-0.459,-0.3585,-0.3164,-0.3147,-0.1898,-0.2511,-0.4002,-0.1177,-0.0671,-0.1899,-0.336,-0.4483,-0.5249,-0.5425,-0.6827,-0.8593,-0.8646,-0.9804,-1.1547,-1.3449,-1.4336,-1.5044,-1.6906,-1.7523,-1.7486,-1.7202,-1.7142,-1.7099,-1.6678,-1.6554,-1.6271,-1.5191,-1.4529,-1.3543,-1.1456,-0.9382,0.0,0.0,-0.3212,-0.2894,-0.4313,-0.5206,-0.5623,-0.5345,0.0,0.0,0.0,0.0,0.0,0.0,0.0,0.0,0.0,0.0,0.0,0.0,-0.8801,-1.014,-1.0509,-1.2699,-1.4177,-1.4847,-1.486,-1.5153,-1.571,-1.5724,-1.5832,-1.5832,-1.5832,-1.5832,-1.5832,-1.5832,-1.5832,-1.5832,-1.5832,-1.648,-1.7636,-1.7963,-2.002,-2.2902,-2.4563,-2.5371,-2.5742,-1.417,-1.6108,-1.7683,-1.7224,-1.5058,-1.3495,-1.3788,-1.1263,-0.8278,-0.5411,-0.3318,-0.1626,-0.0496,-0.2841,-0.5085,-0.648,-0.7553,-0.8567,-0.9585,-1.0981,-1.1041,-0.9416,-0.966,-0.9268,-0.8045,-0.7886,-0.7541,-0.6963,-0.746,-0.7422,-0.6803,-0.6244,-0.5636,-0.5001,-0.4052,-0.3192,-0.2473,-0.2375,-0.187,-0.1065,-0.0335,-0.0165,-0.0648,-0.2103,-0.3447,-0.459,-0.5263,-0.5963,-0.6753,-0.7932,-0.8994,-1.0123,-1.1579,-1.2866,-1.4128,-1.5481,-1.6327,-1.6869,-1.7373,-1.7891,-1.8168,-1.7651,-1.7355,-1.6929,-1.5948,-1.5052,-1.3798,-1.1674,-1.0759,-0.9188,-0.5246,-0.5022,-0.5374,-0.5333,-0.6162,-0.6525,0.0,0.0,0.0,0.0,0.0,0.0,0.0,0.0,0.0,0.0,0.0,0.0,0.0,0.0,-0.7902,-0.9305,-0.9932,-1.0845,-1.2104,-1.3117,-1.3848,-1.4272,-1.5334,-1.5832,-1.5832,-1.5832,-1.5832,-1.5832,-1.5832,-1.5832,-1.5832,-1.5832,-1.6021,-1.6441,-1.7925,-2.0541,-2.3608,-2.5024,-2.5644,-2.5742,-1.4483,-1.6472,-1.8196,-1.8273,-1.7101,-1.5991,-1.5359,-1.2968,-1.0047,-0.6769,-0.3485,-0.1359,-0.11,-0.3018,-0.4946,-0.647,-0.7298,-0.8306,-0.946,-1.0859,-1.1005,-0.9597,-1.0318,-1.0044,-0.8615,-0.8551,0.0,-0.6985,-0.752,-0.7348,-0.6466,-0.6224,-0.5745,-0.5083,-0.4094,-0.3071,-0.1919,-0.0264,0.1045,0.183,0.0552,0.0,0.0,-0.1663,-0.3094,-0.4375,-0.4875,-0.5394,-0.594,-0.6852,-0.804,-0.9313,-1.0366,-1.1719,-1.3084,-1.44,-1.5119,-1.5718,-1.68,-1.7413,-1.773,-1.7756,-1.7835,-1.7726,-1.6713,-1.5869,-1.4757,-1.2704,-1.1439,-0.9907,-0.7182,-0.6569,-0.6438,0.0,0.0,0.0,0.0,0.0,0.0,0.0,0.0,0.0,0.0,0.0,0.0,0.0,0.0,0.0,0.0,0.0,0.0,-0.8869,-0.941,-1.0416,-1.1991,-1.2779,-1.3676,-1.4628,-1.5455,-1.5832,-1.5832,-1.5832,-1.5832,-1.5832,-1.5832,-1.5832,-1.5832,-1.5832,-1.5832,-1.598,-1.7916,-2.0424,-2.2968,-2.4313,-2.5235,-2.5742,-1.4551,-1.6122,-1.7686,-1.831,-1.8478,-1.812,-1.6816,-1.4907,-1.2142,-0.8121,-0.4919,-0.3027,-0.3039,-0.3907,-0.5072,-0.6421,-0.6699,-0.7471,-0.9005,-1.0248,-1.0431,-0.9318,-1.0797,-1.0762,-0.8857,-0.9062,-0.8493,0.0,-0.7465,-0.7083,-0.5935,-0.5997,-0.567,-0.5004,-0.398,-0.2708,-0.102,0.2626,0.43,0.4254,0.1638,0.0335,-0.0167,-0.1397,-0.2854,-0.4206,-0.4428,-0.5031,-0.5694,-0.581,-0.7061,-0.8719,-0.9614,-1.0718,-1.195,-1.3416,-1.4034,-1.4492,-1.5853,-1.6368,-1.6652,-1.7302,-1.8015,-1.8319,-1.7373,-1.6784,-1.5872,-1.4141,-1.1954,-1.0195,-0.9507,-0.7972,-0.7012,0.0,0.0,0.0,0.0,0.0,0.0,0.0,0.0,0.0,0.0,0.0,0.0,0.0,0.0,0.0,0.0,0.0,0.0,-0.8607,-0.9689,-1.0916,-1.2383,-1.2655,-1.3564,-1.5227,-1.5399,-1.5629,-1.5832,-1.5832,-1.5832,-1.5832,-1.5832,-1.5832,-1.5832,-1.5832,-1.5872,-1.6088,-1.775,-1.9645,-2.1558,-2.2968,-2.4196,-2.5216,-1.471,0.0,0.0,0.0,-1.5776,-1.4824,-1.7414,-1.6577,-1.4637,-1.175,-1.0261,-0.8699,-0.6679,-0.6288,-0.6206,-0.6277,-0.7314,-0.8203,-0.8748,-1.0529,-1.0998,-0.9731,-1.0444,-1.0238,-0.8857,-0.8369,-0.7896,-0.7432,-0.7111,-0.6727,-0.6197,-0.5755,-0.5436,-0.5279,-0.4229,-0.1804,0.1545,0.2263,0.3349,0.4429,0.391,0.2237,-0.0056,-0.0279,-0.1283,-0.279,-0.4027,-0.4768,-0.5178,-0.5875,-0.6546,-0.7316,-0.8931,-1.0034,-1.0927,-1.1935,-1.3174,-1.4273,-1.4551,-1.5545,-1.6539,-1.6652,-1.7246,-1.7752,-1.7571,-1.7005,-1.6231,-1.5192,-1.366,-1.1909,-1.0186,-0.9408,-0.9059,0.0,0.0,0.0,0.0,0.0,0.0,0.0,0.0,0.0,0.0,0.0,0.0,0.0,0.0,0.0,0.0,0.0,0.0,0.0,-0.7796,-0.8005,-0.819,-0.9621,-1.1027,-1.2227,-1.3578,-1.4758,-1.5832,-1.5832,-1.5832,-1.5832,-1.5832,-1.5832,-1.5832,-1.5832,-1.6112,-1.6567,-1.6959,-1.8253,-2.0143,-2.1558,-2.2165,-2.2767,-1.695,0.0,0.0,0.0,-1.5864,-1.4771,-1.6419,-1.5553,-1.4146,-1.271,-1.1384,-0.986,-0.8019,-0.6978,-0.6622,-0.7159,-0.7559,-0.805,-0.8698,-0.9982,-1.0305,-0.9316,-1.0254,-1.0151,-0.8804,-0.8866,-0.8324,-0.7241,-0.722,-0.6644,-0.5519,-0.5443,-0.5134,-0.4606,-0.2899,-0.0832,0.1462,0.2803,0.3811,0.4492,0.4491,0.3132,0.106,0.028,-0.0894,-0.2404,-0.3922,-0.4569,-0.4756,-0.5366,-0.598,-0.6784,-0.8184,-0.918,-1.0135,-1.1392,-1.2381,-1.3114,-1.3957,-1.4728,-1.5429,-1.5796,-1.6482,-1.7024,-1.7024,-1.6765,-1.6291,-1.5486,-1.4396,-1.3076,-1.1412,-1.0587,-1.0357,-1.0911,0.0,0.0,0.0,0.0,0.0,0.0,0.0,0.0,0.0,0.0,0.0,0.0,0.0,0.0,0.0,0.0,0.0,0.0,0.0,0.0,-0.849,-0.939,-1.0478,-1.1721,-1.2512,-1.3596,-1.4854,-1.4854,-1.514,-1.5832,-1.5832,-1.5832,-1.5845,-1.5992,-1.6313,-1.6727,-1.6874,-1.8002,-1.9731,-2.0333,-2.1049,-2.2064,-1.8827,-1.8084,0.0,-1.6733,-1.4353,-1.295,-1.4154,-1.3576,-1.2975,-1.3129,-1.1686,-1.0128,-0.8858,-0.7757,-0.7373,-0.8021,-0.7895,-0.8062,-0.8632,-0.9363,-0.9562,-0.9054,-0.9858,-0.9961,-0.9001,-0.9406,-0.8799,-0.7171,-0.7391,-0.6677,-0.5117,-0.5122,-0.4512,-0.3282,-0.1062,0.0423,0.1416,0.3771,0.4789,0.4723,0.4559,0.3583,0.2063,0.0559,-0.0728,-0.1958,-0.3816,-0.4509,-0.4564,-0.4803,-0.5446,-0.6291,-0.7371,-0.8355,-0.932,-1.0829,-1.1516,-1.2074,-1.3356,-1.3957,-1.4332,-1.5001,-1.568,-1.6255,-1.6255,-1.6255,-1.6083,-1.5448,-1.4709,-1.382,-1.2507,-1.1881,-1.1815,-1.2518,0.0,0.0,0.0,0.0,0.0,0.0,0.0,0.0,0.0,0.0,0.0,0.0,0.0,0.0,0.0,0.0,0.0,0.0,0.0,-0.8015,-0.9255,-0.9315,-1.0114,-1.1492,-1.1434,-1.2231,-1.3488,-1.3488,-1.4172,-1.5439,-1.5439,-1.5534,-1.5845,-1.6152,-1.6446,-1.674,-1.7034,-1.8039,-1.9228,-1.9524,-2.0128,-2.1253,-1.8337,0.0,-1.3389,-1.2892,-0.7121,-0.451,-1.0355,-1.157,-1.2508,-1.4348,-1.3229,-1.1687,-1.0195,-0.9923,-0.9331,-0.8121,-0.8898,-0.9079,-0.8237,-0.9183,-0.9769,-0.9718,-0.9263,-0.9211,-0.9718,-0.9159,-0.8535,-0.7795,-0.7295,-0.672,-0.6048,-0.4865,-0.3273,-0.1285,0.0697,0.2277,0.3579,0.5127,0.5636,0.5341,0.4739,0.3577,0.2063,0.0558,-0.0112,-0.0559,-0.3482,-0.4504,-0.4545,-0.4717,-0.502,-0.541,-0.6465,-0.7437,-0.8291,-0.9268,-1.0591,-1.1826,-1.195,-1.3114,-1.4213,-1.4273,-1.4923,-1.5526,-1.5526,-1.5526,-1.5468,-1.541,-1.4746,-1.3909,-1.2905,-1.3742,-1.4351,-1.3919,-1.5563,0.0,0.0,0.0,0.0,0.0,0.0,0.0,0.0,0.0,0.0,0.0,-0.759,0.0,0.0,0.0,0.0,-0.6953,0.0,-0.741,-0.7382,-0.7931,-0.8826,-1.0027,-1.0112,-1.0877,-1.2037,-1.2037,-1.2813,-1.4064,-1.4064,-1.4758,-1.5845,-1.6152,-1.6446,-1.674,-1.7034,-1.7432,-1.7884,-1.9109,-1.8916,-1.8436,-2.1877,-1.8372,-1.4905,-1.287,-0.8422,-0.6452,-1.056,-1.0634,-1.1205,-1.3931,-1.3213,-1.2162,-1.126,-1.0598,-1.0056,-0.9663,-0.9441,-0.946,-0.9755,-0.996,-0.995,-0.9806,-0.9909,-0.9769,-0.9211,-0.9718,-0.9292,-0.7888,-0.7758,-0.6943,-0.5489,-0.388,-0.1501,0.1431,0.3313,0.4534,0.519,0.553,0.5579,0.5429,0.4746,0.4144,0.3304,0.0893,0.0,-0.0168,-0.1343,-0.2493,-0.3535,-0.4496,-0.4904,-0.5165,-0.6302,-0.6915,-0.7502,-0.8882,-0.9779,-1.0528,-1.1516,-1.2258,-1.2992,-1.3957,-1.4451,-1.4805,-1.5294,-1.541,-1.5488,-1.5742,-1.5369,-1.5005,-1.5106,-1.5019,-1.5173,-1.5937,-1.6572,0.0,0.0,0.0,0.0,0.0,0.0,0.0,0.0,0.0,0.0,0.0,0.0,0.0,0.0,0.0,0.0,-0.6661,0.0,-0.7389,-0.7618,-0.7834,-0.8202,-0.8721,-0.8788,-0.9509,-1.0779,-1.0779,-1.194,-1.3872,-1.3872,-1.475,-1.6112,-1.6406,-1.67,-1.7007,-1.7301,-1.7475,-1.7687,-1.8199,-1.8094,-1.7833,-2.3731,-2.0715,-1.702,-1.3174,-1.0214,-0.8706,-0.9635,-0.9247,-0.9734,-1.2213,-1.2236,-1.1959,-1.1799,-1.1111,-1.0681,-1.0765,-1.0224,-1.0187,-1.0967,-1.0801,-1.0628,-1.0407,-1.0661,-1.0474,-0.9718,-1.0423,-1.0134,-0.8747,-0.8476,-0.75,-0.5837,-0.2228,0.0941,0.3625,0.6257,0.718,0.6836,0.6338,0.6018,0.5764,0.4849,0.4484,0.4212,0.1618,0.0391,0.0,0.0,-0.1191,-0.2909,-0.4339,-0.4897,-0.5095,-0.6036,-0.6523,-0.6981,-0.8484,-0.9075,-0.9588,-1.1031,-1.1655,-1.2074,-1.3235,-1.3837,-1.4332,-1.4923,-1.5332,-1.5723,-1.6172,-1.6046,-1.6102,-1.6767,-1.6218,-1.597,-1.7045,-1.7323,-1.7486,0.0,-1.7245,0.0,0.0,-1.4478,-1.2893,-1.2116,-1.0509,0.0,0.0,0.0,0.0,0.0,0.0,0.0,0.0,0.0,0.0,-0.7813,-0.7909,-0.8045,-0.8038,-0.8038,-0.8528,-0.941,-0.9805,-1.0974,-1.2813,-1.3102,-1.4219,-1.5686,-1.5969,-1.657,-1.7181,-1.7475,-1.7582,-1.7582,-1.7582,-1.7582,-1.7635,-2.2377,-2.1336,-1.8751,-1.3092,-1.0941,-0.9058,-0.6401,-0.6949,-0.8134,-0.919,-1.029,-1.1143,-1.1726,-1.1785,-1.1579,-1.1019,-1.1399,-1.1572,-1.1291,-1.165,-1.1837,-1.1796,-1.1166,-1.1116,-1.1765,-1.1116,-1.0813,-1.0746,-0.9517,-0.8526,-0.7709,0.0209,0.4227,0.4948,0.942,1.0411,0.8606,0.787,0.7202,0.648,0.5062,0.4477,0.4324,0.2794,0.1285,0.0,0.0,-0.1177,-0.2932,-0.4384,-0.5002,-0.5116,-0.5336,-0.6013,-0.685,-0.7762,-0.8613,-0.946,-1.0364,-1.117,-1.1826,-1.1826,-1.3053,-1.4213,-1.4213,-1.5185,-1.6172,-1.6641,-1.6675,-1.6792,-1.7285,-1.7363,-1.7227,-1.6816,-1.8141,-1.8647,-1.6983,-1.7471,0.0,-1.5533,-1.3424,-1.222,-1.2498,-1.0801,0.0,0.0,0.0,0.0,0.0,0.0,0.0,-0.6789,-0.4459,0.0,-0.7422,-0.7818,-0.7959,-0.8038,-0.8038,-0.8038,-0.8038,-0.941,-1.0002,-1.01,-1.1365,-1.2856,-1.437,-1.4743,-1.5732,-1.7181,-1.7475,-1.7582,-1.7582,-1.7582,-1.7582,-1.7675,-2.2982,-2.021,-1.7151,-1.4602,-1.1051,-0.8222,-0.7206,-0.6272,-0.6653,-0.9354,-1.0077,-1.0309,-1.0195,-1.0809,-1.1057,-1.0504,-1.0293,-1.0334,-1.0728,-1.1001,-1.1111,-1.1132,-1.1832,-1.19,-1.1116,-1.1832,-1.1751,-1.0813,-1.048,-0.8715,-0.5481,-0.0183,0.3328,0.5328,0.8287,0.9552,0.9325,0.7641,0.6794,0.648,0.5062,0.4525,0.4317,0.279,0.1283,0.0,0.0,-0.0398,-0.1274,-0.4001,-0.4958,-0.5044,-0.5324,-0.5611,-0.6013,-0.685,-0.7697,-0.8613,-0.946,-1.0351,-1.1108,-1.1655,-1.2197,-1.287,-1.3957,-1.543,-1.6641,-1.709,-1.7402,-1.7637,-1.7793,-1.7812,-1.7773,-1.7617,-1.8014,-1.8247,-1.7637,-1.7863,-1.7777,-1.7245,-1.5415,-1.4513,-1.524,-1.2565,0.0,0.0,0.0,0.0,0.0,0.0,0.0,0.0,-0.1934,-0.2308,-0.5034,-0.7021,-0.7959,-0.8038,-0.8038,-0.8038,-0.8038,-0.8428,-0.9122,-1.0002,-1.0518,-1.1683,-1.3217,-1.439,-1.5383,-1.6057,-1.7226,-1.7582,-1.7582,-1.7582,-1.7582,-1.7675,-2.3069,-2.0404,-1.767,-1.6095,-1.2032,-0.8671,-0.7764,-0.5908,-0.5511,-0.815,-0.8762,-0.8967,-0.9116,-0.9533,-0.9847,-0.9886,-0.9649,-0.9735,-1.0445,-1.0624,-1.0707,-1.078,-1.1633,-1.1683,-1.0813,-1.1882,-1.203,-1.1166,-1.0737,-0.8695,-0.5188,-0.1338,0.1934,0.4665,0.6838,0.8241,0.8842,0.7256,0.646,0.6091,0.4952,0.447,0.4373,0.3411,0.1788,0.0,0.0,0.0,-0.0288,-0.2369,-0.3898,-0.482,-0.4353,-0.4772,-0.5552,-0.6441,-0.7111,-0.7697,-0.8549,-0.946,-1.0225,-1.0717,-1.1329,-1.2321,-1.4268,-1.5612,-1.6617,-1.7453,-1.7832,-1.8008,-1.8008,-1.8008,-1.8008,-1.8008,-1.8008,-1.8008,-1.8008,-1.8008,-1.7755,-1.7073,-1.5718,-1.4947,-1.5219,-1.3046,-1.2318,0.0,0.0,0.0,0.0,0.0,-0.5421,-0.2838,-0.0944,-0.177,-0.5456,-0.7186,-0.7972,-0.7952,-0.8045,-0.8038,-0.8038,-0.8038,-0.8464,-0.9322,-0.9423,-1.0408,-1.2002,-1.308,-1.4228,-1.553,-1.6393,-1.7147,-1.7582,-1.7582,-1.7662,-1.7822,-2.2721,-2.1453,-1.9638,-1.723,-1.3398,-0.9962,-0.787,-0.5747,-0.4813,-0.5865,-0.6512,-0.728,-0.8341,-0.7967,-0.8034,-0.9058,-0.9178,-0.9494,-1.0223,-1.0321,-1.0441,-1.073,-1.0762,-1.0813,-1.0864,-1.1466,-1.1814,-1.1864,-1.041,-0.8669,-0.665,-0.3081,0.0106,0.2932,0.5161,0.6618,0.7329,0.6806,0.6126,0.5429,0.4787,0.4477,0.4497,0.4379,0.2575,0.0112,0.0056,0.0,0.0,0.0,-0.2005,-0.4296,-0.2684,-0.3581,-0.5382,-0.6351,-0.6654,-0.685,-0.7697,-0.8549,-0.9204,-0.9268,-1.0604,-1.2476,-1.4792,-1.5644,-1.6291,-1.7639,-1.794,-1.8008,-1.8008,-1.8008,-1.8008,-1.8008,-1.8008,-1.8008,-1.8008,-1.794,-1.7293,-1.5566,-1.4775,-1.3993,-1.3164,-1.2444,-1.2903,0.0,0.0,0.0,0.0,0.0,-0.6733,-0.3688,-0.1285,-0.2423,-0.7403,-0.7798,-0.7985,-0.7972,-0.8052,-0.8038,-0.8038,-0.8038,-0.8126,-0.8269,-0.8282,-0.9272,-1.0715,-1.0839,-1.2539,-1.5091,-1.5304,-1.6274,-1.7477,-1.7582,-1.7782,-1.809,-2.2262,-2.0251,-1.7743,-1.5158,-1.1762,-0.8635,-0.6235,-0.5168,-0.4666,-0.4769,-0.5331,-0.5813,-0.607,-0.5973,-0.6112,-0.666,-0.682,-0.7158,-0.7876,-0.8371,-0.9089,-0.9982,-1.0509,-1.1065,-1.1566,-1.1715,-1.208,-1.2657,-1.0712,-0.9489,-0.8889,-0.5288,-0.2647,-0.0808,0.2331,0.4254,0.5193,0.581,0.5828,0.5429,0.4787,0.4519,0.4359,0.3183,0.2289,0.1509,0.0392,0.0,0.0,0.0,-0.0525,-0.1283,-0.1967,-0.2741,-0.3652,-0.5219,-0.621,-0.6719,-0.6981,-0.7632,-0.8484,-0.9139,-1.0688,-1.2447,-1.3588,-1.4883,-1.6089,-1.6762,-1.7491,-1.8008,-1.8008,-1.8008,-1.8008,-1.8008,-1.8008,-1.8008,-1.8008,-1.7354,-1.678,-1.6305,-1.5084,-1.4429,-1.4928,-1.3719,-1.3487,-1.4836,0.0,-1.2323,-1.083,-0.9437,-0.7114,-0.3691,-0.1285,-0.0605,-0.1912,-0.5962,-0.8006,-0.7972,-0.8052,-0.8038,-0.8038,-0.8038,-0.8126,-0.8275,-0.8384,-0.8744,-0.9355,-1.055,-1.1494,-1.229,-1.4556,-1.5636,-1.6062,-1.7147,-1.7782,-1.809,-2.1269,-1.9667,-1.7466,-1.4824,-1.1853,-0.9004,-0.644,-0.5201,-0.4535,-0.443,-0.4691,-0.4995,-0.5265,-0.5145,-0.5111,-0.5315,-0.5629,-0.5898,-0.6128,-0.683,-0.7722,-0.8803,-0.9169,-0.9688,-1.0407,-1.0712,-1.1216,-1.195,-1.0474,-0.9791,-0.971,-0.7094,-0.4915,-0.3101,-0.0927,0.1203,0.3135,0.3655,0.4333,0.5007,0.4636,0.447,0.4421,0.3577,0.2404,0.1062,0.028,0.0,0.0,0.0,0.0,-0.0121,-0.0922,-0.1906,-0.3029,-0.4888,-0.5763,-0.6137,-0.6137,-0.6788,-0.7807,-0.9241,-1.0472,-1.171,-1.3031,-1.4134,-1.5133,-1.5826,-1.6367,-1.6733,-1.6733,-1.6733,-1.6872,-1.7285,-1.7354,-1.751,-1.794,-1.7316,-1.6634,-1.6191,-1.5067,-1.4439,-1.4665,-1.3929,-1.3863,-1.5111,-1.4109,-1.2747,-1.1226,-1.0224,-0.7782,-0.3695,-0.1274,0.0,0.0,-0.2922,-0.5546,-0.7972,-0.7959,-0.8052,-0.8038,-0.8113,-0.8228,-0.8377,-0.852,-0.8676,-0.8818,-0.9771,-1.046,-1.1219,-1.2832,-1.4234,-1.5541,-1.6423,-1.743,-1.829,-2.0104,-1.9228,-1.7775,-1.5247,-1.2625,-1.002,-0.7391,-0.5545,-0.4387,-0.4308,-0.4264,-0.4482,-0.5005,-0.4718,-0.4525,-0.4551,-0.4796,-0.4905,-0.4865,-0.5503,-0.6338,-0.7385,-0.761,-0.8049,-0.8791,-0.9458,-1.0115,-1.0813,-1.0012,-0.9718,-0.9755,-0.8355,-0.6656,-0.4707,-0.3839,-0.1815,0.0941,0.1165,0.2334,0.4082,0.4366,0.4484,0.4497,0.4268,0.2691,0.0617,0.0168,0.0,0.0,0.0,0.0,0.0,0.0,-0.1264,-0.3051,-0.4882,-0.5379,-0.5425,-0.5425,-0.6135,-0.7327,-0.9093,-0.9959,-1.0838,-1.253,-1.3329,-1.3954,-1.4816,-1.5084,-1.5226,-1.5226,-1.5226,-1.5404,-1.6138,-1.6347,-1.6678,-1.7339,-1.6935,-1.6302,-1.5479,-1.4866,-1.4209,-1.3696,-1.3681,-1.4131,-1.535,-1.4573,-1.3535,-1.2251,-1.1061,-0.8299,-0.3786,-0.1259,0.0,0.0,0.0,-0.2511,-0.7359,-0.7766,-0.7959,-0.8045,-0.8201,-0.835,-0.8492,-0.8642,-0.8798,-0.894,-0.894,-0.9588,-1.0781,-1.1,-1.2743,-1.5171,-1.5728,-1.7017,-1.8597,-1.9112,-1.8232,-1.6967,-1.5127,-1.2637,-1.0126,-0.783,-0.5739,-0.422,-0.3796,-0.3707,-0.3751,-0.384,-0.3796,-0.3771,-0.3785,-0.2927,-0.2889,-0.4094,-0.4386,-0.5011,-0.6108,-0.7171,-0.8025,-0.8685,-0.9444,-1.0115,-1.0813,-0.9562,-0.9263,-0.9755,-0.8355,-0.7171,-0.619,-0.4914,-0.3314,-0.1548,-0.0277,0.0889,0.2109,0.3799,0.4484,0.4379,0.3072,0.3081,0.3487,0.0897,0.0,0.0,0.0,0.0,0.0,0.0,-0.1238,-0.3064,-0.484,-0.5379,-0.5425,-0.5425,-0.6135,-0.7086,-0.7726,-0.9145,-1.0538,-1.1046,-1.2458,-1.3738,-1.3882,-1.4601,-1.5226,-1.5226,-1.5226,-1.5096,-1.4747,-1.5103,-1.5289,-1.4947,-1.4751,-1.4605,-1.4456,-1.4016,-1.375,-1.3641,-1.3868,-1.4112,-1.4321,-1.4166,-1.3548,-1.231,-1.0626,-0.7774,-0.3755,-0.1256,0.0,0.0,0.0,-0.1507,-0.4622,-0.6954,-0.7959,-0.8045,-0.8201,-0.835,-0.8492,-0.8642,-0.8798,-0.894,-0.894,-0.9044,-0.9375,-1.0562,-1.2293,-1.4098,-1.5459,-1.7129,-1.8865,-1.7692,-1.7109,-1.6203,-1.4241,-1.2365,-1.0311,-0.7974,-0.618,-0.4727,-0.3721,-0.3581,-0.3609,-0.3599,-0.3619,-0.3598,-0.3599,-0.0406,0.062,-0.1703,-0.2666,-0.3713,-0.5078,-0.5684,-0.6666,-0.8119,-0.8883,-0.9406,-0.9718,-0.9106,-0.8962,-0.9263,-0.8196,-0.7289,-0.6534,-0.5483,-0.4436,-0.3395,-0.273,-0.1224,0.0778,0.1726,0.3077,0.4448,0.3705,0.2858,0.1908,0.0505,0.0,0.0,0.0,0.0,0.0,0.0,-0.1248,-0.3088,-0.4852,-0.5386,-0.5466,-0.5555,-0.5923,-0.6549,-0.741,-0.8318,-0.9309,-1.0536,-1.1527,-1.2265,-1.2806,-1.3302,-1.3665,-1.3665,-1.3665,-1.3705,-1.3964,-1.4238,-1.4554,-1.4973,-1.4673,-1.4498,-1.4676,-1.417,-1.3881,-1.3881,-1.4001,-1.4082,-1.4082,-1.4082,-1.3561,-1.2334,-1.1338,-0.9135,-0.5551,-0.1953,0.0,0.0,0.0,-0.0604,-0.1908,-0.6042,-0.7972,-0.7965,-0.8282,-0.8418,-0.8492,-0.873,-0.8872,-0.894,-0.894,-0.894,-0.8947,-0.9794,-1.1081,-1.2506,-1.3409,-1.5454,-1.7653,-1.625,-1.5903,-1.5166,-1.3355,-1.1937,-1.0301,-0.793,-0.6556,-0.5264,-0.3823,-0.3663,-0.3527,-0.3222,-0.3423,-0.3605,-0.3589,0.136,0.3537,0.1184,-0.033,-0.2168,-0.4388,-0.4491,-0.5521,-0.7664,-0.8262,-0.8646,-0.8804,-0.8804,-0.8804,-0.8804,-0.8049,-0.7289,-0.6588,-0.5819,-0.5117,-0.4477,-0.449,-0.2961,-0.0501,-0.0111,0.1397,0.3543,0.4231,0.2639,0.0,0.0,0.0,0.0,0.0,0.0,0.0,0.0,-0.152,-0.3498,-0.4517,-0.5071,-0.5542,-0.5732,-0.5827,-0.6134,-0.7171,-0.7633,-0.8237,-0.9734,-1.026,-1.072,-1.1774,-1.1922,-1.1996,-1.2231,-1.2305,-1.2471,-1.3042,-1.3346,-1.3741,-1.4637,-1.4561,-1.4475,-1.4721,-1.4393,-1.4082,-1.4082,-1.4082,-1.4082,-1.4082,-1.4148,-1.3835,-1.2857,-1.2122,-1.0012,-0.6378,-0.2176,0.0,0.0,0.0,0.0,-0.0101,-0.483,-0.7366,-0.7985,-0.8357,-0.8479,-0.8499,-0.8804,-0.894,-0.894,-0.894,-0.894,-0.8954,-0.9096,-1.007,-1.1481,-1.2267,-1.4063,-1.6229,-1.5039,-1.4332,-1.3684,-1.2974,-1.1447,-0.9691,-0.771,-0.6597,-0.5433,-0.3979,-0.3859,-0.3404,-0.2097,-0.2908,-0.3595,-0.362,0.138,0.4402,0.4206,0.2738,-0.0056,-0.4337,-0.4512,-0.5521,-0.7664,-0.7783,-0.8103,-0.8804,-0.8804,-0.8804,-0.8804,-0.8049,-0.7289,-0.6588,-0.5819,-0.5109,-0.4519,-0.4477,-0.3522,-0.1896,-0.0556,0.0112,0.0617,0.3431,0.2639,0.0,0.0,0.0,0.0,0.0,0.0,0.0,0.0,-0.2421,-0.4931,-0.3364,-0.424,-0.5693,-0.5766,-0.5908,-0.6051,-0.6374,-0.7096,-0.7855,-0.8008,-0.877,-0.9669,-1.0708,-1.0932,-1.1242,-1.2157,-1.2305,-1.2118,-1.1653,-1.2317,-1.2682,-1.2213,-1.3047,-1.3696,-1.3722,-1.3908,-1.4082,-1.4082,-1.4082,-1.4082,-1.4082,-1.4335,-1.4396,-1.4309,-1.2395,-0.908,-0.3992,-0.1396,0.0,0.0,0.0,0.0,-0.0,-0.2912,-0.5632,-0.7985,-0.8357,-0.8479,-0.8499,-0.8804,-0.894,-0.894,-0.894,-0.894,-0.8954,-0.9096,-1.0258,-1.2012,-1.3596,-1.4397,-1.5171,-1.4329,-1.3585,-1.2946,-1.2288,-1.0598,-0.8875,-0.7597,-0.6359,-0.5157,-0.401,-0.3797,-0.3497,-0.2968,-0.197,-0.1007,-0.011,0.1867,0.3484,0.4455,0.3928,0.2004,-0.1562,-0.3495,-0.4867,-0.5684,-0.6578,-0.7396,-0.8103,-0.8103,-0.8103,-0.8103,-0.7343,-0.6632,-0.5873,-0.5164,-0.4732,-0.4519,-0.4477,-0.4144,-0.3416,-0.1004,0.0,0.0112,0.1289,0.1009,0.0,0.0,0.0,0.0,0.0,0.0,0.0,0.0,-0.0944,-0.2161,-0.2539,-0.3369,-0.4324,-0.5615,-0.5989,-0.6064,-0.622,-0.6563,-0.7019,-0.7633,-0.8084,-0.8694,-0.9669,-1.0335,-1.0992,-1.155,-1.2194,-1.2572,-1.2532,-1.2812,-1.3026,-1.2973,-1.336,-1.3707,-1.3895,-1.4015,-1.4082,-1.4082,-1.4082,-1.4162,-1.4349,-1.4456,-1.4603,-1.479,-1.2081,-0.8452,-0.371,-0.1295,0.0,0.0,0.0,0.0,-0.0,-0.1006,-0.382,-0.7992,-0.8267,-0.8387,-0.8499,-0.8804,-0.894,-0.894,-0.894,-0.8988,-0.9089,-0.9239,-0.9729,-1.0472,-1.1217,-1.2149,-1.3407,-1.3014,-1.2337,-1.163,-1.0931,-0.9452,-0.8044,-0.696,-0.6034,-0.5153,-0.4124,-0.3946,-0.3795,-0.3637,-0.1453,0.0601,0.2076,0.2181,0.285,0.4392,0.449,0.3178,0.0111,-0.1992,-0.3539,-0.4484,-0.542,-0.6416,-0.7343,-0.7343,-0.7343,-0.7343,-0.6578,-0.5982,-0.5483,-0.4787,-0.4519,-0.4519,-0.4525,-0.4484,-0.4262,-0.1729,-0.0391,0.0,0.0,0.0,0.0,0.0,0.0,0.0,0.0,0.0,0.0,0.0,0.0,-0.0271,-0.1474,-0.244,-0.3516,-0.5544,-0.6118,-0.6132,-0.6234,-0.6338,-0.6493,-0.7173,-0.7326,-0.7633,-0.8618,-0.9418,-1.0046,-1.0606,-1.1642,-1.2479,-1.2606,-1.3041,-1.3414,-1.3532,-1.3721,-1.3854,-1.4055,-1.4082,-1.4082,-1.4082,-1.4175,-1.4309,-1.4509,-1.4696,-1.4552,-1.4093,-1.1596,-0.8601,-0.5134,-0.1698,0.0,0.0,0.0,0.0,0.0,0.0,-0.2421,-0.6929,-0.7871,-0.8421,-0.8567,-0.8825,-0.894,-0.894,-0.8988,-0.9062,-0.9171,-0.9374,-0.9517,-0.9625,-1.0364,-1.1261,-1.2457,-1.1065,-1.0269,-0.9547,-0.8842,-0.8131,-0.7182,-0.5701,-0.5727,-0.5458,-0.434,-0.4354,-0.4291,-0.3661,-0.1431,0.0617,0.2079,0.2181,0.285,0.4379,0.4484,0.3178,0.0167,0.0,-0.1386,-0.4375,-0.4484,-0.5202,-0.6588,-0.6588,-0.6588,-0.6588,-0.5819,-0.5483,-0.5483,-0.4787,-0.4519,-0.4519,-0.4519,-0.4525,-0.4373,-0.285,-0.1339,0.0,0.0,0.0,0.0,0.0,0.0,0.0,0.0,0.0,0.0,0.0,0.0,0.0,0.0,-0.1457,-0.354,-0.5693,-0.6302,-0.6274,-0.6261,-0.6338,-0.6338,-0.6338,-0.6338,-0.657,-0.7557,-0.7922,-0.8278,-0.9301,-1.0592,-1.149,-1.149,-1.27,-1.3559,-1.3559,-1.3908,-1.4082,-1.4082,-1.4082,-1.4082,-1.4082,-1.4349,-1.4522,-1.4522,-1.507,-1.4378,-1.2037,-1.1035,-0.9788,-0.8085,-0.2816,-0.0,-0.0,0.0,0.0,0.0,0.0,-0.1624,-0.4549,-0.7165,-0.8474,-0.8716,-0.8872,-0.894,-0.8947,-0.9096,-0.915,-0.9184,-0.949,-0.9612,-0.9863,-1.1559,-1.2217,-1.2724,-1.0864,-0.9828,-0.8947,-0.8738,-0.7309,-0.6027,-0.5592,-0.5179,-0.4395,-0.2975,-0.3793,-0.3644,-0.1327,-0.0446,0.0617,0.2079,0.2181,0.2845,0.4415,0.4477,0.4082,0.3188,0.1113,-0.0444,-0.1333,-0.3395,-0.4732,-0.5148,-0.5592,-0.5819,-0.5819,-0.5592,-0.5273,-0.4794,-0.4685,-0.4619,-0.4626,-0.4735,-0.473,-0.4677,-0.4082,-0.2304,0.0,0.0,0.0,0.0,0.0,0.0,0.0,0.0,0.0,0.0,0.0,0.0,0.0,0.0,-0.0442,-0.173,-0.5318,-0.5581,-0.5085,-0.6035,-0.6268,-0.6338,-0.6338,-0.6338,-0.6443,-0.6777,-0.7462,-0.8205,-0.8799,-0.981,-1.0896,-1.1896,-1.2422,-1.2999,-1.3864,-1.4028,-1.4082,-1.4082,-1.4082,-1.4082,-1.4082,-1.4349,-1.4603,-1.4816,-1.5364,-1.4576,-1.2037,-1.1648,-1.0395,-0.8079,-0.4622,-0.1908,-0.0,0.0,0.0,0.0,0.0,-0.1626,-0.4549,-0.7398,-0.8714,-0.8716,-0.8872,-0.894,-0.8947,-0.9096,-0.9218,-0.9334,-0.953,-0.9673,-0.9761,-1.0286,-1.1331,-1.2778,-0.9245,-0.8475,-0.7788,-0.7458,-0.646,-0.5555,-0.5171,-0.4754,-0.415,-0.3249,-0.2858,-0.202,-0.0224,0.0,0.0617,0.2079,0.2747,0.3516,0.4463,0.4525,0.4249,0.3638,0.184,0.0613,0.0,-0.1785,-0.3289,-0.4512,-0.4904,-0.5124,-0.5117,-0.5117,-0.4934,-0.4558,-0.4646,-0.4721,-0.4789,-0.4877,-0.4864,-0.4809,-0.4694,-0.3106,-0.0777,-0.024,0.0,0.0,0.0,0.0,0.0,0.0,0.0,0.0,0.0,0.0,0.0,0.0,0.0,-0.0532,-0.3122,-0.4003,-0.4545,-0.5964,-0.6274,-0.6338,-0.6338,-0.6302,-0.6369,-0.6458,-0.7046,-0.7687,-0.7897,-0.8922,-0.9952,-1.0844,-1.1724,-1.2589,-1.3294,-1.3828,-1.4082,-1.4082,-1.4082,-1.4135,-1.4242,-1.4522,-1.487,-1.5271,-1.5631,-1.4663,-1.2047,-1.195,-1.069,-0.8072,-0.6442,-0.3817,-0.0,0.0,0.0,0.0,0.0,-0.1543,-0.4598,-0.7593,-0.881,-0.8804,-0.8899,-0.8974,-0.9035,-0.9184,-0.9334,-0.949,-0.9632,-0.9747,-0.9822,-0.9822,-1.1004,-1.2742,-0.6848,-0.6534,-0.6317,-0.5655,-0.5673,-0.5415,-0.4421,-0.4386,-0.4511,-0.4511,-0.1852,0.0,0.0,0.0224,0.0953,0.2303,0.3705,0.4484,0.4519,0.4519,0.3849,0.2456,0.2286,0.1506,0.0056,0.0,-0.1339,-0.4095,-0.4212,-0.4268,-0.4274,-0.4442,-0.4579,-0.4714,-0.4728,-0.4809,-0.4938,-0.4952,-0.4958,-0.4958,-0.4924,-0.3974,-0.2284,-0.0619,0.0,0.0,0.0,0.0,0.0,0.0,0.0,0.0,0.0,0.0,0.0,0.0,0.0,0.0,0.0,-0.1885,-0.4247,-0.5905,-0.6281,-0.6268,-0.6274,-0.6376,-0.6478,-0.6505,-0.6736,-0.6932,-0.6946,-0.7918,-0.8807,-0.8886,-1.0692,-1.2151,-1.2322,-1.3379,-1.4095,-1.4122,-1.4122,-1.4242,-1.4536,-1.483,-1.5231,-1.5792,-1.5832,-1.4663,-1.2242,-1.195,-1.0788,-0.8265,-0.8072,-0.5636,-0.0804,-0.0503,-0.0201,0.0,0.0,-0.1568,-0.4567,-0.76,-0.8948,-0.894,-0.894,-0.9022,-0.9164,-0.932,-0.9469,-0.9625,-0.9768,-0.9822,-0.9822,-0.9822,-1.0897,-1.2794,-0.6642,-0.6145,-0.5764,-0.5791,-0.5242,-0.4304,-0.2901,-0.3705,-0.4511,-0.4511,-0.1852,0.0,0.0,0.2135,0.3666,0.4002,0.4324,0.4477,0.4519,0.4525,0.4359,0.4027,0.285,0.1509,0.0056,0.0,-0.0335,-0.0949,-0.2122,-0.2715,-0.2727,-0.3961,-0.4624,-0.4763,-0.4937,-0.4998,-0.5094,-0.5216,-0.527,-0.5277,-0.5298,-0.5042,-0.4365,-0.1214,0.0,0.0,0.0,0.0,0.0,0.0,0.0,0.0,0.0,0.0,0.0,0.0,0.0,0.0,0.0,-0.047,-0.1803,-0.5358,-0.6302,-0.6302,-0.6403,-0.6451,-0.6539,-0.6776,-0.6885,-0.6959,-0.7075,-0.7291,-0.7841,-0.8711,-1.0096,-1.1295,-1.2151,-1.3379,-1.4175,-1.4402,-1.4429,-1.4549,-1.4843,-1.5137,-1.5444,-1.5805,-1.5832,-1.514,-1.3584,-1.2425,-1.117,-0.9616,-0.8556,-0.7459,-0.6242,-0.4218,-0.2111,0.0,0.0,-0.1568,-0.4567,-0.76,-0.8948,-0.894,-0.894,-0.9022,-0.9164,-0.932,-0.9469,-0.9625,-0.9768,-0.9822,-0.9822,-0.9822,-1.1087,-1.326,-0.5673,-0.5289,-0.5069,-0.5203,-0.4823,-0.4212,-0.3421,-0.2747,-0.2355,-0.2355,-0.0953,0.0561,0.1967,0.3548,0.4518,0.4497,0.4484,0.4477,0.4519,0.4525,0.4477,0.4477,0.3749,0.2289,0.0056,0.0,0.0,-0.0,-0.0744,-0.1164,-0.114,-0.1981,-0.281,-0.3585,-0.4665,-0.5182,-0.5257,-0.5332,-0.5365,-0.5312,-0.4434,-0.461,-0.5035,-0.1383,0.0,0.0,0.0,0.1131,0.229,0.0607,0.0,0.0,0.0,0.0,0.0,0.0,0.0,0.0,0.0,0.0,-0.0549,-0.2747,-0.4836,-0.6344,-0.6478,-0.6539,-0.6647,-0.6878,-0.6987,-0.7054,-0.7129,-0.7143,-0.7312,-0.7929,-0.9061,-1.0183,-1.1295,-1.2623,-1.3719,-1.4409,-1.4643,-1.4843,-1.5137,-1.5431,-1.5671,-1.5818,-1.5832,-1.5248,-1.3968,-1.2619,-1.1365,-1.0002,-0.8741,-0.7965,-0.7972,-0.6642,-0.5258,-0.3987,-0.1249,-0.158,-0.4567,-0.7557,-0.8906,-0.894,-0.894,-0.9062,-0.9266,-0.9347,-0.951,-0.972,-0.9795,-0.9822,-0.9822,-0.9822,-1.111,-1.333,-0.4588,-0.4311,-0.42,-0.4442,-0.4504,-0.4343,-0.3828,-0.1625,0.0168,0.0729,0.0785,0.1628,0.384,0.4343,0.4497,0.4484,0.4477,0.447,0.4519,0.4519,0.4519,0.4477,0.456,0.338,0.0901,0.0581,0.0295,0.0,0.0,0.0,0.0,0.0,-0.063,-0.1877,-0.3494,-0.4659,-0.5379,-0.5372,-0.5372,-0.5246,-0.3756,-0.3699,-0.4115,-0.1146,0.0,0.0,0.0,0.2357,0.4937,0.2031,0.0618,0.0,0.0,0.0,0.0,0.0,0.0,0.0,0.0,0.0,0.0,0.0,-0.2644,-0.5479,-0.6417,-0.6668,-0.6783,-0.6932,-0.7061,-0.7143,-0.7143,-0.7143,-0.7143,-0.7143,-0.8105,-0.9244,-1.0231,-1.1532,-1.2933,-1.4203,-1.4834,-1.5204,-1.5444,-1.5685,-1.5832,-1.5832,-1.5832,-1.5343,-1.4268,-1.2716,-1.1463,-1.0386,-0.8825,-0.8045,-0.7965,-0.7992,-0.818,-0.8426,-0.3695,-0.277,-0.5337,-0.7749,-0.887,-0.894,-0.894,-0.911,-0.9381,-0.9381,-0.9557,-0.9822,-0.9822,-0.9822,-0.9829,-0.9876,-1.1178,-1.3248,-0.449,-0.3411,-0.2905,-0.4281,-0.4511,-0.3599,-0.1009,-0.028,0.0953,0.3543,0.3884,0.3538,0.2627,0.3694,0.4484,0.4477,0.4525,0.4519,0.4519,0.4519,0.4519,0.4519,0.4663,0.4558,0.4146,0.2947,0.1568,0.0,0.0,0.0,0.0,0.0,-0.013,-0.0333,-0.0599,-0.2466,-0.5379,-0.5386,-0.5393,-0.5393,-0.5132,-0.3301,-0.0673,-0.0202,0.0,0.0,0.0,0.2357,0.5433,0.5431,0.3004,0.0,0.0,0.0,0.0,0.0,0.0,0.0,0.0,0.0,0.0,0.0,-0.0405,-0.1887,-0.5741,-0.6662,-0.686,-0.6994,-0.7129,-0.7143,-0.7143,-0.7143,-0.7143,-0.7143,-0.8105,-0.9033,-0.9276,-1.0305,-1.1722,-1.3332,-1.4859,-1.5725,-1.5765,-1.5805,-1.5832,-1.5832,-1.5832,-1.5737,-1.5534,-1.321,-1.1853,-1.1658,-0.9312,-0.8038,-0.8045,-0.8174,-0.8262,-0.8296,-0.7712,-0.7726,-0.8278,-0.8673,-0.885,-0.894,-0.894,-0.911,-0.9381,-0.9381,-0.9557,-0.9822,-0.9822,-0.9822,-0.9856,-1.012,-1.1449,-1.3285,-0.433,-0.3934,-0.3142,-0.2188,-0.1964,-0.0952,0.2076,0.2527,0.2691,0.3137,0.399,0.4219,0.3583,0.4089,0.4477,0.4525,0.4519,0.4519,0.4519,0.4519,0.456,0.4585,0.4718,0.48,0.4956,0.435,0.37,0.3034,0.1003,0.0,0.0,0.0,0.0,0.0,0.0,-0.087,-0.2542,-0.4573,-0.5399,-0.5406,-0.5413,-0.3234,0.0,0.0,0.0,0.027,0.229,0.347,0.4277,0.561,0.4862,0.2924,0.0674,0.0,0.0,0.0,0.0,0.0,0.0,0.0,0.0,0.0,0.0,-0.0501,-0.2499,-0.4913,-0.6845,-0.7061,-0.7068,-0.7068,-0.7143,-0.7143,-0.717,-0.7258,-0.7714,-0.8305,-0.91,-0.9771,-1.1062,-1.3377,-1.4291,-1.5045,-1.5737,-1.5832,-1.5832,-1.5832,-1.5832,-1.5832,-1.5832,-1.3307,-1.195,-1.195,-0.941,-0.8038,-0.8038,-0.8194,-0.8316,-0.8397,-0.8621,-0.8737,-0.8865,-0.8906,-0.885,-0.8947,-0.9022,-0.9184,-0.9388,-0.9476,-0.9632,-0.9822,-0.9822,-0.9876,-0.9978,-1.0202,-1.0877,-1.2048]}]]